[[{"header":{"parameterUnit":"m.s-1","parameterCategory":1,"la1":31.0,"la2":29.5877,"lo1":-88.7671,"lo2":-86.6584,"dy":0.0162,"dx":0.0185,"nx":115,"ny":88,"refTime":"2026-03-06T12:00:00:Z","depth":0,"parameterNumber":2,"parameterNumberName":"U-component_of_WINDS"},"data":[0.0,0.0,0.0,0.0,0.0,0.0,0.0,0.0,0.0,0.0,0.0,0.0,0.0,0.0,0.0,0.0,0.0,0.0,0.0,0.0,0.0,0.0,0.0,0.0,0.0,0.0,0.0,0.0,0.0,0.0,0.0,0.0,0.0,0.0,0.0,0.0,0.0,0.0,0.0,0.0,0.0,0.0,0.0,0.0,0.0,0.0,0.0,0.0,0.0,0.0,0.0,0.0,0.0,0.0,0.0,0.0,0.0,0.0,0.0,0.0,0.0,0.0,0.0,0.0,0.0,0.0,0.0,0.0,0.0,0.0,0.0,0.0,0.0,0.0,0.0,0.0,0.0,0.0,0.0,0.0,0.0,0.0,0.0,0.0,0.0,0.0,0.0,0.0,0.0,0.0,0.0,0.0,0.0,0.0,0.0,0.0,0.0,0.0,0.0,0.0,0.0,0.0,0.0,0.0,0.0,0.0,0.0,0.0,0.0,0.0,0.0,0.0,0.0,0.0,0.0,0.0,0.0,0.0,0.0,0.0,0.0,0.0,0.0,0.0,0.0,0.0,0.0,0.0,0.0,0.0,0.0,0.0,0.0,0.0,0.0,0.0,0.0,0.0,0.0,0.0,0.0,0.0,0.0,0.0,0.0,0.0,0.0,0.0,0.0,0.0,0.0,0.0,0.0,0.0,0.0,0.0,0.0,0.0,0.0,0.0,0.0,0.0,0.0,0.0,0.0,0.0,0.0,0.0,0.0,0.0,0.0,0.0,0.0,0.0,0.0,0.0,0.0,0.0,0.0,0.0,0.0,0.0,0.0,0.0,0.0,0.0,0.0,0.0,0.0,0.0,0.0,0.0,0.0,0.0,0.0,0.0,0.0,0.0,0.0,0.0,0.0,0.0,0.0,0.0,0.0,0.0,0.0,0.0,0.0,0.0,0.0,0.0,0.0,0.0,0.0,0.0,0.0,0.0,0.0,0.0,0.0,0.0,0.0,0.0,0.0,0.0,0.0,0.0,0.0,0.0,0.0,0.0,0.0,0.0,0.0,0.0,0.0,0.0,0.0,0.0,0.0,0.0,0.0,0.0,0.0,0.0,0.0,0.0,0.0,0.0,0.0,0.0,0.0,0.0,0.0,0.0,0.0,0.0,0.0,0.0,0.0,0.0,0.0,0.0,0.0,0.0,0.0,0.0,0.0,0.0,0.0,0.0,0.0,0.0,0.0,0.0,0.0,0.0,0.0,0.0,0.0,0.0,0.0,0.0,0.0,0.0,0.0,0.0,0.0,0.0,0.0,0.0,0.0,0.0,0.0,0.0,0.0,0.0,0.0,0.0,0.0,0.0,0.0,0.0,0.0,0.0,0.0,0.0,0.0,0.0,0.0,0.0,0.0,0.0,0.0,0.0,0.0,0.0,0.0,0.0,0.0,0.0,0.0,0.0,0.0,0.0,0.0,0.0,0.0,0.0,0.0,0.0,0.0,0.0,0.0,0.0,0.0,0.0,0.0,0.0,0.0,0.0,0.0,0.0,0.0,0.0,0.0,0.0,0.0,0.0,0.0,0.0,0.0,0.0,0.0,0.0,0.0,0.0,0.0,0.0,0.0,0.0,0.0,0.0,0.0,0.0,0.0,0.0,0.0,0.0,0.0,0.0,0.0,0.0,0.0,0.0,0.0,0.0,0.0,0.0,0.0,0.0,0.0,0.0,0.0,0.0,0.0,0.0,0.0,0.0,0.0,0.0,0.0,0.0,0.0,0.0,0.0,0.0,0.0,0.0,0.0,0.0,0.0,0.0,0.0,0.0,0.0,0.0,0.0,0.0,0.0,0.0,0.0,0.0,0.0,0.0,0.0,0.0,0.0,0.0,0.0,0.0,0.0,0.0,0.0,0.0,0.0,0.0,0.0,0.0,0.0,0.0,0.0,0.0,0.0,0.0,0.0,0.0,0.0,0.0,0.0,0.0,0.0,0.0,0.0,0.0,0.0,0.0,0.0,0.0,0.0,0.0,0.0,0.0,0.0,0.0,0.0,0.0,0.0,0.0,0.0,0.0,0.0,0.0,0.0,0.0,0.0,0.0,0.0,0.0,0.0,0.0,0.0,0.0,0.0,0.0,0.0,0.0,0.0,0.0,0.0,0.0,0.0,0.0,0.0,0.0,0.0,0.0,0.0,0.0,0.0,0.0,0.0,0.0,0.0,0.0,0.0,0.0,0.0,0.0,0.0,0.0,0.0,0.0,0.0,0.0,0.0,0.0,0.0,0.0,0.0,0.0,0.0,0.0,0.0,0.0,0.0,0.0,0.0,0.0,0.0,0.0,0.0,0.0,0.0,0.0,0.0,0.0,0.0,0.0,0.0,0.0,0.0,0.0,0.0,0.0,0.0,0.0,0.0,0.0,0.0,0.0,0.0,0.0,0.0,0.0,0.0,0.0,0.0,0.0,0.0,0.0,0.0,0.0,0.0,0.0,0.0,0.0,0.0,0.0,0.0,0.0,0.0,0.0,0.0,0.0,0.0,0.0,0.0,0.0,0.0,0.0,0.0,0.0,0.0,0.0,0.0,0.0,0.0,0.0,0.0,0.0,0.0,0.0,0.0,0.0,0.0,0.0,0.0,0.0,0.0,0.0,0.0,0.0,0.0,0.0,0.0,0.0,0.0,0.0,0.0,0.0,0.0,0.0,0.0,0.0,0.0,0.0,0.0,0.0,0.0,0.0,0.0,0.0,0.0,0.0,0.0,0.0,0.0,0.0,0.0,0.0,0.0,0.0,0.0,0.0,0.0,0.0,0.0,0.0,0.0,0.0,0.0,0.0,0.0,0.0,0.0,0.0,0.0,0.0,0.0,0.0,0.0,0.0,0.0,0.0,0.0,0.0,0.0,0.0,0.0,0.0,0.0,0.0,0.0,0.0,0.0,0.0,0.0,0.0,0.0,0.0,0.0,0.0,0.0,0.0,0.0,0.0,0.0,0.0,0.0,0.0,0.0,0.0,0.0,0.0,0.0,0.0,0.0,0.0,0.0,0.0,0.0,0.0,0.0,0.0,0.0,0.0,0.0,0.0,0.0,0.0,0.0,0.0,0.0,0.0,0.0,0.0,0.0,0.0,0.0,0.0,0.0,0.0,0.0,0.0,0.0,0.0,0.0,0.0,0.0,0.0,0.0,0.0,0.0,0.0,0.0,0.0,0.0,0.0,0.0,0.0,0.0,0.0,0.0,0.0,0.0,0.0,0.0,0.0,0.0,0.0,0.0,0.0,0.0,0.0,0.0,0.0,0.0,0.0,0.0,0.0,0.0,0.0,0.0,0.0,0.0,0.0,0.0,0.0,0.0,0.0,0.0,0.0,0.0,0.0,0.0,0.0,0.0,0.0,0.0,0.0,0.0,0.0,0.0,0.0,0.0,0.0,0.0,0.0,0.0,0.0,0.0,0.0,0.0,0.0,0.0,0.0,0.0,0.0,0.0,0.0,0.0,0.0,0.0,0.0,0.0,0.0,0.0,0.0,0.0,0.0,0.0,0.0,0.0,0.0,0.0,0.0,0.0,0.0,0.0,0.0,0.0,0.0,0.0,0.0,0.0,0.0,0.0,0.0,0.0,0.0,0.0,0.0,0.0,0.0,0.0,0.0,0.0,0.0,0.0,0.0,0.0,0.0,0.0,0.0,0.0,0.0,0.0,0.0,0.0,0.0,0.0,0.0,0.0,0.0,0.0,0.0,0.0,0.0,0.0,0.0,0.0,0.0,0.0,0.0,0.0,0.0,0.0,0.0,0.0,0.0,0.0,0.0,0.0,0.0,0.0,0.0,0.0,0.0,0.0,0.0,0.0,0.0,0.0,0.0,0.0,0.0,0.0,0.0,0.0,0.0,0.0,0.0,0.0,0.0,0.0,0.0,0.0,0.0,0.0,0.0,0.0,0.0,0.0,0.0,0.0,0.0,0.0,0.0,0.0,0.0,0.0,0.0,0.0,0.0,0.0,0.0,0.0,0.0,0.0,0.0,0.0,0.0,0.0,0.0,0.0,0.0,0.0,0.0,0.0,0.0,0.0,0.0,0.0,0.0,0.0,0.0,0.0,0.0,0.0,0.0,0.0,0.0,0.0,0.0,0.0,0.0,0.0,0.0,0.0,0.0,0.0,0.0,0.0,0.0,0.0,0.0,0.0,0.0,0.0,0.0,0.0,0.0,0.0,0.0,0.0,0.0,0.0,0.0,0.0,0.0,0.0,0.0,0.0,0.0,0.0,0.0,0.0,0.0,0.0,0.0,0.0,0.0,0.0,0.0,-5.9624,0.0,0.0,0.0,0.0,0.0,0.0,0.0,0.0,0.0,0.0,0.0,0.0,0.0,0.0,0.0,0.0,0.0,0.0,0.0,0.0,0.0,0.0,0.0,0.0,0.0,0.0,0.0,0.0,0.0,0.0,0.0,0.0,0.0,0.0,0.0,0.0,0.0,0.0,0.0,0.0,0.0,0.0,0.0,0.0,0.0,0.0,0.0,0.0,0.0,0.0,0.0,0.0,0.0,0.0,0.0,0.0,0.0,0.0,0.0,0.0,0.0,0.0,0.0,0.0,0.0,0.0,0.0,0.0,0.0,0.0,0.0,0.0,0.0,0.0,0.0,0.0,0.0,0.0,0.0,0.0,0.0,0.0,0.0,0.0,0.0,0.0,0.0,0.0,0.0,0.0,0.0,0.0,0.0,0.0,0.0,0.0,0.0,0.0,0.0,0.0,0.0,0.0,0.0,0.0,0.0,0.0,0.0,0.0,0.0,0.0,-6.3735,-6.3248,-6.2704,-6.1361,-5.9144,0.0,0.0,0.0,0.0,0.0,0.0,0.0,0.0,0.0,0.0,0.0,0.0,0.0,0.0,0.0,0.0,0.0,0.0,0.0,0.0,0.0,0.0,0.0,0.0,0.0,0.0,0.0,0.0,0.0,0.0,0.0,0.0,0.0,0.0,0.0,0.0,0.0,0.0,0.0,0.0,0.0,0.0,0.0,0.0,0.0,0.0,0.0,0.0,0.0,0.0,0.0,0.0,0.0,0.0,0.0,0.0,0.0,0.0,0.0,0.0,0.0,0.0,0.0,0.0,0.0,0.0,0.0,0.0,0.0,0.0,0.0,0.0,0.0,0.0,0.0,0.0,0.0,0.0,0.0,0.0,0.0,0.0,0.0,0.0,0.0,0.0,0.0,0.0,0.0,0.0,0.0,0.0,0.0,0.0,0.0,0.0,0.0,0.0,0.0,0.0,0.0,0.0,0.0,0.0,0.0,0.0,0.0,0.0,0.0,0.0,0.0,0.0,-6.2671,-6.1097,-5.804,0.0,0.0,0.0,0.0,0.0,0.0,0.0,0.0,0.0,0.0,0.0,0.0,0.0,0.0,0.0,0.0,0.0,0.0,0.0,0.0,0.0,0.0,0.0,0.0,0.0,0.0,0.0,0.0,0.0,0.0,0.0,0.0,0.0,0.0,0.0,0.0,0.0,0.0,0.0,0.0,0.0,0.0,0.0,0.0,0.0,0.0,0.0,0.0,0.0,0.0,0.0,0.0,0.0,0.0,0.0,0.0,0.0,0.0,0.0,0.0,0.0,0.0,0.0,0.0,0.0,0.0,0.0,0.0,0.0,0.0,0.0,0.0,0.0,0.0,0.0,0.0,0.0,0.0,0.0,0.0,0.0,0.0,0.0,0.0,0.0,0.0,0.0,0.0,0.0,0.0,0.0,0.0,0.0,0.0,0.0,0.0,0.0,0.0,0.0,0.0,0.0,0.0,0.0,0.0,0.0,0.0,0.0,0.0,0.0,0.0,-6.3066,-6.2988,-6.2818,0.0,-5.6579,0.0,0.0,0.0,0.0,0.0,0.0,0.0,0.0,0.0,0.0,0.0,0.0,0.0,0.0,0.0,0.0,0.0,0.0,0.0,0.0,0.0,0.0,0.0,0.0,0.0,0.0,0.0,0.0,0.0,0.0,0.0,0.0,0.0,0.0,0.0,0.0,0.0,0.0,0.0,0.0,0.0,0.0,0.0,0.0,0.0,0.0,0.0,0.0,0.0,0.0,0.0,0.0,0.0,0.0,0.0,0.0,0.0,0.0,0.0,0.0,0.0,0.0,0.0,0.0,0.0,0.0,0.0,0.0,0.0,0.0,0.0,0.0,0.0,0.0,0.0,0.0,0.0,0.0,0.0,0.0,0.0,0.0,0.0,0.0,0.0,0.0,0.0,0.0,0.0,0.0,0.0,0.0,0.0,0.0,0.0,0.0,0.0,0.0,0.0,0.0,0.0,0.0,0.0,0.0,0.0,0.0,0.0,0.0,0.0,0.0,-6.2226,-6.2226,-6.0641,-5.8625,0.0,0.0,0.0,0.0,0.0,0.0,0.0,0.0,0.0,0.0,0.0,0.0,0.0,0.0,0.0,0.0,0.0,0.0,0.0,0.0,0.0,0.0,0.0,0.0,0.0,0.0,0.0,0.0,0.0,0.0,0.0,0.0,0.0,0.0,0.0,0.0,0.0,0.0,0.0,0.0,0.0,0.0,0.0,0.0,0.0,0.0,0.0,0.0,0.0,0.0,0.0,0.0,0.0,0.0,0.0,0.0,0.0,0.0,0.0,0.0,0.0,0.0,0.0,0.0,0.0,0.0,0.0,0.0,0.0,0.0,0.0,0.0,0.0,0.0,0.0,0.0,0.0,0.0,0.0,0.0,0.0,0.0,0.0,0.0,0.0,0.0,0.0,0.0,0.0,0.0,0.0,0.0,0.0,0.0,0.0,0.0,0.0,0.0,0.0,0.0,0.0,0.0,0.0,0.0,0.0,0.0,0.0,0.0,0.0,0.0,-6.1699,-6.1582,-6.1269,-5.9429,-5.759,-5.5896,0.0,0.0,0.0,0.0,0.0,0.0,0.0,0.0,0.0,0.0,0.0,0.0,0.0,0.0,0.0,0.0,0.0,0.0,0.0,0.0,0.0,0.0,0.0,0.0,0.0,0.0,0.0,0.0,0.0,0.0,0.0,0.0,0.0,0.0,0.0,0.0,0.0,0.0,0.0,0.0,0.0,0.0,0.0,0.0,0.0,0.0,0.0,0.0,0.0,0.0,0.0,0.0,0.0,0.0,0.0,0.0,0.0,0.0,0.0,0.0,0.0,0.0,0.0,0.0,0.0,0.0,0.0,0.0,0.0,0.0,0.0,0.0,0.0,0.0,0.0,0.0,0.0,0.0,0.0,0.0,0.0,0.0,0.0,0.0,0.0,0.0,0.0,0.0,0.0,0.0,0.0,0.0,0.0,0.0,0.0,0.0,0.0,0.0,0.0,0.0,0.0,0.0,0.0,0.0,0.0,0.0,0.0,0.0,0.0,-6.168,-6.1289,-6.0469,-6.021,-5.8464,0.0,0.0,0.0,0.0,0.0,0.0,0.0,0.0,0.0,0.0,0.0,0.0,0.0,0.0,0.0,0.0,0.0,0.0,0.0,0.0,0.0,0.0,0.0,0.0,0.0,0.0,0.0,0.0,0.0,0.0,0.0,0.0,0.0,0.0,0.0,0.0,0.0,0.0,0.0,0.0,0.0,0.0,0.0,0.0,0.0,0.0,0.0,0.0,0.0,0.0,0.0,0.0,0.0,0.0,0.0,0.0,0.0,0.0,0.0,0.0,0.0,0.0,0.0,0.0,0.0,0.0,0.0,0.0,0.0,0.0,0.0,0.0,0.0,0.0,0.0,0.0,0.0,0.0,0.0,0.0,0.0,0.0,0.0,0.0,0.0,0.0,0.0,0.0,0.0,0.0,0.0,0.0,0.0,0.0,0.0,0.0,0.0,0.0,0.0,0.0,0.0,0.0,0.0,0.0,0.0,0.0,0.0,0.0,0.0,-6.0078,-6.0078,-5.9941,-5.959,-5.7965,-5.6422,0.0,0.0,0.0,0.0,0.0,0.0,0.0,0.0,0.0,0.0,0.0,0.0,0.0,0.0,0.0,0.0,0.0,0.0,0.0,0.0,0.0,0.0,0.0,0.0,0.0,0.0,0.0,0.0,0.0,0.0,0.0,0.0,0.0,0.0,0.0,0.0,0.0,0.0,0.0,0.0,0.0,0.0,0.0,0.0,0.0,0.0,0.0,0.0,0.0,0.0,0.0,0.0,0.0,0.0,0.0,0.0,0.0,0.0,0.0,0.0,0.0,0.0,0.0,0.0,0.0,0.0,0.0,0.0,0.0,0.0,0.0,0.0,0.0,0.0,0.0,0.0,0.0,0.0,0.0,0.0,0.0,0.0,0.0,0.0,0.0,0.0,0.0,0.0,0.0,0.0,0.0,0.0,0.0,0.0,0.0,0.0,0.0,0.0,0.0,0.0,0.0,0.0,0.0,0.0,0.0,0.0,0.0,0.0,0.0,-5.8769,0.0,-5.8652,0.0,-5.666,-5.525,0.0,0.0,0.0,0.0,0.0,0.0,0.0,0.0,0.0,0.0,0.0,0.0,0.0,0.0,0.0,0.0,0.0,0.0,0.0,0.0,0.0,0.0,0.0,0.0,0.0,0.0,0.0,0.0,0.0,0.0,0.0,0.0,0.0,0.0,0.0,0.0,0.0,0.0,0.0,0.0,0.0,0.0,0.0,0.0,0.0,0.0,0.0,0.0,0.0,0.0,0.0,0.0,0.0,0.0,0.0,0.0,0.0,0.0,0.0,0.0,0.0,0.0,0.0,0.0,0.0,0.0,0.0,0.0,0.0,0.0,0.0,0.0,0.0,0.0,0.0,0.0,0.0,0.0,0.0,0.0,0.0,0.0,0.0,0.0,0.0,0.0,0.0,0.0,0.0,0.0,0.0,0.0,0.0,0.0,0.0,0.0,0.0,0.0,0.0,0.0,0.0,0.0,0.0,0.0,0.0,0.0,0.0,0.0,-5.7851,-5.7851,-5.7871,-5.7539,-5.666,-5.6543,-5.5269,0.0,0.0,0.0,0.0,0.0,0.0,0.0,0.0,0.0,0.0,0.0,0.0,0.0,0.0,0.0,0.0,0.0,0.0,0.0,0.0,0.0,0.0,0.0,0.0,0.0,0.0,0.0,0.0,0.0,0.0,0.0,0.0,0.0,0.0,0.0,0.0,0.0,0.0,0.0,0.0,0.0,0.0,0.0,0.0,0.0,0.0,0.0,0.0,0.0,0.0,0.0,0.0,0.0,0.0,0.0,0.0,0.0,0.0,0.0,0.0,0.0,0.0,0.0,0.0,0.0,0.0,0.0,0.0,0.0,0.0,0.0,0.0,0.0,0.0,0.0,0.0,0.0,0.0,0.0,0.0,0.0,0.0,0.0,0.0,0.0,0.0,0.0,0.0,0.0,0.0,0.0,0.0,0.0,0.0,0.0,0.0,0.0,0.0,0.0,0.0,0.0,0.0,0.0,0.0,0.0,0.0,0.0,0.0,0.0,-5.6113,-5.6699,-5.7148,-5.7422,-5.5762,-5.4687,0.0,0.0,0.0,0.0,0.0,0.0,0.0,0.0,0.0,0.0,0.0,0.0,0.0,0.0,0.0,0.0,0.0,0.0,0.0,0.0,0.0,0.0,0.0,0.0,0.0,0.0,0.0,0.0,0.0,0.0,0.0,0.0,0.0,0.0,0.0,0.0,0.0,0.0,0.0,0.0,0.0,0.0,0.0,0.0,0.0,0.0,0.0,0.0,0.0,0.0,0.0,0.0,0.0,0.0,0.0,0.0,0.0,0.0,0.0,0.0,0.0,0.0,0.0,0.0,0.0,0.0,0.0,0.0,0.0,0.0,0.0,0.0,0.0,0.0,0.0,0.0,0.0,0.0,0.0,0.0,0.0,0.0,0.0,0.0,0.0,0.0,0.0,0.0,0.0,0.0,0.0,0.0,0.0,0.0,0.0,0.0,0.0,0.0,0.0,0.0,0.0,0.0,0.0,0.0,0.0,0.0,0.0,0.0,0.0,-5.582,-5.6953,-5.7676,-5.789,-5.5996,-5.4765,-5.4297,0.0,0.0,0.0,0.0,0.0,0.0,0.0,0.0,0.0,0.0,0.0,0.0,0.0,0.0,0.0,0.0,0.0,0.0,0.0,0.0,0.0,0.0,0.0,0.0,0.0,0.0,0.0,0.0,0.0,0.0,0.0,0.0,0.0,0.0,0.0,0.0,0.0,0.0,0.0,0.0,0.0,0.0,0.0,0.0,0.0,0.0,0.0,0.0,0.0,0.0,0.0,0.0,0.0,0.0,0.0,0.0,0.0,0.0,0.0,0.0,0.0,0.0,0.0,0.0,0.0,0.0,0.0,0.0,0.0,0.0,0.0,0.0,0.0,0.0,0.0,0.0,0.0,0.0,0.0,0.0,0.0,0.0,0.0,0.0,0.0,0.0,0.0,0.0,0.0,0.0,0.0,0.0,0.0,0.0,0.0,0.0,0.0,0.0,0.0,0.0,0.0,0.0,0.0,0.0,0.0,0.0,0.0,0.0,-5.6816,-5.8555,-5.9101,-5.8242,-5.7148,-5.5469,0.0,0.0,0.0,0.0,0.0,0.0,0.0,0.0,0.0,0.0,0.0,0.0,0.0,0.0,0.0,0.0,0.0,0.0,0.0,0.0,0.0,0.0,0.0,0.0,0.0,0.0,0.0,0.0,0.0,0.0,0.0,0.0,0.0,0.0,0.0,0.0,0.0,0.0,0.0,0.0,0.0,0.0,0.0,0.0,0.0,0.0,0.0,0.0,0.0,0.0,0.0,0.0,0.0,0.0,0.0,0.0,0.0,0.0,0.0,0.0,0.0,0.0,0.0,0.0,0.0,0.0,0.0,0.0,0.0,0.0,0.0,0.0,0.0,0.0,0.0,0.0,0.0,0.0,0.0,0.0,0.0,0.0,0.0,0.0,0.0,0.0,0.0,0.0,0.0,0.0,0.0,0.0,0.0,0.0,0.0,0.0,0.0,0.0,0.0,0.0,0.0,0.0,0.0,0.0,0.0,0.0,0.0,0.0,0.0,-5.9394,-6.1719,-6.2539,-6.164,-5.8379,-5.6582,0.0,0.0,0.0,0.0,0.0,0.0,0.0,0.0,0.0,0.0,0.0,0.0,0.0,0.0,0.0,0.0,0.0,0.0,0.0,0.0,0.0,0.0,0.0,0.0,0.0,0.0,0.0,0.0,0.0,0.0,0.0,0.0,0.0,0.0,0.0,0.0,0.0,0.0,0.0,0.0,0.0,0.0,0.0,0.0,0.0,0.0,0.0,0.0,0.0,0.0,0.0,0.0,0.0,0.0,0.0,0.0,0.0,0.0,0.0,0.0,0.0,0.0,0.0,0.0,0.0,0.0,0.0,0.0,0.0,0.0,0.0,0.0,0.0,0.0,0.0,0.0,0.0,0.0,0.0,0.0,0.0,0.0,0.0,0.0,0.0,0.0,0.0,0.0,0.0,0.0,0.0,0.0,0.0,0.0,0.0,0.0,0.0,0.0,0.0,0.0,0.0,0.0,0.0,0.0,0.0,0.0,0.0,0.0,-5.8574,-6.039,-6.3672,-6.5156,-6.4648,-6.082,-5.8301,0.0,0.0,0.0,0.0,0.0,0.0,0.0,0.0,0.0,0.0,0.0,0.0,0.0,0.0,0.0,0.0,0.0,0.0,0.0,0.0,0.0,0.0,0.0,0.0,0.0,0.0,0.0,0.0,0.0,0.0,0.0,0.0,0.0,0.0,0.0,0.0,0.0,0.0,0.0,0.0,0.0,0.0,0.0,0.0,0.0,0.0,0.0,0.0,0.0,0.0,0.0,0.0,0.0,0.0,0.0,0.0,0.0,0.0,0.0,0.0,0.0,0.0,0.0,0.0,0.0,0.0,0.0,0.0,0.0,0.0,0.0,0.0,0.0,0.0,0.0,0.0,0.0,0.0,0.0,0.0,0.0,0.0,0.0,0.0,0.0,0.0,0.0,0.0,0.0,0.0,0.0,0.0,0.0,0.0,0.0,0.0,0.0,0.0,0.0,0.0,0.0,0.0,0.0,0.0,0.0,0.0,0.0,0.0,-5.9648,-6.0683,-6.4726,-6.6875,-6.6797,-6.3437,-6.0098,0.0,0.0,0.0,0.0,0.0,0.0,0.0,0.0,0.0,0.0,0.0,0.0,0.0,0.0,0.0,0.0,0.0,0.0,0.0,0.0,0.0,0.0,0.0,0.0,0.0,0.0,0.0,0.0,0.0,0.0,0.0,0.0,0.0,0.0,0.0,0.0,0.0,0.0,0.0,0.0,0.0,0.0,0.0,0.0,0.0,0.0,0.0,0.0,0.0,0.0,0.0,0.0,0.0,0.0,0.0,0.0,0.0,0.0,0.0,0.0,0.0,0.0,0.0,0.0,0.0,0.0,0.0,0.0,0.0,0.0,0.0,0.0,0.0,0.0,0.0,0.0,0.0,0.0,0.0,0.0,0.0,0.0,0.0,0.0,0.0,0.0,0.0,0.0,0.0,0.0,0.0,0.0,0.0,0.0,0.0,0.0,0.0,0.0,0.0,0.0,0.0,0.0,0.0,0.0,0.0,0.0,0.0,0.0,-6.0037,-6.2269,-6.5158,-6.674,-6.6875,-6.2871,-6.0058,0.0,0.0,0.0,0.0,0.0,0.0,0.0,0.0,0.0,0.0,0.0,0.0,0.0,0.0,0.0,0.0,0.0,0.0,0.0,0.0,0.0,0.0,0.0,0.0,0.0,0.0,0.0,0.0,0.0,0.0,0.0,0.0,0.0,0.0,0.0,0.0,0.0,0.0,0.0,0.0,0.0,0.0,0.0,0.0,0.0,0.0,0.0,0.0,-5.7441,0.0,0.0,0.0,0.0,0.0,0.0,0.0,0.0,0.0,0.0,0.0,0.0,0.0,0.0,0.0,0.0,0.0,0.0,0.0,0.0,0.0,0.0,0.0,0.0,0.0,0.0,0.0,0.0,0.0,0.0,0.0,0.0,0.0,0.0,0.0,0.0,0.0,0.0,0.0,0.0,0.0,0.0,0.0,0.0,0.0,0.0,0.0,0.0,0.0,0.0,0.0,0.0,0.0,0.0,0.0,0.0,0.0,0.0,0.0,-5.9462,-6.2043,-6.4687,-6.6092,-6.6081,-6.3201,-6.0859,0.0,0.0,0.0,0.0,0.0,0.0,0.0,0.0,0.0,0.0,0.0,0.0,0.0,0.0,0.0,0.0,0.0,0.0,0.0,0.0,0.0,0.0,0.0,0.0,0.0,0.0,0.0,0.0,0.0,0.0,0.0,0.0,0.0,0.0,0.0,0.0,0.0,0.0,0.0,0.0,0.0,0.0,0.0,0.0,0.0,0.0,0.0,0.0,0.0,0.0,0.0,0.0,0.0,0.0,0.0,0.0,0.0,0.0,0.0,0.0,0.0,0.0,0.0,0.0,0.0,0.0,0.0,0.0,0.0,0.0,0.0,0.0,0.0,0.0,0.0,0.0,0.0,0.0,0.0,0.0,0.0,0.0,0.0,0.0,0.0,0.0,0.0,0.0,0.0,0.0,0.0,0.0,0.0,0.0,0.0,0.0,0.0,0.0,0.0,0.0,0.0,0.0,0.0,0.0,0.0,0.0,0.0,-5.6729,-5.8686,-6.1415,-6.3857,-6.5145,-6.514,-6.3598,-6.1581,-5.9042,0.0,0.0,0.0,0.0,0.0,0.0,0.0,0.0,0.0,0.0,0.0,0.0,0.0,0.0,0.0,0.0,0.0,0.0,0.0,0.0,0.0,0.0,0.0,0.0,0.0,0.0,0.0,0.0,0.0,0.0,0.0,0.0,0.0,0.0,0.0,0.0,0.0,0.0,-5.6209,-5.7133,0.0,0.0,0.0,0.0,0.0,0.0,0.0,0.0,-5.6017,0.0,0.0,0.0,0.0,0.0,0.0,0.0,0.0,0.0,0.0,0.0,0.0,0.0,0.0,0.0,0.0,0.0,0.0,0.0,0.0,0.0,0.0,0.0,0.0,0.0,0.0,0.0,0.0,0.0,0.0,0.0,0.0,0.0,0.0,0.0,0.0,0.0,0.0,0.0,0.0,0.0,0.0,0.0,0.0,0.0,0.0,0.0,0.0,0.0,0.0,0.0,0.0,0.0,0.0,0.0,0.0,-5.6956,-5.7169,-5.8811,-6.2042,-6.3297,-6.3959,-6.4026,-6.2554,-6.0544,-5.8004,0.0,0.0,0.0,0.0,0.0,0.0,0.0,0.0,0.0,0.0,0.0,0.0,0.0,0.0,0.0,0.0,0.0,0.0,0.0,0.0,0.0,0.0,0.0,0.0,0.0,0.0,0.0,0.0,0.0,0.0,0.0,0.0,0.0,0.0,0.0,0.0,0.0,0.0,0.0,-5.936,-5.9082,0.0,0.0,0.0,0.0,0.0,0.0,0.0,0.0,-5.626,0.0,0.0,0.0,0.0,0.0,0.0,0.0,0.0,0.0,0.0,0.0,0.0,0.0,0.0,0.0,0.0,0.0,0.0,0.0,0.0,0.0,0.0,0.0,0.0,0.0,0.0,0.0,0.0,0.0,0.0,0.0,0.0,0.0,0.0,0.0,0.0,0.0,0.0,0.0,0.0,0.0,0.0,0.0,0.0,0.0,0.0,0.0,0.0,0.0,0.0,0.0,0.0,0.0,0.0,0.0,-5.6495,-5.7387,-5.8992,-6.1435,-6.2442,-6.2945,-6.2998,-6.1528,-5.9724,0.0,0.0,0.0,0.0,0.0,0.0,0.0,0.0,0.0,0.0,0.0,0.0,0.0,0.0,0.0,0.0,0.0,0.0,0.0,0.0,0.0,0.0,0.0,0.0,0.0,0.0,0.0,0.0,0.0,0.0,0.0,0.0,0.0,0.0,0.0,0.0,0.0,0.0,0.0,0.0,-6.0884,-6.086,-6.1656,0.0,0.0,0.0,0.0,0.0,0.0,-5.5351,-5.4864,0.0,0.0,0.0,0.0,0.0,0.0,0.0,0.0,0.0,0.0,0.0,0.0,0.0,0.0,0.0,0.0,0.0,0.0,0.0,0.0,0.0,0.0,0.0,0.0,0.0,0.0,0.0,0.0,0.0,0.0,0.0,0.0,0.0,0.0,0.0,0.0,0.0,0.0,0.0,0.0,0.0,0.0,0.0,0.0,0.0,0.0,0.0,0.0,0.0,0.0,0.0,0.0,0.0,0.0,0.0,-5.5863,-5.7311,-5.8934,-6.0716,-6.1591,-6.1988,-6.1978,-6.0505,-5.8948,0.0,0.0,0.0,0.0,0.0,0.0,0.0,0.0,0.0,0.0,0.0,0.0,0.0,0.0,0.0,0.0,0.0,0.0,0.0,0.0,0.0,0.0,0.0,0.0,0.0,0.0,0.0,0.0,0.0,0.0,0.0,0.0,0.0,0.0,0.0,0.0,0.0,0.0,0.0,0.0,0.0,-6.2568,-6.2075,-6.0655,0.0,0.0,0.0,0.0,-5.4626,-5.4904,0.0,0.0,0.0,0.0,0.0,0.0,0.0,0.0,0.0,0.0,0.0,0.0,0.0,0.0,0.0,0.0,0.0,0.0,0.0,0.0,0.0,0.0,0.0,0.0,0.0,0.0,0.0,0.0,0.0,0.0,0.0,0.0,0.0,0.0,0.0,0.0,0.0,0.0,0.0,0.0,0.0,0.0,0.0,0.0,0.0,0.0,0.0,0.0,0.0,0.0,0.0,0.0,0.0,0.0,0.0,0.0,-5.5825,-5.6733,-5.8338,-6.0646,-6.0912,-6.0973,-6.0946,-5.9475,-5.7911,0.0,0.0,0.0,0.0,0.0,0.0,0.0,0.0,0.0,0.0,0.0,0.0,0.0,0.0,0.0,0.0,0.0,0.0,0.0,0.0,0.0,0.0,0.0,0.0,0.0,0.0,0.0,0.0,0.0,0.0,0.0,0.0,0.0,0.0,0.0,0.0,0.0,0.0,0.0,0.0,0.0,-6.3503,-6.1289,-6.0153,-5.8911,0.0,0.0,-5.7168,-5.8711,-5.9626,0.0,0.0,0.0,0.0,0.0,0.0,0.0,0.0,0.0,0.0,0.0,0.0,0.0,0.0,0.0,0.0,0.0,0.0,0.0,0.0,0.0,0.0,0.0,0.0,0.0,0.0,0.0,0.0,0.0,0.0,0.0,0.0,0.0,0.0,0.0,0.0,0.0,0.0,0.0,0.0,0.0,0.0,0.0,0.0,0.0,0.0,0.0,0.0,0.0,0.0,0.0,0.0,0.0,0.0,0.0,-5.4226,-5.5789,-5.7527,-5.9204,-6.0723,-6.08,-6.08,-6.0781,-5.8284,-5.6402,0.0,0.0,0.0,0.0,0.0,0.0,0.0,0.0,0.0,0.0,0.0,0.0,0.0,0.0,0.0,0.0,0.0,0.0,0.0,0.0,0.0,0.0,0.0,0.0,0.0,0.0,0.0,0.0,0.0,0.0,0.0,0.0,0.0,0.0,0.0,0.0,0.0,0.0,0.0,0.0,0.0,0.0,-6.1685,-6.1216,0.0,0.0,0.0,-5.7833,-5.8131,0.0,0.0,0.0,0.0,0.0,0.0,0.0,0.0,0.0,0.0,0.0,0.0,0.0,0.0,0.0,0.0,0.0,0.0,0.0,0.0,0.0,0.0,0.0,0.0,0.0,0.0,0.0,0.0,0.0,0.0,0.0,0.0,0.0,0.0,0.0,0.0,0.0,0.0,0.0,0.0,0.0,0.0,0.0,0.0,0.0,0.0,0.0,0.0,0.0,0.0,0.0,0.0,0.0,0.0,0.0,0.0,0.0,-5.5415,-5.7896,-5.9723,-6.0742,-6.08,-6.0704,-6.0435,-5.778,0.0,0.0,0.0,0.0,0.0,0.0,0.0,0.0,0.0,0.0,0.0,0.0,0.0,0.0,0.0,0.0,0.0,0.0,0.0,0.0,0.0,0.0,0.0,0.0,0.0,0.0,0.0,-4.9374,0.0,0.0,0.0,0.0,0.0,0.0,0.0,0.0,0.0,0.0,0.0,0.0,0.0,0.0,-6.2166,-6.1531,-6.1831,-6.1947,0.0,0.0,-5.8531,-5.8319,-5.9377,-5.9031,0.0,0.0,0.0,0.0,0.0,0.0,0.0,0.0,0.0,0.0,0.0,0.0,0.0,0.0,0.0,0.0,0.0,0.0,0.0,0.0,0.0,0.0,0.0,0.0,0.0,0.0,0.0,0.0,0.0,0.0,0.0,0.0,0.0,0.0,0.0,0.0,0.0,0.0,0.0,0.0,0.0,0.0,0.0,0.0,0.0,0.0,0.0,0.0,0.0,0.0,0.0,0.0,0.0,0.0,-5.2914,-5.4587,-5.7088,-5.9184,-6.0723,-6.08,-6.0416,-5.9608,-5.8627,-5.6646,0.0,0.0,0.0,0.0,0.0,0.0,0.0,0.0,0.0,0.0,0.0,0.0,0.0,0.0,0.0,0.0,0.0,0.0,0.0,0.0,0.0,0.0,0.0,0.0,0.0,0.0,0.0,0.0,0.0,0.0,0.0,0.0,0.0,0.0,0.0,0.0,0.0,0.0,0.0,0.0,0.0,-6.2358,-5.9992,-6.1069,-6.2339,0.0,-6.1012,-5.9954,-6.1493,-6.3743,-6.3435,-5.7753,0.0,0.0,0.0,0.0,0.0,0.0,0.0,0.0,0.0,0.0,0.0,0.0,0.0,0.0,0.0,0.0,0.0,0.0,0.0,0.0,0.0,0.0,0.0,0.0,0.0,0.0,0.0,0.0,0.0,0.0,0.0,0.0,0.0,0.0,0.0,0.0,0.0,0.0,0.0,0.0,0.0,0.0,0.0,0.0,0.0,0.0,0.0,0.0,0.0,0.0,0.0,0.0,0.0,-5.276,-5.4491,-5.7011,-5.9127,-6.0704,-6.08,-6.0646,-6.03,-5.8473,-5.6169,0.0,0.0,0.0,0.0,0.0,0.0,0.0,0.0,0.0,0.0,0.0,0.0,0.0,0.0,0.0,0.0,0.0,0.0,0.0,0.0,0.0,0.0,0.0,0.0,0.0,0.0,0.0,0.0,-5.0113,-5.0273,-5.0293,0.0,0.0,0.0,0.0,0.0,0.0,0.0,0.0,0.0,0.0,-5.9942,-6.0516,-6.1366,0.0,0.0,-6.204,-6.1376,-6.1296,-6.1647,-6.0646,-5.6799,-5.5164,0.0,0.0,0.0,0.0,0.0,0.0,0.0,0.0,0.0,0.0,0.0,0.0,0.0,0.0,0.0,0.0,0.0,0.0,0.0,0.0,0.0,0.0,0.0,0.0,0.0,0.0,0.0,0.0,0.0,0.0,0.0,0.0,0.0,0.0,0.0,0.0,0.0,0.0,0.0,0.0,0.0,0.0,0.0,0.0,0.0,0.0,0.0,0.0,0.0,0.0,0.0,0.0,-5.2171,-5.3878,-5.6536,-5.8566,-5.9995,-6.0014,-5.9971,-5.9804,-5.7865,-5.5673,0.0,0.0,0.0,0.0,0.0,0.0,0.0,0.0,0.0,0.0,0.0,0.0,0.0,0.0,0.0,0.0,0.0,0.0,0.0,0.0,0.0,0.0,0.0,0.0,0.0,0.0,0.0,0.0,-5.0683,-5.0683,-5.0683,0.0,0.0,0.0,0.0,0.0,0.0,0.0,0.0,0.0,0.0,-5.8589,-6.014,-6.0871,-6.142,-6.1831,-6.132,-6.0818,-6.0457,-5.9807,-5.8479,-5.5915,0.0,0.0,0.0,0.0,0.0,0.0,0.0,0.0,0.0,0.0,0.0,0.0,0.0,0.0,0.0,0.0,0.0,0.0,0.0,0.0,0.0,0.0,0.0,0.0,0.0,0.0,0.0,-5.1923,0.0,0.0,-5.0779,0.0,0.0,0.0,0.0,0.0,0.0,0.0,0.0,0.0,0.0,0.0,0.0,0.0,0.0,0.0,0.0,0.0,0.0,0.0,0.0,0.0,0.0,-5.0894,-5.2545,-5.5424,-5.7364,-5.823,-5.8251,-5.8104,-5.7753,-5.6851,-5.5402,-5.3201,0.0,0.0,0.0,0.0,0.0,0.0,0.0,0.0,0.0,0.0,0.0,0.0,0.0,0.0,0.0,0.0,0.0,0.0,0.0,0.0,0.0,0.0,0.0,0.0,0.0,0.0,-5.077,-5.0683,-5.0673,0.0,0.0,0.0,0.0,0.0,0.0,0.0,0.0,0.0,-5.3187,-5.6713,-5.8995,-5.8404,-5.9283,-6.0095,-6.0251,-5.8553,-5.7708,-5.9277,-5.9141,-5.8047,0.0,0.0,0.0,0.0,0.0,0.0,0.0,0.0,0.0,0.0,0.0,0.0,0.0,0.0,0.0,0.0,0.0,0.0,0.0,0.0,0.0,0.0,0.0,0.0,0.0,0.0,0.0,-5.355,-5.3428,0.0,0.0,0.0,0.0,0.0,0.0,0.0,0.0,0.0,0.0,0.0,-5.3066,-5.2561,0.0,0.0,0.0,0.0,0.0,0.0,0.0,0.0,0.0,0.0,0.0,0.0,-5.0456,-5.1448,-5.4487,-5.6517,-5.7364,-5.7402,-5.76,-5.7977,-5.6648,-5.4401,-5.1185,0.0,0.0,0.0,0.0,0.0,0.0,0.0,0.0,0.0,0.0,0.0,0.0,0.0,0.0,0.0,0.0,0.0,0.0,0.0,0.0,0.0,0.0,0.0,0.0,0.0,-5.1568,0.0,0.0,0.0,0.0,0.0,0.0,0.0,0.0,0.0,0.0,0.0,-5.259,-5.388,-5.5425,-5.6743,-5.7604,-5.8253,-5.8796,0.0,0.0,0.0,0.0,0.0,0.0,0.0,0.0,0.0,0.0,0.0,0.0,0.0,0.0,-5.3906,-5.2545,-5.2488,-5.2488,-5.198,0.0,0.0,0.0,0.0,0.0,0.0,0.0,0.0,0.0,0.0,0.0,0.0,0.0,0.0,-5.436,-5.4253,-5.3751,0.0,0.0,0.0,0.0,0.0,0.0,0.0,0.0,-5.2971,-5.3587,-5.4297,-5.3812,-5.314,-5.23,-5.0956,-4.9652,0.0,0.0,0.0,0.0,0.0,0.0,0.0,0.0,-5.0065,-5.1042,-5.3801,-5.5527,-5.6069,-5.6088,-5.6422,-5.707,-5.5944,-5.3834,-5.0762,-4.8803,-4.7237,0.0,0.0,0.0,0.0,0.0,0.0,0.0,0.0,0.0,0.0,0.0,0.0,0.0,0.0,0.0,0.0,0.0,0.0,0.0,0.0,0.0,0.0,0.0,-5.096,0.0,0.0,0.0,0.0,0.0,0.0,0.0,0.0,0.0,-5.1281,-5.2037,-5.3046,-5.4293,-5.5376,-5.614,-5.6385,0.0,0.0,0.0,0.0,0.0,0.0,0.0,-5.4067,-5.3508,-5.3092,-5.3064,-5.383,-5.4668,-5.5268,-5.5545,0.0,0.0,-5.3907,-5.398,-5.4185,-5.3663,-5.4222,-5.462,-5.414,-5.443,-5.4583,0.0,0.0,0.0,0.0,-5.5569,0.0,0.0,0.0,-5.5678,-5.5226,0.0,-5.5208,0.0,0.0,0.0,0.0,-5.0877,-5.1957,0.0,0.0,-5.4656,-5.521,-5.4568,-5.4549,-5.4087,-5.328,-5.2456,-5.141,-5.0095,-4.8134,0.0,0.0,0.0,0.0,0.0,0.0,-4.9703,-5.1212,-5.3289,-5.4366,-5.4366,-5.4384,-5.4603,-5.5044,-5.4726,-5.3736,-5.197,-5.0346,-4.8696,-4.7048,-4.6556,0.0,0.0,0.0,0.0,0.0,0.0,0.0,0.0,0.0,0.0,0.0,0.0,0.0,0.0,0.0,0.0,0.0,0.0,0.0,0.0,-4.97,0.0,0.0,0.0,0.0,0.0,0.0,0.0,0.0,0.0,0.0,-5.1413,-5.2754,-5.3901,-5.4265,0.0,0.0,0.0,0.0,-5.6493,-5.4261,-5.3537,-5.3352,-5.3389,-5.3639,-5.3832,-5.387,0.0,0.0,-5.5761,-5.5651,-5.5486,-5.4693,-5.5868,-5.684,-5.6771,-5.5585,-5.4626,-5.4589,-5.4644,-5.4546,-5.4561,-5.5159,-5.5412,-5.9533,0.0,0.0,0.0,0.0,-5.6444,-5.8072,-6.1048,-5.868,-5.7756,-5.7722,-5.6531,0.0,0.0,0.0,0.0,0.0,0.0,-5.3442,-5.5115,-5.5444,-5.6069,-5.6969,-5.6969,-5.6253,-5.4913,-5.4087,-5.292,-5.1461,-5.0286,-4.8658,-4.6694,0.0,0.0,0.0,0.0,-4.9878,-5.0209,-5.2369,-5.3555,-5.3555,-5.3555,-5.36,-5.375,-5.4465,-5.4071,-5.239,-5.1587,-5.0406,-4.8771,-4.747,0.0,0.0,0.0,0.0,0.0,0.0,0.0,0.0,0.0,0.0,0.0,0.0,0.0,0.0,0.0,0.0,0.0,0.0,0.0,-4.963,-4.9589,-4.9381,0.0,0.0,0.0,0.0,0.0,0.0,0.0,0.0,0.0,-5.2567,-5.3064,-5.3187,0.0,0.0,-5.4124,-5.2858,-5.4181,-5.5204,-5.5094,-5.4979,0.0,-5.569,-5.4901,-5.4428,-5.4981,-5.6029,-5.6712,-5.6492,-5.6932,-5.7226,-5.6969,-5.7354,-5.7666,-5.7648,-5.7317,-5.695,-5.6969,-5.6969,-5.679,-5.631,-5.6393,-5.6262,-6.1971,-5.9069,-5.7932,-5.8398,-5.9758,-5.8715,-6.0314,-6.3548,-6.0921,-5.9743,-5.9593,-5.8404,-5.6337,-5.3675,-5.2809,0.0,0.0,0.0,-5.4415,-5.6427,-5.6183,-5.6748,-5.7923,-5.7666,-5.684,-5.5596,-5.4785,-5.3739,-5.2472,-5.1665,-5.034,-4.8518,0.0,0.0,-4.6047,-4.8584,-4.9972,-5.0161,-5.2142,-5.3185,-5.3185,-5.3185,-5.3185,-5.3225,-5.3904,-5.3805,-5.2804,-5.2232,-5.1479,-5.0473,-4.8715,-4.7384,0.0,0.0,0.0,0.0,0.0,0.0,0.0,0.0,0.0,0.0,0.0,-4.8331,-4.7292,0.0,0.0,0.0,-4.8267,-4.9089,-4.9678,-4.9345,0.0,0.0,0.0,0.0,0.0,0.0,0.0,-5.0065,-5.1497,-5.2784,-5.3573,-5.3959,-5.4087,-5.3922,-5.4326,-5.4344,-5.3537,0.0,-5.5409,-5.5574,-5.5614,-5.5757,-5.6235,-5.5776,-5.5611,-5.64,-5.6657,-5.6785,-5.6822,-5.7207,-5.7501,-5.7556,-5.7795,-5.7978,-5.7978,-5.7774,-5.7679,-5.7909,-5.7768,-5.7401,-5.6982,-5.6642,-5.6268,-6.4549,-6.3062,-6.1594,-6.1722,-6.275,-6.1318,-6.1979,-6.3925,-6.231,-6.1117,-6.0309,-6.0236,-5.8492,-5.5519,-5.4051,0.0,-5.4583,-5.4601,-5.539,-5.6804,-5.6804,-5.7152,-5.7758,-5.706,-5.629,-5.5482,-5.4748,-5.3995,-5.3167,-5.2454,-5.1646,-5.0784,-4.926,-4.8048,-4.7314,-4.8783,-4.9976,-5.0802,-5.2325,-5.313,-5.3185,-5.3185,-5.3185,-5.3185,-5.3185,-5.3225,-5.3167,-5.2491,-5.205,-5.1924,-5.0047,-4.8609,-4.7845,0.0,0.0,0.0,0.0,0.0,0.0,0.0,0.0,0.0,0.0,0.0,0.0,0.0,0.0,0.0,-4.8111,0.0,-4.9983,-4.9049,0.0,0.0,0.0,-4.7957,-4.961,-4.9794,-5.0381,-5.1922,0.0,0.0,-5.4399,-5.5188,-5.5978,-5.6804,-5.6804,-5.6418,-5.5611,-5.6161,-5.6506,-5.5723,-5.5691,-5.5668,-5.5606,-5.5981,-5.6603,-5.7313,-5.7207,-5.6693,-5.6657,-5.6675,-5.6693,-5.658,-5.7231,-5.7624,-5.7619,-5.6926,-5.6859,-5.7386,-5.7168,-5.6773,-5.6589,-5.6077,-5.5581,-6.6347,-6.6494,-6.6109,-6.5136,-6.3759,-6.3374,-6.3558,-6.3925,-6.2328,-6.0805,-5.9459,-5.8859,-5.7464,-5.5596,-5.5188,-5.5464,-5.6216,-5.6235,-5.6436,-5.6804,-5.6804,-5.6583,-5.6161,-5.5978,-5.5464,-5.4711,-5.4491,-5.3995,-5.3225,-5.3023,-5.2197,-5.0839,-5.0398,-4.9462,-4.8103,-4.9058,-4.9994,-5.0802,-5.1775,-5.2582,-5.3167,-5.3185,-5.3185,-5.3185,-5.3185,-5.3185,-5.3185,-5.3041,-5.2619,-5.1995,-5.0352,-4.936,-4.9121,-4.5974,0.0,0.0,0.0,0.0,0.0,0.0,0.0,0.0,0.0,-4.6359,-4.5,0.0,-4.6112,0.0,-4.7713,-4.8789,-4.9637,-4.9467,0.0,0.0,-4.9609,-4.9646,-5.1242,-5.1426,-5.1811,-5.2803,-5.3628,-5.4418,-5.5207,-5.6014,-5.6804,-5.7574,-5.6657,-5.5592,-5.484,-5.5904,-5.653,-5.5886,-5.6108,-5.6169,-5.5084,-5.4986,-5.5376,-5.6057,-5.5996,-5.5886,-5.5886,-5.5886,-5.5733,-5.5262,-5.5251,-5.5207,-5.4761,-5.4402,-5.4394,-5.4623,-5.5303,-5.5808,-5.5279,-5.4982,-5.4695,-6.5214,-6.5059,-6.5783,-6.4879,-6.3025,-6.3803,-6.3888,-6.3392,-6.1759,-6.0566,-5.9661,-5.851,-5.7501,-5.6657,-5.629,-5.6381,-5.6785,-5.6436,-5.6099,-5.5827,-5.5809,-5.5413,-5.4665,-5.4315,-5.3875,-5.3459,-5.3097,-5.2718,-5.2284,-5.194,-5.1307,-5.0417,-4.9752,-4.8978,-4.8127,-4.9078,-4.9831,-5.027,-5.1389,-5.238,-5.3148,-5.2876,-5.2674,-5.2674,-5.2325,-5.2121,-5.2142,-5.216,-5.1922,-5.1463,-5.029,-4.9427,-4.9004,-4.6375,-4.4804,0.0,0.0,0.0,0.0,0.0,0.0,0.0,0.0,0.0,0.0,0.0,-4.5995,-4.7161,-4.8218,-4.9224,-5.005,-5.0123,-5.0473,-5.1242,-5.0951,-5.1171,-5.2399,-5.2527,-5.2839,-5.3647,-5.4142,-5.4693,-5.55,-5.6026,-5.646,-5.6897,-5.5934,-5.5239,-5.5454,-5.5771,-5.5685,-5.5309,-5.5302,-5.5133,-5.4187,-5.4126,-5.422,-5.455,-5.4369,-5.4134,-5.4134,-5.4134,-5.4013,-5.3684,-5.3859,-5.3997,-5.3584,-5.3203,-5.3008,-5.3102,-5.3358,-5.3649,-5.3645,-5.3325,-5.2953,-6.2933,-6.1891,-6.3244,-6.2833,-6.144,-6.2982,-6.3191,-6.2377,-6.0915,-6.0199,-6.0015,-5.8621,-5.7941,-5.7795,-5.7047,-5.6617,-5.647,-5.5688,-5.4963,-5.4312,-5.4312,-5.3921,-5.3149,-5.2484,-5.2139,-5.2104,-5.1448,-5.1086,-5.1051,-5.035,-4.9968,-4.9809,-4.8427,-4.7647,-4.7589,-4.8641,-4.938,-4.9776,-5.1132,-5.2234,-5.3023,-5.227,-5.1848,-5.1811,-5.1169,-5.082,-5.082,-5.082,-5.082,-5.0784,-5.0031,-4.9317,-4.8636,-4.6985,-4.5736,0.0,-4.4158,0.0,0.0,0.0,0.0,0.0,0.0,0.0,0.0,-4.6746,-4.7076,-4.8361,-4.9334,-5.0198,-5.0894,-5.1041,-5.1389,-5.2068,-5.216,-5.2472,-5.3222,-5.3259,-5.3555,-5.4454,-5.4371,-5.4565,-5.533,-5.5456,-5.5415,-5.5346,-5.4741,-5.4659,-5.5803,-5.5187,-5.4463,-5.4368,-5.3594,-5.3042,-5.3082,-5.3058,-5.2998,-5.3034,-5.2697,-5.2139,-5.2218,-5.2236,-5.2139,-5.2086,-5.251,-5.2907,-5.2941,-5.2305,-5.1949,-5.185,-5.1408,-5.133,-5.2014,-5.1856,-5.1249,-6.2297,-6.2554,-6.2261,-6.1208,-5.982,-6.0712,-6.1006,-6.0786,-5.9826,-5.9079,-5.8437,-5.8143,-5.7648,-5.6978,-5.6297,-5.5644,-5.4997,-5.4266,-5.3484,-5.274,-5.274,-5.2324,-5.1555,-5.1413,-5.1298,-5.1342,-5.1157,-5.1086,-5.1068,-5.035,-4.9685,-4.9004,-4.8143,-4.7364,-4.6678,0.0,0.0,0.0,-5.0875,-5.1408,-5.2142,-5.1444,-5.1022,-5.1022,-5.0875,0.0,-5.082,-5.082,-5.082,-5.0784,-5.0051,0.0,0.0,0.0,0.0,0.0,0.0,0.0,0.0,0.0,0.0,0.0,-4.6948,-4.6691,-4.7113,-4.8802,-4.9719,-4.9427,-5.0694,-5.1591,-5.1756,-5.238,-5.2821,-5.2949,-5.2968,-5.3316,-5.4051,-5.357,-5.3739,-5.517,-5.4273,-5.3826,-5.4538,-5.4269,-5.3931,-5.3905,-5.3257,-5.2945,-5.3247,-5.3538,-5.3442,-5.2869,-5.1691,-5.1051,-5.1564,-5.1146,-5.1022,-5.1317,-5.1466,-5.1325,-5.1299,-5.1299,-5.107,-5.0624,-5.0561,-5.0529,-5.0043,-4.9712,-4.9801,-4.9668,-4.9565,-4.9811,-5.1104,-5.1312,-5.1234,-5.9303,-5.9296,-5.9318,-5.8632,0.0,-5.8337,-5.8669,-5.8657,-5.8626,-5.8158,-5.7449,-5.7449,-5.6805,-5.5674,-5.4948,-5.4202,-5.3407,-5.266,-5.1899,-5.1177,-5.116,-5.0764,-5.005,-5.0061,-5.0033,-5.005,-5.0079,-5.0079,-5.0027,-4.8934,-4.8216,-4.779,-4.6725,-4.5962,-4.5537,-4.5808,-4.7198,-4.9677,-4.9716,-5.0443,-5.1885,-5.1206,-5.082,-5.0802,-5.0417,0.0,0.0,0.0,0.0,0.0,0.0,0.0,0.0,0.0,0.0,-4.7663,-4.6911,-4.647,-4.6507,-4.6874,-4.7645,-4.8838,-4.9315,-4.9169,-4.8361,-4.9494,-5.0441,-5.0763,-5.1213,-5.1773,-5.2522,-5.2968,-5.3185,-5.3185,-5.3185,-5.3265,-5.3221,-5.2917,-5.284,-5.3177,-5.27,-5.2387,-5.2799,-5.2617,-5.2539,-5.273,-5.1923,-5.1395,-5.1724,-5.1777,-5.1543,-5.0841,-5.0138,-4.9698,-5.0013,-4.9829,-4.9593,-4.9982,-5.0079,-5.0079,-5.0079,-5.0079,-4.9907,-4.9563,-4.9521,-4.9359,-4.9107,-4.9018,-4.9018,-4.9018,-4.9018,-4.9187,-4.9982,-5.0118,-5.0118,-5.6165,-5.5731,-5.6285,-5.6117,-5.5581,-5.634,-5.6765,-5.6938,-5.7679,0.0,0.0,-5.6894,-5.5972,-5.438,-5.3578,-5.2747,-5.1882,-5.1096,-5.0407,-4.9821,-4.9821,-4.9534,-4.9001,-4.9018,-4.9018,-4.9018,-4.9018,-4.9018,-4.8951,-4.753,-4.6786,-4.665,-4.5343,-4.4598,-4.4626,-4.5089,-4.6265,-4.7949,-4.8142,-4.9169,-5.1134,-5.0568,-5.0227,-5.0202,-4.9671,-4.9012,-4.817,-4.8152,-4.8134,-4.8152,-4.8152,-4.8191,-4.8287,-4.8324,-4.8324,-4.8324,-4.8453,-4.8526,-4.8563,-4.9347,-4.9832,-4.9839,-5.1079,-5.125,-4.9852,-4.9978,-5.0606,-5.1751,-5.1294,-5.1455,-5.2692,-5.2809,-5.285,-5.285,-5.285,-5.2554,-5.2018,-5.1928,-5.1752,-5.1189,-5.1061,-5.092,-5.0964,-5.0861,-5.0974,-5.1339,-5.0621,-5.0099,-5.0566,-5.0342,-4.9851,-4.9331,-4.9168,-4.9052,-4.9018,-4.9049,-4.9018,-4.9107,-4.9094,-4.9018,-4.9018,-4.9018,-4.9018,-4.9094,-4.9001,-4.9032,-4.9001,-4.9018,-4.9018,-4.9018,-4.9018,-4.9018,-4.9018,-4.9018,-4.9086,-5.523,-5.5655,-5.5127,-5.4861,-5.4818,-5.5552,-5.6259,-5.6938,-5.766,-5.7589,-5.6894,-5.6894,-5.5659,-5.3537,-5.2862,-5.1743,-5.0337,-4.9615,-4.9243,-4.9138,-4.9121,-4.9077,-4.9001,-4.9018,-4.9018,-4.9018,-4.9018,-4.9018,-4.8832,-4.7513,-4.6786,-4.6616,-4.5343,-4.4598,-4.4598,-4.4682,-4.513,-4.5914,-4.6464,-4.724,-4.8265,-4.8129,-4.801,-4.7907,-4.841,-4.8302,-4.7567,-4.7512,-4.753,-4.7512,-4.7512,-4.7756,-4.8267,-4.8287,-4.8324,-4.8361,-4.9004,-4.9427,-4.9426,-5.0216,-5.077,-5.0891,-5.1101,-5.1082,-5.0773,-5.1365,-5.1634,-5.1326,-5.1122,-5.1124,-5.1368,-5.1419,-5.1487,-5.1462,-5.1411,-5.1343,-5.1241,-5.1258,-5.1181,-5.1008,-5.0527,-5.0157,-5.0135,-4.973,-4.9494,-4.9474,-4.9559,-4.928,-4.9389,-4.9246,-4.912,-4.9035,-4.9018,-4.9018,-4.9018,-4.9018,-4.9018,-4.9018,-4.9018,-4.9018,-4.9018,-4.9018,-4.9018,-4.9018,-4.9018,-4.9018,-4.9018,-4.9018,-4.9018,-4.9018,-4.9018,-4.9018,-4.9018,-4.9018,-4.9018,-5.4194,-5.4448,-5.4138,-5.3994,-5.4059,-5.4805,-5.5798,-5.6887,-5.7259,-5.7227,-5.6869,-5.6421,-5.4985,-5.2862,-5.2084,-5.0929,-4.9432,-4.9138,-4.9018,-4.9018,-4.9018,-4.9018,-4.9018,-4.9018,-4.9018,-4.9018,-4.9018,-4.9018,-4.89,-4.7919,-4.7192,-4.6718,-4.5343,-4.4598,-4.4598,-4.4598,-4.4765,-4.5025,-4.5597,-4.6499,-4.7665,-4.7676,-4.7642,-4.7548,-4.79,-4.7686,-4.69,-4.6864,-4.6847,-4.6864,-4.7194,-4.753,-4.7797,-4.8132,-4.8526,-4.8985,-4.937,-4.9996,-5.0839,-5.1296,-5.1413,-5.1128,-5.1086,-5.0875,-5.0426,-5.0752,-5.099,-5.1078,-5.077,-5.068,-5.1034,-5.1086,-5.1086,-5.1086,-5.1086,-5.0929,-5.0581,-5.0517,-5.0352,-5.0022,-4.9664,-4.9462,-4.9462,-4.9182,-4.9182,-4.9432,-4.9534,-4.9402,-4.9046,-4.9018,-4.9018,-4.9018,-4.9018,-4.9018,-4.9018,-4.9018,-4.9018,-4.9018,-4.9018,-4.9018,-4.9018,-4.9001,-4.9001,-4.9018,-4.9001,-4.9018,-4.9018,-4.9018,-4.9018,-4.9018,-4.9018,-4.9018,-4.9018,-4.9018,-4.9018,-5.3518,-5.3518,-5.3518,-5.3518,-5.3568,-5.4296,-5.5367,-5.6598,-5.6817,-5.6989,-5.7015,-5.6132,-5.4459,-5.2436,-5.1549,-5.0405,-4.9137,-4.9018,-4.9018,-4.9018,-4.9018,-4.9018,-4.9018,-4.9018,-4.9018,-4.9018,-4.9018,-4.9018,-4.8917,-4.8244,-4.7415,-4.6532,-4.5427,-4.4739,-4.4598,-4.4598,-4.4598,-4.4626,-4.5062,-4.5858,-4.6951,-4.7169,-4.7219,-4.7216,-4.7375,-4.7051,-4.6262,-4.6192,-4.6192,-4.6216,-4.6705,-4.7021,-4.7212,-4.7938,-4.868,-4.9322,-4.9881,-5.0609,-5.165,-5.1699,-5.1343,-5.0707,-5.0608,-5.038,-4.9879,-4.978,-4.9976,-5.0462,-5.0072,-5.0004,-5.0435,-5.0554,-5.0626,-5.0608,-5.0626,-5.0352,-4.9879,-4.978,-4.9593,-4.9107,-4.9018,-4.9032,-4.9018,-4.9018,-4.9182,-4.9593,-4.978,-4.9534,-4.9107,-4.9018,-4.9018,-4.9018,-4.9018,-4.9018,-4.9018,-4.9018,-4.9018,-4.9018,-4.9018,-4.89,-4.8815,-4.8748,-4.8765,-4.8714,-4.8714,-4.8815,-4.8934,-4.9018,-4.9018,-4.9018,-4.9018,-4.9018,-4.9018,-4.9018,-4.9018,-5.3518,-5.3518,-5.3518,-5.3518,-5.3584,-5.4264,-5.5072,-5.5865,-5.6589,-5.7302,-5.7666,-5.6376,-5.4488,-5.2471,-5.158,-5.0437,-4.9052,-4.9018,-4.9032,-4.9018,-4.9018,-4.9018,-4.9018,-4.9018,-4.9018,-4.9018,-4.9018,-4.9018,-4.8968,-4.8274,-4.7179,-4.5957,-4.5652,-4.5246,-4.4699,-4.4615,-4.4615,-4.4598,-4.4654,-4.4726,-4.4912,-4.5541,-4.5829,-4.571,-4.6352,-4.6352,-4.5606,-4.5588,-4.5571,-4.5571,-4.5656,-4.594,-4.6548,-4.7792,-4.8591,-4.8793,-5.0626,-5.1661,-5.118,-5.0608,-5.0028,-4.9303,-4.9273,-4.9243,-4.9121,-4.9107,-4.9107,-4.9243,-4.9199,-4.9212,-4.9182,-4.9273,-4.9346,-4.9406,-4.9346,-4.9168,-4.9168,-4.9077,-4.9046,-4.9032,-4.9018,-4.9018,-4.9018,-4.9018,-4.9032,-4.9182,-4.9212,-4.9182,-4.9063,-4.9018,-4.9018,-4.9018,-4.9018,-4.9018,-4.9018,-4.9018,-4.9018,-4.9018,-4.8984,-4.8731,-4.8342,-4.8041,-4.799,-4.802,-4.799,-4.8206,-4.8731,-4.9001,-4.8968,-4.9001,-4.9018,-4.9018,-4.9018,-4.9018,-4.9018,-5.3518,-5.3518,-5.3518,-5.3518,-5.3568,-5.3832,-5.462,-5.5706,-5.6031,-5.6876,-5.7797,-5.6876,-5.515,-5.3025,-5.2218,-5.0823,-4.9066,-4.9419,-4.9359,-4.9032,-4.9018,-4.9018,-4.9018,-4.9018,-4.9018,-4.9018,-4.9018,-4.9018,-4.8883,-4.8244,-4.7597,-4.7022,-4.6583,-4.5991,-4.5297,-4.5246,-4.5043,-4.4615,-4.4598,-4.4598,-4.4632,-4.4874,-4.5015,-4.5002,-4.5261,-4.5313,-4.5022,-4.4988,-4.4988,-4.4998,-4.5311,-4.5788,-4.6487,-4.7464,-4.8419,-4.9335,-5.0665,-5.1173,-5.0482,-5.0174,-4.9739,-4.9063,-4.9018,-4.9018,-4.9018,-4.9018,-4.9018,-4.9018,-4.9018,-4.9018,-4.9018,-4.9018,-4.9018,-4.9018,-4.9018,-4.9018,-4.9018,-4.9018,-4.9018,-4.9018,-4.9018,-4.9018,-4.9018,-4.9018,-4.9018,-4.9018,-4.9018,-4.9018,-4.9018,-4.9018,-4.9018,-4.9018,-4.9018,-4.9018,-4.8984,-4.9018,-4.8984,-4.8934,-4.8629,-4.8159,-4.7922,-4.7462,-4.7242,-4.7259,-4.7259,-4.7547,-4.8176,-4.8376,-4.8443,-4.8748,-4.9018,-4.9018,-4.9018,-4.9018,-4.9018,-5.3518,-5.3518,-5.3518,-5.3518,-5.3518,-5.3518,-5.4345,-5.5592,-5.5706,-5.6562,-5.7839,-5.6997,-5.5437,-5.3574,-5.2683,-5.1197,-4.9496,-4.9593,-4.9462,-4.9032,-4.9018,-4.9018,-4.9018,-4.9018,-4.9018,-4.9018,-4.9018,-4.9018,-4.8951,-4.8511,-4.8091,-4.7868,-4.7378,-4.6735,-4.6075,-4.6007,-4.5635,-4.4976,-4.4891,-4.4919,-4.4919,-4.4891,-4.479,-4.4632,-4.4598,-4.4598,-4.4598,-4.4598,-4.4598,-4.4598,-4.5213,-4.5782,-4.6325,-4.7369,-4.863,-5.0018,-5.0559,-5.0599,-5.0016,-4.9821,-4.9504,-4.9094,-4.9018,-4.9018,-4.9018,-4.9018,-4.9018,-4.9018,-4.9018,-4.9018,-4.9018,-4.9018,-4.9018,-4.9018,-4.9018,-4.9018,-4.9018,-4.9018,-4.9018,-4.9018,-4.9018,-4.9018,-4.9018,-4.9018,-4.9018,-4.9018,-4.9018,-4.9018,-4.9018,-4.9018,-4.9018,-4.8984,-4.8866,-4.868,-4.8714,-4.8646,-4.868,-4.8342,-4.7868,-4.7547,-4.7365,-4.6769,-4.6498,-4.6498,-4.6498,-4.6802,-4.7479,-4.7699,-4.8156,-4.8731,-4.9018,-4.9018,-4.9018,-4.9018,-4.9018,-5.3518,-5.3518,-5.3518,-5.3518,-5.3518,-5.3518,-5.4296,-5.5621,-5.5678,-5.658,-5.766,-5.6509,-5.4967,-5.3504,-5.2781,-5.1535,-4.9971,-4.9359,-4.9124,-4.9001,-4.9018,-4.9018,-4.9018,-4.9018,-4.9018,-4.9018,-4.9018,-4.9018,-4.8984,-4.8951,-4.8612,-4.7939,-4.7872,-4.7496,-4.6853,-4.6752,-4.638,-4.5737,-4.5652,-4.5652,-4.5669,-4.5669,-4.5331,-4.4801,-4.4649,-4.4699,-4.4649,-4.4615,-4.4632,-4.4615,-4.5349,-4.5772,-4.5982,-4.7726,-4.9437,-5.07,-5.0372,-5.0033,-4.989,-4.9419,-4.9046,-4.9001,-4.9018,-4.9018,-4.9018,-4.9018,-4.9018,-4.9018,-4.9018,-4.9018,-4.9018,-4.9018,-4.9018,-4.9018,-4.9018,-4.9018,-4.9018,-4.9018,-4.9018,-4.9018,-4.9018,-4.9018,-4.9018,-4.9018,-4.9018,-4.9018,-4.9018,-4.9018,-4.9018,-4.9018,-4.9018,-4.8883,-4.8511,-4.7939,-4.7922,-4.7953,-4.7648,-4.7361,-4.7141,-4.6701,-4.616,-4.5754,-4.5754,-4.5754,-4.5754,-4.6058,-4.6735,-4.7428,-4.8139,-4.8663,-4.8951,-4.9018,-4.9018,-4.9018,-4.9018,-5.3518,-5.3518,-5.3518,-5.3518,-5.3518,-5.3518,-5.4074,-5.5029,-5.5495,-5.6277,-5.7166,-5.7173,-5.6068,-5.4143,-5.3422,-5.1731,-4.9518,-4.9534,-4.9419,-4.9063,-4.9018,-4.9018,-4.9018,-4.9018,-4.9018,-4.9018,-4.9018,-4.9018,-4.9018,-4.9018,-4.8883,-4.8663,-4.8612,-4.8257,-4.7618,-4.7513,-4.7158,-4.6481,-4.6397,-4.6397,-4.6397,-4.6397,-4.6244,-4.6024,-4.602,-4.5771,-4.5314,-4.5737,-4.5788,-4.5314,-4.5991,-4.6616,-4.7141,-4.829,-4.9171,-4.9629,-4.9492,-4.9359,-4.9329,-4.9152,-4.9018,-4.9018,-4.9018,-4.9018,-4.9018,-4.9018,-4.9018,-4.9018,-4.9018,-4.9018,-4.9018,-4.9018,-4.9018,-4.9018,-4.9018,-4.9018,-4.9018,-4.9018,-4.9018,-4.9018,-4.9018,-4.9018,-4.9018,-4.9018,-4.9018,-4.9018,-4.9018,-4.9018,-4.9018,-4.9018,-4.9001,-4.8883,-4.8392,-4.772,-4.7208,-4.7192,-4.7039,-4.6786,-4.6515,-4.6177,-4.5703,-4.5229,-4.5128,-4.5145,-4.5094,-4.5483,-4.6227,-4.7073,-4.7851,-4.8629,-4.89,-4.8849,-4.9018,-4.8951,-4.8968,-5.3865,-5.3865,-5.3848,-5.3865,-5.3832,-5.3584,-5.3896,-5.462,-5.5114,-5.578,-5.6456,-5.6554,-5.5536,-5.3921,-5.2873,-5.1251,-4.9192,-4.9462,-4.9449,-4.9032,-4.9018,-4.9018,-4.9018,-4.9018,-4.9018,-4.9018,-4.9018,-4.9018,-4.9018,-4.9018,-4.9018,-4.9001,-4.9018,-4.8765,-4.8342,-4.8274,-4.7902,-4.7293,-4.7158,-4.7141,-4.7158,-4.7158,-4.7276,-4.7462,-4.7513,-4.7039,-4.6143,-4.6549,-4.6583,-4.6227,-4.6752,-4.7496,-4.821,-4.8748,-4.9018,-4.9018,-4.9001,-4.9018,-4.9018,-4.9018,-4.9018,-4.9018,-4.9018,-4.9018,-4.9018,-4.9018,-4.9018,-4.9018,-4.9018,-4.9018,-4.9018,-4.9018,-4.9018,-4.9018,-4.9018,-4.9018,-4.9018,-4.9018,-4.9018,-4.9018,-4.9018,-4.9018,-4.9018,-4.9018,-4.9018,-4.9018,-4.9018,-4.9018,-4.9018,-4.9001,-4.8866,-4.8629,-4.7986,-4.7242,-4.6566,-4.621,-4.6024,-4.5771,-4.5805,-4.5517,-4.5348,-4.4869,-4.4632,-4.4615,-4.4801,-4.5162,-4.5805,-4.6667,-4.7513,-4.8392,-4.8562,-4.8443,-4.8646,-4.8866,-4.89,-5.4589,-5.4589,-5.4606,-5.462,-5.4513,-5.3881,-5.3979,-5.4558,-5.4695,-5.5168,-5.555,-5.446,-5.3827,-5.241,-5.1385,-4.9896,-4.924,-4.9121,-4.9094,-4.9018,-4.9018,-4.9018,-4.9018,-4.9018,-4.9018,-4.9018,-4.9018,-4.9018,-4.9018,-4.9018,-4.9018,-4.9018,-4.9018,-4.8968,-4.8968,-4.8883,-4.8595,-4.8071,-4.7889,-4.7889,-4.7906,-4.7889,-4.8206,-4.8781,-4.8832,-4.8206,-4.6921,-4.6904,-4.6938,-4.6904,-4.753,-4.8257,-4.8798,-4.8984,-4.9018,-4.9018,-4.9018,-4.9018,-4.9018,-4.9018,-4.9018,-4.9018,-4.9018,-4.9018,-4.9018,-4.9018,-4.9018,-4.9018,-4.9018,-4.9018,-4.9018,-4.9018,-4.9018,-4.9018,-4.9018,-4.9018,-4.9018,-4.9018,-4.9018,-4.9018,-4.9018,-4.9018,-4.9018,-4.9018,-4.9018,-4.9018,-4.9018,-4.9018,-4.9018,-4.9018,-4.8697,-4.8071,-4.7462,-4.6819,-4.5957,-4.5162,-4.4874,-4.4699,-4.4835,-4.479,-4.4857,-4.4615,-4.4615,-4.4598,-4.4598,-4.4959,-4.572,-4.6498,-4.6786,-4.7462,-4.7648,-4.8007,-4.8274,-4.8494,-4.8815,-5.4891,-5.535,-5.535,-5.535,-5.5262,-5.4558,-5.4388,-5.4651,-5.5114,-5.5177,-5.5001,-5.552,-5.4752,-5.3103,-5.2001,-5.0904,-4.9698,-4.9226,-4.9018,-4.9066,-4.9049,-4.9018,-4.9018,-4.9018,-4.9018,-4.9018,-4.9018,-4.9018,-4.9018,-4.9018,-4.9018,-4.9018,-4.9018,-4.9018,-4.9018,-4.9001,-4.8849,-4.8714,-4.8632,-4.8663,-4.8663,-4.868,-4.8798,-4.8968,-4.9001,-4.8731,-4.8359,-4.8308,-4.8071,-4.7597,-4.8257,-4.8765,-4.8968,-4.9018,-4.9018,-4.9018,-4.9018,-4.9018,-4.9018,-4.9018,-4.9018,-4.9018,-4.9018,-4.9018,-4.9018,-4.9018,-4.9018,-4.9018,-4.9018,-4.9018,-4.9018,-4.9018,-4.9018,-4.9018,-4.9018,-4.9018,-4.9018,-4.9018,-4.9018,-4.9018,-4.9018,-4.9018,-4.9018,-4.9018,-4.9018,-4.9018,-4.9018,-4.9018,-4.9018,-4.9018,-4.8731,-4.8007,-4.7276,-4.6464,-4.5635,-4.5026,-4.475,-4.4598,-4.4598,-4.4598,-4.4598,-4.4598,-4.4598,-4.4716,-4.4699,-4.5077,-4.5805,-4.6227,-4.6566,-4.6819,-4.7225,-4.7564,-4.7868,-4.824,-4.8663,-5.5291,-5.5706,-5.6004,-5.6114,-5.6031,-5.532,-5.5012,-5.5072,-5.5477,-5.5412,-5.521,-5.5623,-5.5218,-5.3849,-5.306,-5.2225,-5.1308,-5.0824,-5.0683,-5.0398,-4.9321,-4.9049,-4.9018,-4.9018,-4.9018,-4.9018,-4.9018,-4.9018,-4.9018,-4.9018,-4.9018,-4.9018,-4.9018,-4.9018,-4.9018,-4.9018,-4.9018,-4.9018,-4.9001,-4.9001,-4.9001,-4.9018,-4.9018,-4.9018,-4.9018,-4.9018,-4.9018,-4.9001,-4.8781,-4.8446,-4.8781,-4.9001,-4.9018,-4.9018,-4.9018,-4.9018,-4.9018,-4.9018,-4.9018,-4.9018,-4.9018,-4.9018,-4.9018,-4.9018,-4.9018,-4.9018,-4.9018,-4.9018,-4.9018,-4.9018,-4.9018,-4.9018,-4.9018,-4.9018,-4.9018,-4.9018,-4.9018,-4.9018,-4.9018,-4.9018,-4.9018,-4.9018,-4.9018,-4.9018,-4.9018,-4.9018,-4.9018,-4.9018,-4.9018,-4.9018,-4.8494,-4.7885,-4.7141,-4.6278,-4.5399,-4.4942,-4.4649,-4.4598,-4.4598,-4.4598,-4.4598,-4.4615,-4.4632,-4.5043,-4.5162,-4.5855,-4.6566,-4.6413,-4.6566,-4.6752,-4.7056,-4.7513,-4.7956,-4.8311,-4.8731,-5.5706,-5.5865,-5.6624,-5.6964,-5.6843,-5.6104,-5.578,-5.5762,-5.5808,-5.5776,-5.5573,-5.5285,-5.4884,-5.4509,-5.3851,-5.3442,-5.346,-5.3156,-5.2911,-5.2278,-5.0728,-4.9409,-4.9066,-4.9018,-4.9018,-4.9018,-4.9018,-4.9018,-4.9018,-4.9018,-4.9018,-4.9018,-4.9018,-4.9018,-4.9018,-4.9018,-4.9018,-4.9018,-4.9018,-4.9018,-4.9018,-4.9018,-4.9018,-4.9018,-4.9018,-4.9018,-4.9018,-4.9001,-4.9001,-4.9001,-4.8968,-4.9018,-4.9018,-4.9018,-4.9018,-4.9018,-4.9018,-4.9018,-4.9018,-4.9138,-4.9168,-4.9152,-4.9152,-4.9046,-4.9152,-4.9182,-4.9182,-4.9199,-4.9256,-4.9212,-4.9182,-4.9138,-4.9107,-4.9001,-4.9018,-4.9018,-4.9018,-4.9018,-4.9018,-4.9018,-4.9018,-4.9018,-4.9018,-4.9018,-4.9018,-4.9018,-4.9018,-4.9018,-4.9018,-4.8849,-4.8274,-4.7716,-4.7192,-4.6616,-4.5906,-4.5669,-4.5427,-4.5427,-4.5309,-4.5139,-4.5038,-4.5021,-4.5128,-4.5534,-4.5855,-4.6583,-4.6887,-4.6684,-4.6752,-4.7073,-4.7428,-4.7753,-4.8024,-4.8311,-4.8632,-5.6049,-5.665,-5.7382,-5.7726,-5.7613,-5.6894,-5.6589,-5.6589,-5.6571,-5.6266,-5.5885,-5.6103,-5.5861,-5.5303,-5.4668,-5.4313,-5.4284,-5.3842,-5.3175,-5.266,-5.202,-5.0484,-4.9294,-4.9018,-4.9035,-4.9052,-4.9086,-4.9018,-4.9018,-4.9018,-4.9018,-4.9018,-4.9018,-4.9018,-4.9018,-4.9018,-4.9018,-4.9018,-4.9018,-4.9018,-4.9018,-4.9018,-4.9018,-4.9018,-4.9018,-4.9018,-4.9018,-4.9018,-4.9018,-4.9018,-4.9018,-4.9018,-4.9018,-4.9018,-4.9018,-4.9018,-4.9018,-4.9018,-4.9094,-4.9432,-4.9676,-4.9751,-4.9722,-4.9751,-4.9751,-4.9751,-4.9751,-4.9821,-5.0157,-5.0241,-4.985,-4.9722,-4.9551,-4.9107,-4.9063,-4.9063,-4.9001,-4.9018,-4.9018,-4.9018,-4.9018,-4.9018,-4.9018,-4.9018,-4.9018,-4.9018,-4.9018,-4.9018,-4.9018,-4.8968,-4.8545,-4.8105,-4.7597,-4.7107,-4.665,-4.643,-4.6312,-4.6363,-4.6244,-4.6041,-4.594,-4.5889,-4.6143,-4.6481,-4.6498,-4.7039,-4.6972,-4.6802,-4.709,-4.7564,-4.7462,-4.7665,-4.7838,-4.8139,-4.848,-5.5713,-5.6465,-5.7234,-5.7726,-5.795,-5.7522,-5.7376,-5.7376,-5.7358,-5.7121,-5.6836,-5.7078,-5.7042,-5.6598,-5.6202,-5.6018,-5.5946,-5.5258,-5.4759,-5.4222,-5.3329,-5.1791,-5.034,-4.9932,-4.9779,-4.9458,-4.9458,-4.9289,-4.9069,-4.9018,-4.9018,-4.9018,-4.9018,-4.9018,-4.9018,-4.9018,-4.9018,-4.9018,-4.9018,-4.9018,-4.9018,-4.9018,-4.9018,-4.9018,-4.9018,-4.9018,-4.9032,-4.9273,-4.9316,-4.9094,-4.9018,-4.9018,-4.9018,-4.9018,-4.9018,-4.9018,-4.9018,-4.9018,-4.9138,-4.9622,-4.9959,-5.0072,-5.0223,-5.0269,-5.0157,-5.0241,-5.0362,-4.9664,-5.0286,-5.0352,-5.0185,-5.0269,-4.9965,-4.9243,-4.9243,-4.9303,-4.9063,-4.9001,-4.9018,-4.9018,-4.9018,-4.9018,-4.9018,-4.9018,-4.9018,-4.9018,-4.9018,-4.9018,-4.9001,-4.8968,-4.8815,-4.8325,-4.7922,-4.7496,-4.7073,-4.6819,-4.6819,-4.6938,-4.7175,-4.6972,-4.6769,-4.6718,-4.6921,-4.7124,-4.7208,-4.731,-4.7411,-4.7564,-4.7936,-4.8122,-4.775,-4.7767,-4.8139,-4.8223,-4.8562,-5.5042,-5.5762,-5.6571,-5.7327,-5.7932,-5.7978,-5.7909,-5.7973,-5.7932,-5.7914,-5.7859,-5.796,-5.7813,-5.7978,-5.7597,-5.7863,-5.7817,-5.6862,-5.6507,-5.5611,-5.4337,-5.2603,-5.1569,-5.1016,-5.071,-5.027,-5.0202,-4.9898,-4.961,-4.939,-4.9306,-4.939,-4.9323,-4.9154,-4.9187,-4.9103,-4.9018,-4.9018,-4.9018,-4.9018,-4.9018,-4.9018,-4.9018,-4.9018,-4.9018,-4.9107,-4.9256,-4.9521,-4.9644,-4.9274,-4.9114,-4.9018,-4.9018,-4.9018,-4.9018,-4.9018,-4.9018,-4.9018,-4.9107,-4.9622,-5.0072,-5.0258,-5.0858,-5.0973,-5.0717,-5.1184,-5.128,-5.0209,-5.0195,-5.0955,-5.0721,-5.0959,-5.0523,-4.9797,-4.9898,-4.9778,-4.9301,-4.9052,-4.9018,-4.9018,-4.9018,-4.9018,-4.9018,-4.9018,-4.9018,-4.9018,-4.9018,-4.9018,-4.9018,-4.9001,-4.8781,-4.8392,-4.8088,-4.7868,-4.7496,-4.7175,-4.7276,-4.7411,-4.7851,-4.7851,-4.753,-4.7479,-4.7597,-4.7733,-4.7919,-4.8206,-4.8494,-4.8714,-4.8798,-4.8748,-4.8409,-4.8629,-4.8934,-4.8748,-4.8883,-5.5042,-5.578,-5.6545,-5.7327,-5.7932,-5.7978,-5.7978,-5.7978,-5.7978,-5.7978,-5.7978,-5.7978,-5.7978,-5.7978,-5.7978,-5.7978,-5.7821,-5.7091,-5.6331,-5.4964,-5.4083,-5.3428,-5.2706,-5.1911,-5.1183,-5.098,-5.098,-5.0862,-5.0693,-5.0557,-5.0678,-5.0608,-5.0084,-4.9864,-4.9796,-4.9407,-4.9018,-4.9018,-4.9052,-4.9137,-4.9137,-4.9103,-4.9086,-4.9069,-4.9117,-4.9367,-4.9563,-4.9419,-4.9727,-5.0198,-4.9725,-4.9187,-4.9187,-4.9137,-4.9171,-4.9171,-4.912,-4.9086,-4.9172,-4.9789,-5.0304,-5.09,-5.1635,-5.1971,-5.1899,-5.2967,-5.3191,-5.2882,-5.358,-5.3444,-5.2552,-5.1664,-5.1161,-5.0805,-5.0776,-5.0638,-4.9978,-4.9373,-4.912,-4.9018,-4.9018,-4.9018,-4.9018,-4.9018,-4.9018,-4.9018,-4.9018,-4.9018,-4.9018,-4.9018,-4.8815,-4.8545,-4.8494,-4.8342,-4.824,-4.7953,-4.7953,-4.7986,-4.8325,-4.8545,-4.8223,-4.8173,-4.8274,-4.8477,-4.8714,-4.8968,-4.9001,-4.9001,-4.8917,-4.8968,-4.9018,-4.9018,-4.9018,-4.9018,-4.9018,-5.5042,-5.578,-5.6563,-5.7327,-5.7932,-5.7978,-5.7978,-5.7978,-5.7978,-5.7978,-5.7978,-5.7978,-5.7978,-5.7978,-5.7978,-5.7844,-5.7241,-5.6286,-5.5208,-5.4218,-5.3668,-5.3534,-5.3433,-5.2739,-5.2147,-5.1809,-5.1725,-5.1572,-5.1319,-5.1268,-5.1117,-5.1185,-5.0811,-5.0642,-5.0608,-5.0202,-5.0118,-5.0101,-5.0033,-5.005,-5.0033,-4.9678,-4.9509,-4.9735,-5.009,-5.0626,-5.0526,-5.063,-5.0792,-5.0885,-5.047,-5.0033,-5.005,-5.0033,-5.0033,-5.0033,-5.005,-5.005,-5.0204,-5.0949,-5.1647,-5.1633,-5.2662,-5.2918,-5.3095,-5.3913,-5.4107,-5.3893,-5.4234,-5.4586,-5.3567,-5.286,-5.2158,-5.1795,-5.1737,-5.1424,-5.0718,-4.9965,-4.934,-4.9137,-4.9018,-4.9018,-4.9018,-4.9077,-4.9001,-4.9032,-4.9001,-4.9018,-4.9018,-4.9018,-4.9018,-4.8883,-4.8917,-4.8917,-4.89,-4.8815,-4.8731,-4.8697,-4.8731,-4.8849,-4.8714,-4.8781,-4.8917,-4.8984,-4.8951,-4.8968,-4.9018,-4.9018,-4.9018,-4.9018,-4.9018,-4.9018,-4.9018,-4.9018,-4.9018,-5.4922,-5.5752,-5.6438,-5.7209,-5.7932,-5.7978,-5.7978,-5.7978,-5.7978,-5.7978,-5.7978,-5.7978,-5.7978,-5.7955,-5.7797,-5.7376,-5.6367,-5.5396,-5.4359,-5.3668,-5.3568,-5.3518,-5.345,-5.3298,-5.3027,-5.252,-5.2486,-5.2181,-5.1826,-5.1572,-5.186,-5.1591,-5.1388,-5.1386,-5.1369,-5.1185,-5.1031,-5.098,-5.0963,-5.0997,-5.0997,-5.0524,-5.0287,-5.0481,-5.1083,-5.1586,-5.148,-5.173,-5.208,-5.1717,-5.1719,-5.1787,-5.1775,-5.1283,-5.1217,-5.115,-5.1031,-5.098,-5.1072,-5.1968,-5.2526,-5.2337,-5.3462,-5.3913,-5.3689,-5.4295,-5.4526,-5.4296,-5.442,-5.482,-5.4091,-5.3637,-5.3259,-5.2919,-5.2688,-5.2299,-5.168,-5.1029,-5.068,-4.9647,-4.9658,-4.9727,-4.9419,-4.9316,-4.9152,-4.9015,-4.9001,-4.9018,-4.9018,-4.9018,-4.9018,-4.9018,-4.9018,-4.9018,-4.9018,-4.9018,-4.9018,-4.9018,-4.9018,-4.9018,-4.9018,-4.9018,-4.9018,-4.9018,-4.9001,-4.9018,-4.9018,-4.9018,-4.9018,-4.9018,-4.9018,-4.9018,-4.9018,-4.9018,-4.8934,-5.4468,-5.5706,-5.5836,-5.6711,-5.7867,-5.7978,-5.7978,-5.7978,-5.7978,-5.7978,-5.7978,-5.7978,-5.7978,-5.7839,-5.7309,-5.6358,-5.5338,-5.4637,-5.4186,-5.3634,-5.3534,-5.3501,-5.3618,-5.3534,-5.3382,-5.3365,-5.3247,-5.3078,-5.3027,-5.3112,-5.2858,-5.2892,-5.2435,-5.2147,-5.1961,-5.1589,-5.1437,-5.1489,-5.1488,-5.1471,-5.1403,-5.1285,-5.1129,-5.1178,-5.1622,-5.1816,-5.2161,-5.2351,-5.2863,-5.3811,-5.3996,-5.4301,-5.4074,-5.2557,-5.1598,-5.15,-5.1454,-5.1522,-5.1583,-5.159,-5.1953,-5.2326,-5.3352,-5.3743,-5.3999,-5.5086,-5.5392,-5.5073,-5.5129,-5.5678,-5.6247,-5.5037,-5.4438,-5.42,-5.4048,-5.3814,-5.3363,-5.3223,-5.2805,-5.1483,-5.1032,-5.0457,-5.0097,-4.9628,-4.9243,-4.9077,-4.9001,-4.9018,-4.9018,-4.9018,-4.9018,-4.9018,-4.9018,-4.9018,-4.9018,-4.9018,-4.9018,-4.9018,-4.9018,-4.9018,-4.9018,-4.9018,-4.9018,-4.9018,-4.9018,-4.9018,-4.9018,-4.9018,-4.9018,-4.9018,-4.9018,-4.9018,-4.8968,-4.89,-4.8545,-5.4713,-5.5724,-5.6132,-5.6953,-5.7886,-5.7978,-5.7978,-5.7978,-5.7978,-5.7978,-5.7978,-5.7978,-5.7774,-5.7425,-5.7109,-5.6039,-5.4878,-5.4154,-5.4059,-5.3946,-5.3734,-5.375,-5.3881,-5.3684,-5.3534,-5.3501,-5.3501,-5.3518,-5.3501,-5.3467,-5.3518,-5.3416,-5.3078,-5.2926,-5.2875,-5.2638,-5.2367,-5.2334,-5.235,-5.235,-5.235,-5.235,-5.2362,-5.2377,-5.2376,-5.2597,-5.2902,-5.3393,-5.3805,-5.4442,-5.4931,-5.5341,-5.5067,-5.4239,-5.2926,-5.2877,-5.2544,-5.2367,-5.2482,-5.266,-5.3075,-5.3014,-5.3923,-5.4554,-5.477,-5.5504,-5.5994,-5.6039,-5.6012,-5.6624,-5.7279,-5.5741,-5.5161,-5.5454,-5.5179,-5.4734,-5.4694,-5.5005,-5.4348,-5.325,-5.2081,-5.127,-5.0651,-5.011,-4.9449,-4.9168,-4.9066,-4.9052,-4.9086,-4.9018,-4.9018,-4.9018,-4.9018,-4.9018,-4.9018,-4.9018,-4.9018,-4.9018,-4.9018,-4.9018,-4.9018,-4.9018,-4.9018,-4.9018,-4.9018,-4.9018,-4.9018,-4.9018,-4.9018,-4.9018,-4.9018,-4.8984,-4.89,-4.8714,-4.8325,-5.4909,-5.578,-5.6367,-5.7166,-5.7932,-5.7978,-5.7978,-5.7955,-5.7815,-5.7821,-5.7955,-5.7839,-5.7522,-5.7184,-5.6843,-5.6122,-5.4818,-5.4232,-5.4328,-5.4342,-5.4042,-5.4042,-5.4059,-5.3898,-5.3518,-5.3518,-5.3518,-5.3518,-5.3518,-5.3518,-5.3518,-5.3484,-5.3501,-5.3501,-5.3416,-5.3281,-5.3501,-5.3518,-5.3518,-5.3534,-5.3684,-5.3716,-5.3722,-5.3656,-5.3623,-5.3517,-5.3743,-5.4368,-5.4837,-5.532,-5.5794,-5.6205,-5.6059,-5.5466,-5.5072,-5.4878,-5.4091,-5.3618,-5.3583,-5.3811,-5.3722,-5.3446,-5.4656,-5.5185,-5.5126,-5.5049,-5.5616,-5.6563,-5.6642,-5.6971,-5.7431,-5.6241,-5.5882,-5.6195,-5.5844,-5.5273,-5.5771,-5.6052,-5.6104,-5.4846,-5.3188,-5.2249,-5.1817,-5.1139,-5.0579,-4.9902,-4.9796,-4.9492,-4.9458,-4.9069,-4.9018,-4.9018,-4.9018,-4.9018,-4.9018,-4.9018,-4.9018,-4.9018,-4.9018,-4.9018,-4.9018,-4.9018,-4.9001,-4.8968,-4.9018,-4.9018,-4.9018,-4.8984,-4.9018,-4.9018,-4.9018,-4.8866,-4.8578,-4.8257,-4.7838,-5.4454,-5.5706,-5.5819,-5.6685,-5.7909,-5.7978,-5.7978,-5.7927,-5.7401,-5.7425,-5.7973,-5.7443,-5.7425,-5.7474,-5.704,-5.634,-5.5695,-5.5232,-5.4922,-5.4726,-5.4405,-5.4059,-5.3783,-5.3584,-5.3501,-5.3518,-5.3518,-5.3518,-5.3518,-5.3518,-5.3518,-5.3518,-5.3518,-5.3518,-5.3518,-5.3518,-5.3518,-5.3518,-5.3501,-5.3832,-5.4374,-5.4468,-5.4472,-5.4316,-5.4038,-5.3865,-5.4405,-5.5102,-5.5798,-5.6492,-5.7223,-5.7642,-5.7594,-5.7022,-5.6713,-5.6029,-5.49,-5.3501,-5.3668,-5.3832,-5.3881,-5.3766,-5.4405,-5.4328,-5.4468,-5.4562,-5.5255,-5.6713,-5.6438,-5.6703,-5.7613,-5.7091,-5.6843,-5.6765,-5.6634,-5.6465,-5.6753,-5.6603,-5.6692,-5.6155,-5.4378,-5.3745,-5.3263,-5.2497,-5.1752,-5.1055,-5.0473,-5.0183,-4.9915,-4.9644,-4.9475,-4.9576,-4.9357,-4.9306,-4.9171,-4.9154,-4.9035,-4.9018,-4.9018,-4.9018,-4.9018,-4.9001,-4.8917,-4.8917,-4.8917,-4.8748,-4.8528,-4.8578,-4.8866,-4.8815,-4.8578,-4.8342,-4.8075,-4.772,-4.7229,-5.5367,-5.6385,-5.6385,-5.6997,-5.7932,-5.7978,-5.7978,-5.7932,-5.766,-5.7703,-5.7927,-5.7703,-5.7516,-5.7333,-5.6571,-5.6031,-5.5667,-5.535,-5.5203,-5.4939,-5.4499,-5.4059,-5.4042,-5.3717,-5.3518,-5.3518,-5.3518,-5.3518,-5.3518,-5.3534,-5.3518,-5.3518,-5.3518,-5.3518,-5.3534,-5.3518,-5.3518,-5.3618,-5.3913,-5.4499,-5.5012,-5.522,-5.525,-5.5203,-5.4896,-5.4761,-5.4878,-5.5798,-5.6465,-5.7015,-5.7613,-5.7978,-5.7821,-5.7333,-5.6869,-5.6765,-5.5616,-5.4835,-5.4743,-5.4359,-5.4139,-5.4121,-5.4419,-5.4651,-5.4805,-5.5472,-5.59,-5.6783,-5.7004,-5.734,-5.766,-5.7302,-5.7327,-5.7259,-5.7184,-5.7209,-5.7216,-5.7116,-5.6932,-5.6313,-5.5719,-5.4975,-5.4102,-5.3072,-5.233,-5.1881,-5.1427,-5.1202,-5.0912,-5.0608,-5.049,-5.0439,-5.0084,-4.9712,-4.9509,-4.9373,-4.912,-4.9052,-4.9018,-4.9018,-4.9018,-4.8984,-4.8798,-4.8545,-4.8359,-4.8189,-4.8003,-4.8071,-4.8274,-4.8173,-4.8037,-4.7699,-4.7344,-4.6735,-4.621,-5.6447,-5.7159,-5.7007,-5.7327,-5.7997,-5.7978,-5.7978,-5.7997,-5.775,-5.7797,-5.7955,-5.7955,-5.7637,-5.7191,-5.6703,-5.6483,-5.6304,-5.5495,-5.5379,-5.5161,-5.4575,-5.4074,-5.3962,-5.3701,-5.3518,-5.3518,-5.3518,-5.3653,-5.3805,-5.3788,-5.3754,-5.3534,-5.3518,-5.3518,-5.3568,-5.3737,-5.3873,-5.394,-5.5075,-5.5727,-5.6034,-5.6507,-5.652,-5.6339,-5.6074,-5.5729,-5.5461,-5.6122,-5.6843,-5.7351,-5.7679,-5.7978,-5.7886,-5.7589,-5.7284,-5.7184,-5.6545,-5.6322,-5.5893,-5.535,-5.4757,-5.4589,-5.4713,-5.4952,-5.5938,-5.7054,-5.7456,-5.6887,-5.7209,-5.757,-5.7821,-5.7474,-5.7565,-5.7589,-5.754,-5.7589,-5.7546,-5.7259,-5.6843,-5.6187,-5.5702,-5.5568,-5.4647,-5.3515,-5.286,-5.2582,-5.2379,-5.2159,-5.1811,-5.1398,-5.1166,-5.0982,-5.0744,-5.0355,-5.0202,-4.9898,-4.9526,-4.9137,-4.9086,-4.8849,-4.8765,-4.8629,-4.8443,-4.8173,-4.7922,-4.7902,-4.7902,-4.7767,-4.7631,-4.753,-4.7361,-4.6938,-4.6481,-4.5889,-4.5415,-5.7241,-5.7862,-5.7184,-5.7351,-5.7978,-5.7978,-5.7978,-5.795,-5.7309,-5.7492,-5.7955,-5.7978,-5.7932,-5.7797,-5.7589,-5.7498,-5.7684,-5.7065,-5.6159,-5.5466,-5.4909,-5.419,-5.3934,-5.3703,-5.367,-5.3619,-5.3805,-5.416,-5.438,-5.4515,-5.4126,-5.3636,-5.3907,-5.367,-5.3822,-5.4313,-5.4499,-5.489,-5.6177,-5.6987,-5.7313,-5.7842,-5.8421,-5.7828,-5.7259,-5.6797,-5.675,-5.7111,-5.7524,-5.8061,-5.8129,-5.8309,-5.8354,-5.8095,-5.7982,-5.8062,-5.8014,-5.7874,-5.7529,-5.6108,-5.4848,-5.4651,-5.4918,-5.5531,-5.6483,-5.6104,-5.6286,-5.6964,-5.7309,-5.7498,-5.7797,-5.7973,-5.7862,-5.7821,-5.775,-5.7655,-5.7498,-5.7116,-5.6668,-5.6022,-5.5724,-5.5667,-5.5836,-5.4838,-5.4069,-5.3766,-5.3026,-5.2806,-5.2306,-5.1919,-5.1605,-5.1405,-5.1302,-5.1116,-5.1048,-5.0625,-4.9898,-4.9458,-4.9306,-4.8798,-4.8325,-4.8206,-4.8409,-4.8041,-4.7906,-4.7821,-4.7716,-4.7445,-4.7192,-4.6955,-4.6701,-4.6397,-4.5974,-4.5449,-4.506,-5.7327,-5.7973,-5.7703,-5.7726,-5.7978,-5.7978,-5.7978,-5.7973,-5.7703,-5.7703,-5.7997,-5.7978,-5.7978,-5.7909,-5.7492,-5.7327,-5.7141,-5.5984,-5.5519,-5.5101,-5.4643,-5.4174,-5.3923,-5.433,-5.4685,-5.4397,-5.4601,-5.4938,-5.5243,-5.5277,-5.5175,-5.4921,-5.4871,-5.4888,-5.504,-5.5057,-5.5226,-5.5621,-5.6591,-5.7246,-5.7976,-5.8544,-5.9122,-5.8843,-5.9216,-5.8742,-5.8559,-5.8874,-5.9183,-5.9247,-5.8946,-5.9024,-5.9171,-5.8951,-5.8969,-5.9263,-5.93,-5.9318,-5.898,-5.7359,-5.5872,-5.5589,-5.6095,-5.684,-5.7242,-5.7,-5.7191,-5.7522,-5.7577,-5.7836,-5.7844,-5.7978,-5.7955,-5.7978,-5.7909,-5.7774,-5.7449,-5.7091,-5.6843,-5.634,-5.6049,-5.5893,-5.6159,-5.634,-5.5624,-5.4949,-5.414,-5.3382,-5.2895,-5.2529,-5.2298,-5.2098,-5.2012,-5.1911,-5.1843,-5.1082,-5.0185,-4.9847,-4.956,-4.8866,-4.8342,-4.8612,-4.8697,-4.8291,-4.7838,-4.775,-4.7479,-4.7056,-4.6853,-4.6819,-4.6464,-4.6007,-4.5534,-4.5094,-4.484,-5.7261,-5.8322,-5.8364,-5.8345,-5.8364,-5.8382,-5.851,-5.8694,-5.8744,-5.8529,-5.8345,-5.8143,-5.7978,-5.7839,-5.754,-5.752,-5.7409,-5.6633,-5.6146,-5.6019,-5.5987,-5.5367,-5.5324,-5.5448,-5.5757,-5.5434,-5.5431,-5.5716,-5.6021,-5.6002,-5.6173,-5.6308,-5.6325,-5.619,-5.5683,-5.5953,-5.6126,-5.6491,-5.7136,-5.7503,-5.8219,-5.9327,-5.9754,-5.9825,-6.0231,-6.0187,-5.9794,-5.9859,-6.0103,-6.0065,-5.99,-5.9887,-5.9979,-6.0015,-5.9918,-6.0199,-6.0419,-6.0438,-5.9883,-5.8834,-5.7396,-5.7205,-5.7666,-5.8067,-5.818,-5.8379,-5.8694,-5.8325,-5.8335,-5.8272,-5.8125,-5.7978,-5.7978,-5.7978,-5.7978,-5.7844,-5.7425,-5.7083,-5.6964,-5.6721,-5.6518,-5.6385,-5.6501,-5.6703,-5.5938,-5.5408,-5.5056,-5.4212,-5.346,-5.3226,-5.3162,-5.301,-5.2875,-5.2756,-5.2604,-5.1555,-5.0608,-5.0321,-4.9881,-4.9001,-4.8629,-4.8832,-4.8714,-4.8159,-4.7787,-4.7631,-4.7513,-4.7394,-4.7124,-4.6866,-4.6515,-4.6244,-4.5703,-4.5331,-4.4959,-5.7038,-5.9082,-5.9106,-5.9124,-5.9239,-5.9166,-5.9551,-6.0052,-6.0126,-5.9795,-5.9134,-5.851,-5.8198,-5.817,-5.8152,-5.8324,-5.8542,-5.8067,-5.7908,-5.8067,-5.7783,-5.7841,-5.7557,-5.7245,-5.7042,-5.6717,-5.6457,-5.6445,-5.6997,-5.6818,-5.7156,-5.7514,-5.7465,-5.7143,-5.5936,-5.6444,-5.7156,-5.789,-5.8576,-5.8402,-5.8808,-6.0172,-6.0514,-6.0899,-6.1215,-6.1202,-6.0884,-6.0756,-6.0933,-6.0823,-6.0584,-6.0548,-6.0694,-6.0548,-6.0511,-6.0658,-6.0639,-6.0584,-6.0408,-5.9677,-5.9246,-5.8968,-5.9243,-5.9452,-5.9981,-6.0144,-5.9722,-5.8982,-5.9074,-5.8731,-5.8364,-5.8107,-5.8235,-5.8198,-5.8253,-5.8367,-5.8045,-5.7872,-5.7931,-5.7688,-5.7297,-5.7051,-5.7022,-5.6832,-5.6077,-5.5638,-5.5667,-5.5059,-5.3979,-5.3618,-5.3501,-5.345,-5.3281,-5.323,-5.2875,-5.186,-5.1082,-5.0745,-5.0152,-4.9171,-4.8595,-4.8545,-4.8342,-4.799,-4.8024,-4.8105,-4.799,-4.7889,-4.7733,-4.753,-4.709,-4.6701,-4.6109,-4.5686,-4.5466,-5.6326,-5.8464,-5.8482,-5.937,-6.0615,-6.0217,-6.0181,-6.0382,-6.0382,-6.0236,-6.0015,-5.9648,-5.9593,-5.948,-5.9078,-5.9056,-5.9121,-5.8519,-5.847,-5.8613,-5.8892,-5.8568,-5.8353,-5.8367,-5.8343,-5.8221,-5.7755,-5.7775,-5.9257,-5.8083,-5.8028,-5.8442,-5.812,-5.7989,-5.7824,-5.7925,-5.7906,-5.8478,-5.86,-5.8617,-5.9531,-6.042,-6.116,-6.1764,-6.216,-6.2138,-6.1869,-6.1796,-6.1796,-6.1722,-6.1502,-6.1392,-6.1612,-6.1557,-6.1429,-6.1777,-6.1961,-6.1998,-6.1973,-6.162,-6.1076,-6.0624,-6.0496,-6.0644,-6.0524,-6.0419,-5.9942,-5.9625,-5.9832,-5.93,-5.8364,-5.9208,-5.9465,-5.9134,-5.9189,-5.957,-5.9548,-5.9487,-5.9408,-5.8896,-5.8482,-5.7608,-5.7275,-5.6689,-5.5936,-5.5004,-5.4805,-5.4562,-5.3668,-5.3568,-5.3518,-5.3518,-5.345,-5.3467,-5.3112,-5.1961,-5.12,-5.0828,-5.0101,-4.9171,-4.8731,-4.8528,-4.8562,-4.8545,-4.8595,-4.8629,-4.8511,-4.8443,-4.8511,-4.8325,-4.7834,-4.7462,-4.7056,-4.6684,-4.6397,-5.7015,-5.8856,-5.9198,-6.0336,-6.1753,-6.1153,-6.0951,-6.1135,-6.097,-6.0823,-6.075,-6.0548,-6.0364,-6.0207,-5.9935,-5.9942,-5.9981,-5.9655,-5.9406,-5.9477,-6.0206,-5.9913,-5.9507,-5.925,-5.9196,-5.9132,-5.8547,-5.8494,-5.9076,-5.8335,-5.8174,-5.83,-5.8227,-5.8354,-5.8565,-5.86,-5.872,-5.9108,-5.9128,-5.9061,-5.9907,-6.061,-6.1055,-6.1941,-6.253,-6.2732,-6.2787,-6.2823,-6.2805,-6.264,-6.2456,-6.2236,-6.2456,-6.2456,-6.2291,-6.2677,-6.2805,-6.2768,-6.2688,-6.267,-6.199,-6.1483,-6.1814,-6.1741,-6.1355,-6.1429,-6.0915,-6.0621,-6.0603,-5.996,-5.9336,-6.0309,-6.0217,-5.9869,-5.9973,-6.0377,-6.0395,-6.0292,-6.02,-5.9729,-5.9322,-5.8419,-5.7287,-5.6474,-5.5736,-5.4787,-5.3865,-5.3651,-5.35,-5.3501,-5.345,-5.3399,-5.3331,-5.3247,-5.2807,-5.1928,-5.1268,-5.0879,-5.0033,-4.9069,-4.8984,-4.8798,-4.8934,-4.9001,-4.89,-4.8849,-4.8934,-4.8934,-4.8832,-4.8748,-4.8528,-4.8223,-4.7986,-4.7614,-4.7208,-5.8936,-6.0402,-6.1221,-6.193,-6.2567,-6.1924,-6.2053,-6.2652,-6.1942,-6.163,-6.1575,-6.0915,-6.0786,-6.0639,-6.0536,-6.0933,-6.1404,-6.1446,-6.1303,-6.1399,-6.1625,-6.1109,-6.0469,-6.0043,-5.9741,-5.911,-5.8511,-5.8173,-5.8154,-5.8458,-5.8406,-5.8227,-5.8298,-5.8564,-5.8857,-5.9245,-5.9509,-5.9736,-5.9639,-5.9671,-6.0291,-6.0549,-6.1055,-6.1842,-6.2394,-6.273,-6.2823,-6.2823,-6.2823,-6.2787,-6.2768,-6.2768,-6.2805,-6.2805,-6.2823,-6.2823,-6.2823,-6.2823,-6.2823,-6.2823,-6.2787,-6.2365,-6.2585,-6.2732,-6.2597,-6.2328,-6.1814,-6.1484,-6.141,-6.0933,-6.0603,-6.0658,-6.0713,-6.0639,-6.0639,-6.075,-6.0768,-6.0689,-6.0652,-6.0389,-6.0109,-5.9176,-5.7558,-5.6569,-5.6039,-5.4983,-5.4166,-5.3757,-5.3629,-5.35,-5.3416,-5.3162,-5.3078,-5.2926,-5.2334,-5.1488,-5.1014,-5.0507,-4.9796,-4.9018,-4.9018,-4.9018,-4.9018,-4.9018,-4.9018,-4.9018,-4.9018,-4.9018,-4.8984,-4.89,-4.8815,-4.8663,-4.8342,-4.8223,-4.7851,-5.8187,-5.9665,-6.0471,-6.1568,-6.2663,-6.2567,-6.2578,-6.275,-6.2548,-6.2456,-6.2456,-6.2236,-6.1936,-6.2108,-6.212,-6.2236,-6.2346,-6.2357,-6.199,-6.1968,-6.1788,-6.1171,-6.0501,-5.9832,-5.9736,-5.9394,-5.8823,-5.8388,-5.9361,-5.9526,-5.9526,-5.9689,-5.8892,-5.8959,-5.9211,-5.9704,-6.0086,-6.0291,-6.0086,-6.0335,-6.061,-6.0938,-6.1361,-6.1842,-6.242,-6.2755,-6.2823,-6.2823,-6.2823,-6.2823,-6.2823,-6.2823,-6.2823,-6.2823,-6.2823,-6.2823,-6.2823,-6.2823,-6.2823,-6.2823,-6.2823,-6.2823,-6.2823,-6.2823,-6.2805,-6.2713,-6.2438,-6.2144,-6.2071,-6.1704,-6.1374,-6.1337,-6.1374,-6.1392,-6.1484,-6.1667,-6.1667,-6.1649,-6.1551,-6.1153,-6.0853,-5.9735,-5.8093,-5.7244,-5.664,-5.5479,-5.463,-5.4152,-5.3633,-5.3462,-5.3043,-5.2756,-5.257,-5.2334,-5.1691,-5.0879,-5.0507,-5.0067,-4.9441,-4.9018,-4.9018,-4.9018,-4.9018,-4.9018,-4.9018,-4.9018,-4.9018,-4.9018,-4.9018,-4.9018,-4.8934,-4.8849,-4.8731,-4.8578,-4.8511,-5.8824,-5.9841,-6.0957,-6.1956,-6.27,-6.2823,-6.2823,-6.2823,-6.2823,-6.2823,-6.2823,-6.2768,-6.2823,-6.275,-6.2732,-6.2725,-6.27,-6.2277,-6.1797,-6.1182,-6.1131,-6.0256,-5.9574,-5.9262,-5.9195,-5.8977,-5.8703,-5.8263,-5.9394,-5.9832,-5.98,-5.9704,-5.9245,-5.9178,-5.9311,-5.9832,-6.0273,-6.0537,-6.0688,-6.1015,-6.1304,-6.1502,-6.1687,-6.2049,-6.2592,-6.273,-6.2823,-6.2823,-6.2823,-6.2823,-6.2823,-6.2823,-6.2823,-6.2823,-6.2823,-6.2823,-6.2823,-6.2823,-6.2823,-6.2823,-6.2823,-6.2823,-6.2823,-6.2823,-6.2823,-6.2768,-6.2548,-6.2346,-6.2511,-6.2548,-6.2266,-6.2065,-6.2108,-6.2126,-6.242,-6.2732,-6.275,-6.275,-6.2407,-6.1947,-6.1182,-6.0185,-5.9121,-5.8267,-5.7317,-5.6329,-5.5436,-5.4814,-5.3994,-5.3253,-5.2584,-5.1995,-5.1826,-5.1623,-5.093,-5.0355,-5.005,-4.9729,-4.934,-4.9018,-4.9018,-4.9018,-4.9018,-4.9018,-4.9018,-4.9018,-4.9018,-4.9018,-4.9018,-4.9018,-4.9018,-4.8951,-4.89,-4.8866,-4.8866,-6.0286,-6.039,-6.2101,-6.2718,-6.2823,-6.2823,-6.2823,-6.2823,-6.2823,-6.2823,-6.2823,-6.2823,-6.2823,-6.2823,-6.2823,-6.2686,-6.2446,-6.1996,-6.1229,-6.0366,-6.0304,-5.9559,-5.8789,-5.8564,-5.8599,-5.8156,-5.7974,-5.8156,-5.8317,-5.8892,-5.9377,-5.9195,-5.9311,-5.936,-5.9556,-6.0023,-6.0458,-6.079,-6.1189,-6.1586,-6.2023,-6.2103,-6.1996,-6.2471,-6.2686,-6.2823,-6.2823,-6.2823,-6.2823,-6.2823,-6.2823,-6.2823,-6.2823,-6.2823,-6.2823,-6.2823,-6.2823,-6.2823,-6.2823,-6.2823,-6.2823,-6.2823,-6.2823,-6.2823,-6.2823,-6.2823,-6.264,-6.2585,-6.2713,-6.2732,-6.253,-6.245,-6.2493,-6.2511,-6.2658,-6.2823,-6.2823,-6.2823,-6.267,-6.2226,-6.1701,-6.0756,-6.033,-5.9465,-5.8356,-5.7291,-5.6323,-5.558,-5.427,-5.3195,-5.236,-5.1505,-5.1133,-5.0913,-5.0287,-4.9796,-4.961,-4.9323,-4.9086,-4.9018,-4.9018,-4.9018,-4.9018,-4.9018,-4.9018,-4.9018,-4.9018,-4.9018,-4.9018,-4.9018,-4.9018,-4.9018,-4.9018,-4.9018,-4.9018,-5.9548,-5.9764,-6.1908,-6.2823,-6.2823,-6.2823,-6.2823,-6.2823,-6.2823,-6.2823,-6.2823,-6.2823,-6.2823,-6.2823,-6.278,-6.2592,-6.2023,-6.1742,-6.0695,-6.0019,-5.9654,-5.9361,-5.8209,-5.8493,-5.8227,-5.7974,-5.7974,-5.8156,-5.8529,-5.8977,-5.9443,-5.996,-5.9991,-5.9942,-5.9942,-6.0414,-6.073,-6.1142,-6.1548,-6.1797,-6.1978,-6.235,-6.2497,-6.2376,-6.2324,-6.2755,-6.2823,-6.2823,-6.2823,-6.2823,-6.2823,-6.2823,-6.2823,-6.2823,-6.2823,-6.2823,-6.2823,-6.2823,-6.2823,-6.2823,-6.2823,-6.2823,-6.2823,-6.2823,-6.2823,-6.2823,-6.2823,-6.2823,-6.2823,-6.2823,-6.2823,-6.2823,-6.2823,-6.2823,-6.2823,-6.2823,-6.2823,-6.2823,-6.2823,-6.2464,-6.2041,-6.166,-6.1246,-6.0499,-5.9376,-5.8317,-5.7224,-5.6088,-5.4298,-5.3017,-5.2343,-5.1505,-5.0642,-5.0202,-4.9695,-4.939,-4.9289,-4.9204,-4.9052,-4.9018,-4.9018,-4.9018,-4.9018,-4.9018,-4.9018,-4.9018,-4.9018,-4.9018,-4.9018,-4.9018,-4.9018,-4.9018,-4.9018,-4.9018,-4.9018,-5.8978,-5.959,-6.1814,-6.2823,-6.2823,-6.2823,-6.2823,-6.2823,-6.2823,-6.2823,-6.2823,-6.2823,-6.2823,-6.2823,-6.278,-6.2592,-6.2023,-6.1742,-6.1239,-6.0435,-5.9686,-5.9559,-5.9129,-5.8875,-5.8772,-5.8581,-5.8065,-5.8156,-5.8651,-5.9027,-5.9443,-5.9864,-6.0055,-6.0384,-6.0445,-6.0718,-6.1102,-6.1576,-6.1897,-6.2049,-6.2076,-6.2446,-6.2661,-6.2394,-6.2515,-6.2823,-6.2823,-6.2823,-6.2823,-6.2823,-6.2823,-6.2823,-6.2823,-6.2823,-6.2823,-6.2823,-6.2823,-6.2823,-6.2823,-6.2823,-6.2823,-6.2823,-6.2823,-6.2823,-6.2823,-6.2823,-6.2823,-6.2823,-6.2823,-6.2823,-6.2823,-6.2823,-6.2823,-6.2823,-6.2823,-6.2823,-6.2823,-6.2823,-6.2823,-6.2705,-6.242,-6.2329,-6.1927,-6.1443,-6.0277,-5.8832,-5.7833,-5.631,-5.4572,-5.3102,-5.2359,-5.1691,-5.0947,-5.0253,-4.9881,-4.9475,-4.9103,-4.9035,-4.9154,-4.9018,-4.9035,-4.9018,-4.9018,-4.9018,-4.9018,-4.9018,-4.9018,-4.9018,-4.9018,-4.9018,-4.9018,-4.9018,-4.9018,-4.9018,-4.9018,-5.8706,-5.9853,-6.1887,-6.2823,-6.2823,-6.2823,-6.2823,-6.2823,-6.2823,-6.2823,-6.2823,-6.2823,-6.2823,-6.2823,-6.2798,-6.273,-6.2446,-6.1824,-6.1484,-6.1055,-6.0532,-6.0149,-6.0086,-6.0198,-5.9753,-5.9179,-5.8599,-5.8317,-5.8352,-5.8633,-5.8875,-5.9111,-5.9671,-6.0273,-6.058,-6.0997,-6.1418,-6.1842,-6.22,-6.2559,-6.2705,-6.2823,-6.2755,-6.2755,-6.2823,-6.2823,-6.2823,-6.2823,-6.2823,-6.2823,-6.2823,-6.2823,-6.2823,-6.2823,-6.2823,-6.2823,-6.2823,-6.2823,-6.2823,-6.2823,-6.2823,-6.2823,-6.2823,-6.2823,-6.2823,-6.2823,-6.2823,-6.2823,-6.2823,-6.2823,-6.2823,-6.2823,-6.2823,-6.2823,-6.2823,-6.2823,-6.2823,-6.2823,-6.2823,-6.2823,-6.278,-6.2718,-6.2427,-6.1986,-6.0928,-5.949,-5.8021,-5.644,-5.4972,-5.3789,-5.2788,-5.2232,-5.1623,-5.0947,-5.0321,-4.9965,-4.961,-4.9593,-4.9712,-4.934,-4.9035,-4.9018,-4.9018,-4.9018,-4.9018,-4.9035,-4.9018,-4.9018,-4.9018,-4.9018,-4.9018,-4.9018,-4.9018,-4.9018,-4.9018,-5.9231,-6.1253,-6.238,-6.2823,-6.2823,-6.2823,-6.2823,-6.2823,-6.2823,-6.2823,-6.2823,-6.2823,-6.2823,-6.2823,-6.2823,-6.2636,-6.2174,-6.177,-6.1171,-6.0598,-6.082,-6.061,-6.0445,-6.0567,-6.0335,-5.9864,-5.9328,-5.8943,-5.8599,-5.837,-5.8156,-5.8281,-5.8993,-5.9704,-6.0414,-6.0849,-6.1361,-6.1969,-6.2148,-6.2298,-6.273,-6.2823,-6.2823,-6.2823,-6.2823,-6.2823,-6.2823,-6.2823,-6.2823,-6.2823,-6.2823,-6.2823,-6.2823,-6.2823,-6.2823,-6.2823,-6.2823,-6.2823,-6.2823,-6.2823,-6.2823,-6.2823,-6.2823,-6.2823,-6.2823,-6.2823,-6.2823,-6.2823,-6.2823,-6.2823,-6.2823,-6.2823,-6.2823,-6.2823,-6.2823,-6.2823,-6.2823,-6.2823,-6.2823,-6.2823,-6.278,-6.2712,-6.2567,-6.2002,-6.1245,-5.9849,-5.8594,-5.7009,-5.5403,-5.4303,-5.3364,-5.2839,-5.2379,-5.1708,-5.1133,-5.0862,-5.0574,-5.049,-5.0287,-4.9932,-4.9526,-4.9052,-4.9035,-4.9238,-4.9137,-4.9086,-4.9052,-4.9018,-4.9018,-4.9018,-4.9018,-4.9018,-4.9018,-4.9018,-4.9018]},{"header":{"parameterUnit":"m.s-1","parameterCategory":1,"la1":31.0,"la2":29.5877,"lo1":-88.7671,"lo2":-86.6584,"dy":0.0162,"dx":0.0185,"nx":115,"ny":88,"refTime":"2026-03-06T12:00:00:Z","depth":0,"parameterNumber":3,"parameterNumberName":"V-component_of_WINDS"},"data":[0.0,0.0,0.0,0.0,0.0,0.0,0.0,0.0,0.0,0.0,0.0,0.0,0.0,0.0,0.0,0.0,0.0,0.0,0.0,0.0,0.0,0.0,0.0,0.0,0.0,0.0,0.0,0.0,0.0,0.0,0.0,0.0,0.0,0.0,0.0,0.0,0.0,0.0,0.0,0.0,0.0,0.0,0.0,0.0,0.0,0.0,0.0,0.0,0.0,0.0,0.0,0.0,0.0,0.0,0.0,0.0,0.0,0.0,0.0,0.0,0.0,0.0,0.0,0.0,0.0,0.0,0.0,0.0,0.0,0.0,0.0,0.0,0.0,0.0,0.0,0.0,0.0,0.0,0.0,0.0,0.0,0.0,0.0,0.0,0.0,0.0,0.0,0.0,0.0,0.0,0.0,0.0,0.0,0.0,0.0,0.0,0.0,0.0,0.0,0.0,0.0,0.0,0.0,0.0,0.0,0.0,0.0,0.0,0.0,0.0,0.0,0.0,0.0,0.0,0.0,0.0,0.0,0.0,0.0,0.0,0.0,0.0,0.0,0.0,0.0,0.0,0.0,0.0,0.0,0.0,0.0,0.0,0.0,0.0,0.0,0.0,0.0,0.0,0.0,0.0,0.0,0.0,0.0,0.0,0.0,0.0,0.0,0.0,0.0,0.0,0.0,0.0,0.0,0.0,0.0,0.0,0.0,0.0,0.0,0.0,0.0,0.0,0.0,0.0,0.0,0.0,0.0,0.0,0.0,0.0,0.0,0.0,0.0,0.0,0.0,0.0,0.0,0.0,0.0,0.0,0.0,0.0,0.0,0.0,0.0,0.0,0.0,0.0,0.0,0.0,0.0,0.0,0.0,0.0,0.0,0.0,0.0,0.0,0.0,0.0,0.0,0.0,0.0,0.0,0.0,0.0,0.0,0.0,0.0,0.0,0.0,0.0,0.0,0.0,0.0,0.0,0.0,0.0,0.0,0.0,0.0,0.0,0.0,0.0,0.0,0.0,0.0,0.0,0.0,0.0,0.0,0.0,0.0,0.0,0.0,0.0,0.0,0.0,0.0,0.0,0.0,0.0,0.0,0.0,0.0,0.0,0.0,0.0,0.0,0.0,0.0,0.0,0.0,0.0,0.0,0.0,0.0,0.0,0.0,0.0,0.0,0.0,0.0,0.0,0.0,0.0,0.0,0.0,0.0,0.0,0.0,0.0,0.0,0.0,0.0,0.0,0.0,0.0,0.0,0.0,0.0,0.0,0.0,0.0,0.0,0.0,0.0,0.0,0.0,0.0,0.0,0.0,0.0,0.0,0.0,0.0,0.0,0.0,0.0,0.0,0.0,0.0,0.0,0.0,0.0,0.0,0.0,0.0,0.0,0.0,0.0,0.0,0.0,0.0,0.0,0.0,0.0,0.0,0.0,0.0,0.0,0.0,0.0,0.0,0.0,0.0,0.0,0.0,0.0,0.0,0.0,0.0,0.0,0.0,0.0,0.0,0.0,0.0,0.0,0.0,0.0,0.0,0.0,0.0,0.0,0.0,0.0,0.0,0.0,0.0,0.0,0.0,0.0,0.0,0.0,0.0,0.0,0.0,0.0,0.0,0.0,0.0,0.0,0.0,0.0,0.0,0.0,0.0,0.0,0.0,0.0,0.0,0.0,0.0,0.0,0.0,0.0,0.0,0.0,0.0,0.0,0.0,0.0,0.0,0.0,0.0,0.0,0.0,0.0,0.0,0.0,0.0,0.0,0.0,0.0,0.0,0.0,0.0,0.0,0.0,0.0,0.0,0.0,0.0,0.0,0.0,0.0,0.0,0.0,0.0,0.0,0.0,0.0,0.0,0.0,0.0,0.0,0.0,0.0,0.0,0.0,0.0,0.0,0.0,0.0,0.0,0.0,0.0,0.0,0.0,0.0,0.0,0.0,0.0,0.0,0.0,0.0,0.0,0.0,0.0,0.0,0.0,0.0,0.0,0.0,0.0,0.0,0.0,0.0,0.0,0.0,0.0,0.0,0.0,0.0,0.0,0.0,0.0,0.0,0.0,0.0,0.0,0.0,0.0,0.0,0.0,0.0,0.0,0.0,0.0,0.0,0.0,0.0,0.0,0.0,0.0,0.0,0.0,0.0,0.0,0.0,0.0,0.0,0.0,0.0,0.0,0.0,0.0,0.0,0.0,0.0,0.0,0.0,0.0,0.0,0.0,0.0,0.0,0.0,0.0,0.0,0.0,0.0,0.0,0.0,0.0,0.0,0.0,0.0,0.0,0.0,0.0,0.0,0.0,0.0,0.0,0.0,0.0,0.0,0.0,0.0,0.0,0.0,0.0,0.0,0.0,0.0,0.0,0.0,0.0,0.0,0.0,0.0,0.0,0.0,0.0,0.0,0.0,0.0,0.0,0.0,0.0,0.0,0.0,0.0,0.0,0.0,0.0,0.0,0.0,0.0,0.0,0.0,0.0,0.0,0.0,0.0,0.0,0.0,0.0,0.0,0.0,0.0,0.0,0.0,0.0,0.0,0.0,0.0,0.0,0.0,0.0,0.0,0.0,0.0,0.0,0.0,0.0,0.0,0.0,0.0,0.0,0.0,0.0,0.0,0.0,0.0,0.0,0.0,0.0,0.0,0.0,0.0,0.0,0.0,0.0,0.0,0.0,0.0,0.0,0.0,0.0,0.0,0.0,0.0,0.0,0.0,0.0,0.0,0.0,0.0,0.0,0.0,0.0,0.0,0.0,0.0,0.0,0.0,0.0,0.0,0.0,0.0,0.0,0.0,0.0,0.0,0.0,0.0,0.0,0.0,0.0,0.0,0.0,0.0,0.0,0.0,0.0,0.0,0.0,0.0,0.0,0.0,0.0,0.0,0.0,0.0,0.0,0.0,0.0,0.0,0.0,0.0,0.0,0.0,0.0,0.0,0.0,0.0,0.0,0.0,0.0,0.0,0.0,0.0,0.0,0.0,0.0,0.0,0.0,0.0,0.0,0.0,0.0,0.0,0.0,0.0,0.0,0.0,0.0,0.0,0.0,0.0,0.0,0.0,0.0,0.0,0.0,0.0,0.0,0.0,0.0,0.0,0.0,0.0,0.0,0.0,0.0,0.0,0.0,0.0,0.0,0.0,0.0,0.0,0.0,0.0,0.0,0.0,0.0,0.0,0.0,0.0,0.0,0.0,0.0,0.0,0.0,0.0,0.0,0.0,0.0,0.0,0.0,0.0,0.0,0.0,0.0,0.0,0.0,0.0,0.0,0.0,0.0,0.0,0.0,0.0,0.0,0.0,0.0,0.0,0.0,0.0,0.0,0.0,0.0,0.0,0.0,0.0,0.0,0.0,0.0,0.0,0.0,0.0,0.0,0.0,0.0,0.0,0.0,0.0,0.0,0.0,0.0,0.0,0.0,0.0,0.0,0.0,0.0,0.0,0.0,0.0,0.0,0.0,0.0,0.0,0.0,0.0,0.0,0.0,0.0,0.0,0.0,0.0,0.0,0.0,0.0,0.0,0.0,0.0,0.0,0.0,0.0,0.0,0.0,0.0,0.0,0.0,0.0,0.0,0.0,0.0,0.0,0.0,0.0,0.0,0.0,0.0,0.0,0.0,0.0,0.0,0.0,0.0,0.0,0.0,0.0,0.0,0.0,0.0,0.0,0.0,0.0,0.0,0.0,0.0,0.0,0.0,0.0,0.0,0.0,0.0,0.0,0.0,0.0,0.0,0.0,0.0,0.0,0.0,0.0,0.0,0.0,0.0,0.0,0.0,0.0,0.0,0.0,0.0,0.0,0.0,0.0,0.0,0.0,0.0,0.0,0.0,0.0,0.0,0.0,0.0,0.0,0.0,0.0,0.0,0.0,0.0,0.0,0.0,0.0,0.0,0.0,0.0,0.0,0.0,0.0,0.0,0.0,0.0,0.0,0.0,0.0,0.0,0.0,0.0,0.0,0.0,0.0,0.0,0.0,0.0,0.0,0.0,0.0,0.0,0.0,0.0,0.0,0.0,0.0,0.0,0.0,0.0,0.0,0.0,0.0,0.0,0.0,0.0,0.0,0.0,0.0,0.0,0.0,0.0,0.0,0.0,0.0,0.0,0.0,0.0,0.0,0.0,0.0,0.0,0.0,0.0,0.0,0.0,0.0,0.0,0.0,0.0,0.0,0.0,0.0,0.0,0.0,0.0,0.0,0.0,0.0,0.0,0.0,0.0,0.0,0.0,0.0,0.0,0.0,0.0,0.0,0.0,0.0,0.0,0.0,0.0,0.0,0.0,0.0,0.0,0.0,0.0,0.0,-0.7982,0.0,0.0,0.0,0.0,0.0,0.0,0.0,0.0,0.0,0.0,0.0,0.0,0.0,0.0,0.0,0.0,0.0,0.0,0.0,0.0,0.0,0.0,0.0,0.0,0.0,0.0,0.0,0.0,0.0,0.0,0.0,0.0,0.0,0.0,0.0,0.0,0.0,0.0,0.0,0.0,0.0,0.0,0.0,0.0,0.0,0.0,0.0,0.0,0.0,0.0,0.0,0.0,0.0,0.0,0.0,0.0,0.0,0.0,0.0,0.0,0.0,0.0,0.0,0.0,0.0,0.0,0.0,0.0,0.0,0.0,0.0,0.0,0.0,0.0,0.0,0.0,0.0,0.0,0.0,0.0,0.0,0.0,0.0,0.0,0.0,0.0,0.0,0.0,0.0,0.0,0.0,0.0,0.0,0.0,0.0,0.0,0.0,0.0,0.0,0.0,0.0,0.0,0.0,0.0,0.0,0.0,0.0,0.0,0.0,0.0,-0.4108,-0.4076,-0.5762,-0.6991,-0.759,0.0,0.0,0.0,0.0,0.0,0.0,0.0,0.0,0.0,0.0,0.0,0.0,0.0,0.0,0.0,0.0,0.0,0.0,0.0,0.0,0.0,0.0,0.0,0.0,0.0,0.0,0.0,0.0,0.0,0.0,0.0,0.0,0.0,0.0,0.0,0.0,0.0,0.0,0.0,0.0,0.0,0.0,0.0,0.0,0.0,0.0,0.0,0.0,0.0,0.0,0.0,0.0,0.0,0.0,0.0,0.0,0.0,0.0,0.0,0.0,0.0,0.0,0.0,0.0,0.0,0.0,0.0,0.0,0.0,0.0,0.0,0.0,0.0,0.0,0.0,0.0,0.0,0.0,0.0,0.0,0.0,0.0,0.0,0.0,0.0,0.0,0.0,0.0,0.0,0.0,0.0,0.0,0.0,0.0,0.0,0.0,0.0,0.0,0.0,0.0,0.0,0.0,0.0,0.0,0.0,0.0,0.0,0.0,0.0,0.0,0.0,0.0,-0.3902,-0.5748,-0.7448,0.0,0.0,0.0,0.0,0.0,0.0,0.0,0.0,0.0,0.0,0.0,0.0,0.0,0.0,0.0,0.0,0.0,0.0,0.0,0.0,0.0,0.0,0.0,0.0,0.0,0.0,0.0,0.0,0.0,0.0,0.0,0.0,0.0,0.0,0.0,0.0,0.0,0.0,0.0,0.0,0.0,0.0,0.0,0.0,0.0,0.0,0.0,0.0,0.0,0.0,0.0,0.0,0.0,0.0,0.0,0.0,0.0,0.0,0.0,0.0,0.0,0.0,0.0,0.0,0.0,0.0,0.0,0.0,0.0,0.0,0.0,0.0,0.0,0.0,0.0,0.0,0.0,0.0,0.0,0.0,0.0,0.0,0.0,0.0,0.0,0.0,0.0,0.0,0.0,0.0,0.0,0.0,0.0,0.0,0.0,0.0,0.0,0.0,0.0,0.0,0.0,0.0,0.0,0.0,0.0,0.0,0.0,0.0,0.0,0.0,-0.0275,-0.0275,-0.2056,0.0,-0.701,0.0,0.0,0.0,0.0,0.0,0.0,0.0,0.0,0.0,0.0,0.0,0.0,0.0,0.0,0.0,0.0,0.0,0.0,0.0,0.0,0.0,0.0,0.0,0.0,0.0,0.0,0.0,0.0,0.0,0.0,0.0,0.0,0.0,0.0,0.0,0.0,0.0,0.0,0.0,0.0,0.0,0.0,0.0,0.0,0.0,0.0,0.0,0.0,0.0,0.0,0.0,0.0,0.0,0.0,0.0,0.0,0.0,0.0,0.0,0.0,0.0,0.0,0.0,0.0,0.0,0.0,0.0,0.0,0.0,0.0,0.0,0.0,0.0,0.0,0.0,0.0,0.0,0.0,0.0,0.0,0.0,0.0,0.0,0.0,0.0,0.0,0.0,0.0,0.0,0.0,0.0,0.0,0.0,0.0,0.0,0.0,0.0,0.0,0.0,0.0,0.0,0.0,0.0,0.0,0.0,0.0,0.0,0.0,0.0,0.0,0.0,0.0,-0.1654,-0.3521,0.0,0.0,0.0,0.0,0.0,0.0,0.0,0.0,0.0,0.0,0.0,0.0,0.0,0.0,0.0,0.0,0.0,0.0,0.0,0.0,0.0,0.0,0.0,0.0,0.0,0.0,0.0,0.0,0.0,0.0,0.0,0.0,0.0,0.0,0.0,0.0,0.0,0.0,0.0,0.0,0.0,0.0,0.0,0.0,0.0,0.0,0.0,0.0,0.0,0.0,0.0,0.0,0.0,0.0,0.0,0.0,0.0,0.0,0.0,0.0,0.0,0.0,0.0,0.0,0.0,0.0,0.0,0.0,0.0,0.0,0.0,0.0,0.0,0.0,0.0,0.0,0.0,0.0,0.0,0.0,0.0,0.0,0.0,0.0,0.0,0.0,0.0,0.0,0.0,0.0,0.0,0.0,0.0,0.0,0.0,0.0,0.0,0.0,0.0,0.0,0.0,0.0,0.0,0.0,0.0,0.0,0.0,0.0,0.0,0.0,0.0,0.0,0.0,-0.1686,-0.3144,-0.446,0.0,0.0,0.0,0.0,0.0,0.0,0.0,0.0,0.0,0.0,0.0,0.0,0.0,0.0,0.0,0.0,0.0,0.0,0.0,0.0,0.0,0.0,0.0,0.0,0.0,0.0,0.0,0.0,0.0,0.0,0.0,0.0,0.0,0.0,0.0,0.0,0.0,0.0,0.0,0.0,0.0,0.0,0.0,0.0,0.0,0.0,0.0,0.0,0.0,0.0,0.0,0.0,0.0,0.0,0.0,0.0,0.0,0.0,0.0,0.0,0.0,0.0,0.0,0.0,0.0,0.0,0.0,0.0,0.0,0.0,0.0,0.0,0.0,0.0,0.0,0.0,0.0,0.0,0.0,0.0,0.0,0.0,0.0,0.0,0.0,0.0,0.0,0.0,0.0,0.0,0.0,0.0,0.0,0.0,0.0,0.0,0.0,0.0,0.0,0.0,0.0,0.0,0.0,0.0,0.0,0.0,0.0,0.0,0.0,0.0,0.0,0.0,-0.1708,-0.3256,0.0,0.0,0.0,0.0,0.0,0.0,0.0,0.0,0.0,0.0,0.0,0.0,0.0,0.0,0.0,0.0,0.0,0.0,0.0,0.0,0.0,0.0,0.0,0.0,0.0,0.0,0.0,0.0,0.0,0.0,0.0,0.0,0.0,0.0,0.0,0.0,0.0,0.0,0.0,0.0,0.0,0.0,0.0,0.0,0.0,0.0,0.0,0.0,0.0,0.0,0.0,0.0,0.0,0.0,0.0,0.0,0.0,0.0,0.0,0.0,0.0,0.0,0.0,0.0,0.0,0.0,0.0,0.0,0.0,0.0,0.0,0.0,0.0,0.0,0.0,0.0,0.0,0.0,0.0,0.0,0.0,0.0,0.0,0.0,0.0,0.0,0.0,0.0,0.0,0.0,0.0,0.0,0.0,0.0,0.0,0.0,0.0,0.0,0.0,0.0,0.0,0.0,0.0,0.0,0.0,0.0,0.0,0.0,0.0,0.0,0.0,0.0,0.0,-0.0632,-0.1601,0.0,0.0,0.0,0.0,0.0,0.0,0.0,0.0,0.0,0.0,0.0,0.0,0.0,0.0,0.0,0.0,0.0,0.0,0.0,0.0,0.0,0.0,0.0,0.0,0.0,0.0,0.0,0.0,0.0,0.0,0.0,0.0,0.0,0.0,0.0,0.0,0.0,0.0,0.0,0.0,0.0,0.0,0.0,0.0,0.0,0.0,0.0,0.0,0.0,0.0,0.0,0.0,0.0,0.0,0.0,0.0,0.0,0.0,0.0,0.0,0.0,0.0,0.0,0.0,0.0,0.0,0.0,0.0,0.0,0.0,0.0,0.0,0.0,0.0,0.0,0.0,0.0,0.0,0.0,0.0,0.0,0.0,0.0,0.0,0.0,0.0,0.0,0.0,0.0,0.0,0.0,0.0,0.0,0.0,0.0,0.0,0.0,0.0,0.0,0.0,0.0,0.0,0.0,0.0,0.0,0.0,0.0,0.0,0.0,0.0,0.0,0.0,0.0,0.0,-0.0663,0.0,0.0,0.0,0.0,0.0,0.0,0.0,0.0,0.0,0.0,0.0,0.0,0.0,0.0,0.0,0.0,0.0,0.0,0.0,0.0,0.0,0.0,0.0,0.0,0.0,0.0,0.0,0.0,0.0,0.0,0.0,0.0,0.0,0.0,0.0,0.0,0.0,0.0,0.0,0.0,0.0,0.0,0.0,0.0,0.0,0.0,0.0,0.0,0.0,0.0,0.0,0.0,0.0,0.0,0.0,0.0,0.0,0.0,0.0,0.0,0.0,0.0,0.0,0.0,0.0,0.0,0.0,0.0,0.0,0.0,0.0,0.0,0.0,0.0,0.0,0.0,0.0,0.0,0.0,0.0,0.0,0.0,0.0,0.0,0.0,0.0,0.0,0.0,0.0,0.0,0.0,0.0,0.0,0.0,0.0,0.0,0.0,0.0,0.0,0.0,0.0,0.0,0.0,0.0,0.0,0.0,0.0,0.0,0.0,0.0,0.0,0.0,0.0,0.0,-0.0663,0.0,0.0,0.0,0.0,0.0,0.0,0.0,0.0,0.0,0.0,0.0,0.0,0.0,0.0,0.0,0.0,0.0,0.0,0.0,0.0,0.0,0.0,0.0,0.0,0.0,0.0,0.0,0.0,0.0,0.0,0.0,0.0,0.0,0.0,0.0,0.0,0.0,0.0,0.0,0.0,0.0,0.0,0.0,0.0,0.0,0.0,0.0,0.0,0.0,0.0,0.0,0.0,0.0,0.0,0.0,0.0,0.0,0.0,0.0,0.0,0.0,0.0,0.0,0.0,0.0,0.0,0.0,0.0,0.0,0.0,0.0,0.0,0.0,0.0,0.0,0.0,0.0,0.0,0.0,0.0,0.0,0.0,0.0,0.0,0.0,0.0,0.0,0.0,0.0,0.0,0.0,0.0,0.0,0.0,0.0,0.0,0.0,0.0,0.0,0.0,0.0,0.0,0.0,0.0,0.0,0.0,0.0,0.0,0.0,0.0,0.0,0.0,0.0,0.0,-0.0239,0.0,0.0,0.0,0.0,0.0,0.0,0.0,0.0,0.0,0.0,0.0,0.0,0.0,0.0,0.0,0.0,0.0,0.0,0.0,0.0,0.0,0.0,0.0,0.0,0.0,0.0,0.0,0.0,0.0,0.0,0.0,0.0,0.0,0.0,0.0,0.0,0.0,0.0,0.0,0.0,0.0,0.0,0.0,0.0,0.0,0.0,0.0,0.0,0.0,0.0,0.0,0.0,0.0,0.0,0.0,0.0,0.0,0.0,0.0,0.0,0.0,0.0,0.0,0.0,0.0,0.0,0.0,0.0,0.0,0.0,0.0,0.0,0.0,0.0,0.0,0.0,0.0,0.0,0.0,0.0,0.0,0.0,0.0,0.0,0.0,0.0,0.0,0.0,0.0,0.0,0.0,0.0,0.0,0.0,0.0,0.0,0.0,0.0,0.0,0.0,0.0,0.0,0.0,0.0,0.0,0.0,0.0,0.0,0.0,0.0,0.0,0.0,0.0,0.0,0.0,0.0,0.0,0.0,0.0,0.0,0.0,0.0,0.0,0.0,0.0,0.0,0.0,0.0,0.0,0.0,0.0,0.0,0.0,0.0,0.0,0.0,0.0,0.0,0.0,0.0,0.0,0.0,0.0,0.0,0.0,0.0,0.0,0.0,0.0,0.0,0.0,0.0,0.0,0.0,0.0,0.0,0.0,0.0,0.0,0.0,0.0,0.0,0.0,0.0,0.0,0.0,0.0,0.0,0.0,0.0,0.0,0.0,0.0,0.0,0.0,0.0,0.0,0.0,0.0,0.0,0.0,0.0,0.0,0.0,0.0,0.0,0.0,0.0,0.0,0.0,0.0,0.0,0.0,0.0,0.0,0.0,0.0,0.0,0.0,0.0,0.0,0.0,0.0,0.0,0.0,0.0,0.0,0.0,0.0,0.0,0.0,0.0,0.0,0.0,0.0,0.0,0.0,0.0,0.0,0.0,0.0,0.0,0.0,0.0,0.0,0.0,0.0,0.0,0.0,0.0,0.0,0.0,0.0,0.0,0.0,0.0,0.0,0.0,0.0,0.0,0.0,0.0,0.0,0.0,0.0,0.0,0.0,0.0,0.0,0.0,0.0,0.0,0.0,0.0,0.0,0.0,0.0,0.0,0.0,0.0,0.0,0.0,0.0,0.0,0.0,0.0,0.0,0.0,0.0,0.0,0.0,0.0,0.0,0.0,0.0,0.0,0.0,0.0,0.0,0.0,0.0,0.0,0.0,0.0,0.0,0.0,0.0,0.0,0.0,0.0,0.0,0.0,0.0,0.0,0.0,0.0,0.0,0.0,0.0,0.0,0.0,0.0,0.0,0.0,0.0,0.0,0.0,0.0,0.0,0.0,0.0,0.0,0.0,0.0,0.0,0.0,0.0,0.0,0.0,0.0,0.0,0.0,0.0,0.0,0.0,0.0,0.0,0.0,0.0,0.0,0.0,0.0,0.0,0.0,0.0,0.0,0.0,0.0,0.0,0.0,0.0,0.0,0.0,0.0,0.0,0.0,0.0,0.0,0.0,0.0,0.0,0.0,0.0,0.0,0.0,0.0,0.0,0.0,0.0,0.0,0.0,0.0,0.0,0.0,0.0,0.0,0.0,0.0,0.0,0.0,0.0,0.0,0.0,0.0,0.0,0.0,0.0,0.0,0.0,0.0,0.0,0.0,0.0,0.0,0.0,0.0,0.0,0.0,0.0,0.0,0.0,0.0,0.0,0.0,0.0,0.0,0.0,0.0,0.0,0.0,0.0,0.0,0.0,0.0,0.0,0.0,0.0,0.0,0.0,0.0,0.0,0.0,0.0,0.0,0.0,0.0,0.0,0.0,0.0,0.0,0.0,0.0,0.0,0.0,0.0,0.0,0.0,0.0,0.0,0.0,0.0,0.0,0.0,0.0,0.0,0.0,0.0,0.0,0.0,0.0,0.0,0.0,0.0,0.0,0.0,0.0,0.0,0.0,0.0,0.0,0.0,0.0,0.0,0.0,0.0,0.0,0.0,0.0,0.0,0.0,0.0,0.0,0.0,0.0,0.0,0.0,0.0,0.0,0.0,0.0,0.0,0.0,0.0,0.0,0.0,0.0,0.0,0.0,0.0,0.0,0.0,0.0,0.0,0.0,0.0,0.0,0.0,0.0,0.0,0.0,0.0,0.0,0.0,0.0,0.0,0.0,0.0,0.0,0.0,0.0,0.0,0.0,0.0,0.0,0.0,0.0,0.0,0.0,0.0,0.0,0.0,0.0,0.0,0.0,0.0,0.0,0.0,0.0,0.0,0.0,0.0,0.0,0.0,0.0,0.0,0.0,0.0,0.0,0.0,0.0,0.0,0.0,0.0,0.0,0.0,0.0,0.0,0.0,0.0,0.0,0.0,0.0,0.0,0.0,0.0,0.0,0.0,0.0,0.0,0.0,0.0,0.0,0.0,0.0,0.0,0.0,0.0,0.0,0.0,0.0,0.0,0.0,0.0,0.0,0.0,0.0,0.0,0.0,0.0,0.0,0.0282,0.0,0.0,0.0,0.0,0.0,0.0,0.0,0.0,0.0,0.0,0.0,0.0,0.0,0.0,0.0,0.0,0.0,0.0,0.0,0.0,0.0,0.0,0.0,0.0,0.0,0.0,0.0,0.0,0.0,0.0,0.0,0.0,0.0,0.0,0.0,0.0,0.0,0.0,0.0,0.0,0.0,0.0,0.0,0.0,0.0,0.0,0.0,0.0,0.0,0.0,0.0,0.0,0.0,0.0,0.0,0.0,0.0,0.0,0.0,0.0,0.0,0.0,0.0,0.0,0.0,0.0,0.0,0.0,0.0,0.0,0.0,0.0,0.0,0.0,0.0,0.0,0.0,0.0,0.0,0.0,0.0,0.0,0.0,0.0,0.0,0.0,0.0,0.0,0.0,0.0,0.0,0.0,0.0,0.0,0.0,0.0,0.0,0.0,0.0,0.0,0.0,0.0,0.0,0.0,0.0,0.0,0.0,0.0,0.0,0.0,0.0,0.0,0.2228,0.2106,0.2204,0.1529,0.0,0.0,0.0,0.0,0.0,0.0,0.0,0.0,0.0,0.0,0.0,0.0,0.0,0.0,0.0,0.0,0.0,0.0,0.0,0.0,0.0,0.0,0.0,0.0,0.0,0.0,0.0,0.0,0.0,0.0,0.0,0.0,0.0,0.0,0.0,0.0,0.0,0.0,0.0,0.0,0.0,0.0,0.0,0.0,0.0,0.0,0.0,0.0,0.0,0.0,0.0,0.0,0.0,0.0,0.0,0.0,0.0,0.0,0.0,0.0,0.0,0.0,0.0,0.0,0.0,0.0,0.0,0.0,0.0,0.0,0.0,0.0,0.0,0.0,0.0,0.0,0.0,0.0,0.0,0.0,0.0,0.0,0.0,0.0,0.0,0.0,0.0,0.0,0.0,0.0,0.0,0.0,0.0,0.0,0.0,0.0,0.0,0.0,0.0,0.0,0.0,0.0,0.0,0.0,0.0,0.0,0.0,0.0,0.0,0.0,0.0,0.3897,0.3931,0.3178,0.2308,0.1298,0.0483,0.0,0.0,0.0,0.0,0.0,0.0,0.0,0.0,0.0,0.0,0.0,0.0,0.0,0.0,0.0,0.0,0.0,0.0,0.0,0.0,0.0,0.0,0.0,0.0,0.0,0.0,0.0,0.0,0.0,0.0,0.0,0.0,0.0,0.0,0.0,0.0,0.0,0.0,0.0,0.0,0.0,0.0,0.0,0.0,0.0,0.0,0.0,0.0,0.0,0.0,0.0,0.0,0.0,0.0,0.0,0.0,0.0,0.0,0.0,0.0,0.0,0.0,0.0,0.0,0.0,0.0,0.0,0.0,0.0,0.0,0.0,0.0,0.0,0.0,0.0,0.0,0.0,0.0,0.0,0.0,0.0,0.0,0.0,0.0,0.0,0.0,0.0,0.0,0.0,0.0,0.0,0.0,0.0,0.0,0.0,0.0,0.0,0.0,0.0,0.0,0.0,0.0,0.0,0.0,0.0,0.0,0.0,0.0,0.4589,0.5522,0.5711,0.4325,0.3414,0.3129,0.1388,0.0403,0.0386,0.0,0.0,0.0,0.0,0.0,0.0,0.0,0.0,0.0,0.0,0.0,0.0,0.0,0.0,0.0,0.0,0.0,0.0,0.0,0.0,0.0,0.0,0.0,0.0,0.0,0.0,0.0,0.0,0.0,0.0,0.0,0.0,0.0,0.0,0.0,0.0,0.0,0.0,0.0429,0.1995,0.0,0.0,0.0,0.0,0.0,0.0,0.0,0.0,0.1406,0.0,0.0,0.0,0.0,0.0,0.0,0.0,0.0,0.0,0.0,0.0,0.0,0.0,0.0,0.0,0.0,0.0,0.0,0.0,0.0,0.0,0.0,0.0,0.0,0.0,0.0,0.0,0.0,0.0,0.0,0.0,0.0,0.0,0.0,0.0,0.0,0.0,0.0,0.0,0.0,0.0,0.0,0.0,0.0,0.0,0.0,0.0,0.0,0.0,0.0,0.0,0.0,0.0,0.0,0.0,0.0,0.492,0.6514,0.7417,0.7549,0.7422,0.6581,0.4969,0.321,0.2247,0.2216,0.0,0.0,0.0,0.0,0.0,0.0,0.0,0.0,0.0,0.0,0.0,0.0,0.0,0.0,0.0,0.0,0.0,0.0,0.0,0.0,0.0,0.0,0.0,0.0,0.0,0.0,0.0,0.0,0.0,0.0,0.0,0.0,0.0,0.0,0.0,0.0,0.0,0.0,0.0,0.3956,0.5039,0.0,0.0,0.0,0.0,0.0,0.0,0.0,0.0,0.2333,0.0,0.0,0.0,0.0,0.0,0.0,0.0,0.0,0.0,0.0,0.0,0.0,0.0,0.0,0.0,0.0,0.0,0.0,0.0,0.0,0.0,0.0,0.0,0.0,0.0,0.0,0.0,0.0,0.0,0.0,0.0,0.0,0.0,0.0,0.0,0.0,0.0,0.0,0.0,0.0,0.0,0.0,0.0,0.0,0.0,0.0,0.0,0.0,0.0,0.0,0.0,0.0,0.0,0.0,0.0,0.6562,0.8193,0.9212,0.9387,0.8567,0.7729,0.676,0.4842,0.3457,0.0,0.0,0.0,0.0,0.0,0.0,0.0,0.0,0.0,0.0,0.0,0.0,0.0,0.0,0.0,0.0,0.0,0.0,0.0,0.0,0.0,0.0,0.0,0.0,0.0,0.0,0.0,0.0,0.0,0.0,0.0,0.0,0.0,0.0,0.0,0.0,0.0,0.0,0.0,0.0,0.5929,0.7069,0.7161,0.0,0.0,0.0,0.0,0.0,0.0,0.4417,0.4137,0.0,0.0,0.0,0.0,0.0,0.0,0.0,0.0,0.0,0.0,0.0,0.0,0.0,0.0,0.0,0.0,0.0,0.0,0.0,0.0,0.0,0.0,0.0,0.0,0.0,0.0,0.0,0.0,0.0,0.0,0.0,0.0,0.0,0.0,0.0,0.0,0.0,0.0,0.0,0.0,0.0,0.0,0.0,0.0,0.0,0.0,0.0,0.0,0.0,0.0,0.0,0.0,0.0,0.0,0.0,0.7665,0.9334,1.0392,1.0638,0.9274,0.8574,0.8504,0.656,0.4769,0.0,0.0,0.0,0.0,0.0,0.0,0.0,0.0,0.0,0.0,0.0,0.0,0.0,0.0,0.0,0.0,0.0,0.0,0.0,0.0,0.0,0.0,0.0,0.0,0.0,0.0,0.0,0.0,0.0,0.0,0.0,0.0,0.0,0.0,0.0,0.0,0.0,0.0,0.0,0.0,0.0,0.9072,0.907,0.893,0.0,0.0,0.0,0.0,0.7192,0.6377,0.0,0.0,0.0,0.0,0.0,0.0,0.0,0.0,0.0,0.0,0.0,0.0,0.0,0.0,0.0,0.0,0.0,0.0,0.0,0.0,0.0,0.0,0.0,0.0,0.0,0.0,0.0,0.0,0.0,0.0,0.0,0.0,0.0,0.0,0.0,0.0,0.0,0.0,0.0,0.0,0.0,0.0,0.0,0.0,0.0,0.0,0.0,0.0,0.0,0.0,0.0,0.0,0.0,0.0,0.0,0.0,0.7659,0.924,1.0287,1.0694,1.0535,1.0409,1.0336,0.8491,0.6726,0.0,0.0,0.0,0.0,0.0,0.0,0.0,0.0,0.0,0.0,0.0,0.0,0.0,0.0,0.0,0.0,0.0,0.0,0.0,0.0,0.0,0.0,0.0,0.0,0.0,0.0,0.0,0.0,0.0,0.0,0.0,0.0,0.0,0.0,0.0,0.0,0.0,0.0,0.0,0.0,0.0,1.0912,1.0531,1.0336,0.9594,0.0,0.0,0.9118,0.8317,0.8115,0.0,0.0,0.0,0.0,0.0,0.0,0.0,0.0,0.0,0.0,0.0,0.0,0.0,0.0,0.0,0.0,0.0,0.0,0.0,0.0,0.0,0.0,0.0,0.0,0.0,0.0,0.0,0.0,0.0,0.0,0.0,0.0,0.0,0.0,0.0,0.0,0.0,0.0,0.0,0.0,0.0,0.0,0.0,0.0,0.0,0.0,0.0,0.0,0.0,0.0,0.0,0.0,0.0,0.0,0.0,0.8589,0.8836,0.982,1.0439,1.0707,1.0721,1.0721,1.0717,0.9557,0.8178,0.0,0.0,0.0,0.0,0.0,0.0,0.0,0.0,0.0,0.0,0.0,0.0,0.0,0.0,0.0,0.0,0.0,0.0,0.0,0.0,0.0,0.0,0.0,0.0,0.0,0.0,0.0,0.0,0.0,0.0,0.0,0.0,0.0,0.0,0.0,0.0,0.0,0.0,0.0,0.0,0.0,0.0,1.0877,1.0725,0.0,0.0,0.0,1.0002,0.9402,0.0,0.0,0.0,0.0,0.0,0.0,0.0,0.0,0.0,0.0,0.0,0.0,0.0,0.0,0.0,0.0,0.0,0.0,0.0,0.0,0.0,0.0,0.0,0.0,0.0,0.0,0.0,0.0,0.0,0.0,0.0,0.0,0.0,0.0,0.0,0.0,0.0,0.0,0.0,0.0,0.0,0.0,0.0,0.0,0.0,0.0,0.0,0.0,0.0,0.0,0.0,0.0,0.0,0.0,0.0,0.0,0.0,0.9771,1.0209,1.0531,1.0711,1.0721,1.0704,1.0656,1.0188,0.0,0.0,0.0,0.0,0.0,0.0,0.0,0.0,0.0,0.0,0.0,0.0,0.0,0.0,0.0,0.0,0.0,0.0,0.0,0.0,0.0,0.0,0.0,0.0,0.0,0.0,0.0,0.3128,0.0,0.0,0.0,0.0,0.0,0.0,0.0,0.0,0.0,0.0,0.0,0.0,0.0,0.0,1.0962,1.085,1.0833,1.0853,0.0,0.0,1.0321,1.0283,1.047,1.0409,0.0,0.0,0.0,0.0,0.0,0.0,0.0,0.0,0.0,0.0,0.0,0.0,0.0,0.0,0.0,0.0,0.0,0.0,0.0,0.0,0.0,0.0,0.0,0.0,0.0,0.0,0.0,0.0,0.0,0.0,0.0,0.0,0.0,0.0,0.0,0.0,0.0,0.0,0.0,0.0,0.0,0.0,0.0,0.0,0.0,0.0,0.0,0.0,0.0,0.0,0.0,0.0,0.0,0.0,0.933,0.9625,1.0066,1.0436,1.0707,1.0721,1.0653,1.051,1.0337,0.9289,0.0,0.0,0.0,0.0,0.0,0.0,0.0,0.0,0.0,0.0,0.0,0.0,0.0,0.0,0.0,0.0,0.0,0.0,0.0,0.0,0.0,0.0,0.0,0.0,0.0,0.0,0.0,0.0,0.0,0.0,0.0,0.0,0.0,0.0,0.0,0.0,0.0,0.0,0.0,0.0,0.0,1.0995,1.0578,1.0768,1.0992,0.0,1.0758,1.0571,1.0843,1.124,1.1185,1.0118,0.0,0.0,0.0,0.0,0.0,0.0,0.0,0.0,0.0,0.0,0.0,0.0,0.0,0.0,0.0,0.0,0.0,0.0,0.0,0.0,0.0,0.0,0.0,0.0,0.0,0.0,0.0,0.0,0.0,0.0,0.0,0.0,0.0,0.0,0.0,0.0,0.0,0.0,0.0,0.0,0.0,0.0,0.0,0.0,0.0,0.0,0.0,0.0,0.0,0.0,0.0,0.0,0.0,0.9303,0.9608,1.0053,1.0426,1.0704,1.0721,1.0694,1.0633,1.031,0.9652,0.0,0.0,0.0,0.0,0.0,0.0,0.0,0.0,0.0,0.0,0.0,0.0,0.0,0.0,0.0,0.0,0.0,0.0,0.0,0.0,0.0,0.0,0.0,0.0,0.0,0.0,0.0,0.0,0.7713,0.8075,0.8078,0.0,0.0,0.0,0.0,0.0,0.0,0.0,0.0,0.0,0.0,1.24,1.2518,1.3675,0.0,0.0,1.2763,1.2208,1.0946,1.087,1.0694,1.0015,0.9727,0.0,0.0,0.0,0.0,0.0,0.0,0.0,0.0,0.0,0.0,0.0,0.0,0.0,0.0,0.0,0.0,0.0,0.0,0.0,0.0,0.0,0.0,0.0,0.0,0.0,0.0,0.0,0.0,0.0,0.0,0.0,0.0,0.0,0.0,0.0,0.0,0.0,0.0,0.0,0.0,0.0,0.0,0.0,0.0,0.0,0.0,0.0,0.0,0.0,0.0,0.0,0.0,1.0023,1.0351,1.131,1.1915,1.2138,1.2142,1.1861,1.1286,1.0921,1.0318,0.0,0.0,0.0,0.0,0.0,0.0,0.0,0.0,0.0,0.0,0.0,0.0,0.0,0.0,0.0,0.0,0.0,0.0,0.0,0.0,0.0,0.0,0.0,0.0,0.0,0.0,0.0,0.0,0.8937,0.8937,0.8937,0.0,0.0,0.0,0.0,0.0,0.0,0.0,0.0,0.0,0.0,1.4066,1.43,1.5177,1.5314,1.392,1.3244,1.2305,1.0864,1.095,1.1037,1.0616,0.0,0.0,0.0,0.0,0.0,0.0,0.0,0.0,0.0,0.0,0.0,0.0,0.0,0.0,0.0,0.0,0.0,0.0,0.0,0.0,0.0,0.0,0.0,0.0,0.0,0.0,0.0,0.9214,0.0,0.0,0.8954,0.0,0.0,0.0,0.0,0.0,0.0,0.0,0.0,0.0,0.0,0.0,0.0,0.0,0.0,0.0,0.0,0.0,0.0,0.0,0.0,0.0,0.0,1.1458,1.195,1.4012,1.517,1.5331,1.5404,1.4487,1.2737,1.2473,1.1398,0.9501,0.0,0.0,0.0,0.0,0.0,0.0,0.0,0.0,0.0,0.0,0.0,0.0,0.0,0.0,0.0,0.0,0.0,0.0,0.0,0.0,0.0,0.0,0.0,0.0,0.0,0.0,0.8895,0.8937,0.8878,0.0,0.0,0.0,0.0,0.0,0.0,0.0,0.0,0.0,1.4003,1.5262,1.5877,1.5513,1.4438,1.3805,1.3288,1.1581,1.037,1.0586,1.1831,1.267,0.0,0.0,0.0,0.0,0.0,0.0,0.0,0.0,0.0,0.0,0.0,0.0,0.0,0.0,0.0,0.0,0.0,0.0,0.0,0.0,0.0,0.0,0.0,0.0,0.0,0.0,0.0,1.1933,1.2889,0.0,0.0,0.0,0.0,0.0,0.0,0.0,0.0,0.0,0.0,0.0,1.453,1.4453,0.0,0.0,0.0,0.0,0.0,0.0,0.0,0.0,0.0,0.0,0.0,0.0,1.1881,1.3006,1.4282,1.5012,1.517,1.518,1.4963,1.459,1.419,1.2935,1.0763,0.0,0.0,0.0,0.0,0.0,0.0,0.0,0.0,0.0,0.0,0.0,0.0,0.0,0.0,0.0,0.0,0.0,0.0,0.0,0.0,0.0,0.0,0.0,0.0,0.0,0.9093,0.0,0.0,0.0,0.0,0.0,0.0,0.0,0.0,0.0,0.0,0.0,1.3662,1.4437,1.6024,1.7145,1.72,1.8019,1.8116,0.0,0.0,0.0,0.0,0.0,0.0,0.0,0.0,0.0,0.0,0.0,0.0,0.0,0.0,1.7385,1.4943,1.4495,1.4495,1.4354,0.0,0.0,0.0,0.0,0.0,0.0,0.0,0.0,0.0,0.0,0.0,0.0,0.0,0.0,1.3995,1.4855,1.3776,0.0,0.0,0.0,0.0,0.0,0.0,0.0,0.0,1.544,1.6383,1.6665,1.658,1.6373,1.6115,1.5701,1.4472,0.0,0.0,0.0,0.0,0.0,0.0,0.0,0.0,1.3356,1.4516,1.5873,1.658,1.6675,1.668,1.6445,1.6096,1.5187,1.3922,1.2363,1.0875,0.9987,0.0,0.0,0.0,0.0,0.0,0.0,0.0,0.0,0.0,0.0,0.0,0.0,0.0,0.0,0.0,0.0,0.0,0.0,0.0,0.0,0.0,0.0,0.0,1.06,0.0,0.0,0.0,0.0,0.0,0.0,0.0,0.0,0.0,1.3262,1.437,1.5462,1.6276,1.7793,1.8784,1.8729,0.0,0.0,0.0,0.0,0.0,0.0,0.0,1.5376,1.5343,1.579,1.6223,1.6522,1.7631,1.8559,1.8653,0.0,0.0,1.7062,1.6632,1.6631,1.6534,1.7552,1.8342,1.8115,1.9075,1.9867,0.0,0.0,0.0,0.0,1.515,0.0,0.0,0.0,1.5637,1.551,0.0,1.5505,0.0,0.0,0.0,0.0,1.3871,1.5699,0.0,0.0,1.902,2.0027,1.9794,1.9787,1.9686,1.9392,1.9028,1.789,1.6096,1.403,0.0,0.0,0.0,0.0,0.0,0.0,1.591,1.6578,1.8609,1.972,1.972,1.9727,1.8935,1.7289,1.5628,1.4524,1.4169,1.3667,1.3333,1.2992,1.1392,0.0,0.0,0.0,0.0,0.0,0.0,0.0,0.0,0.0,0.0,0.0,0.0,0.0,0.0,0.0,0.0,0.0,0.0,0.0,0.0,1.2507,0.0,0.0,0.0,0.0,0.0,0.0,0.0,0.0,0.0,0.0,1.6334,1.6887,1.7904,1.9483,0.0,0.0,0.0,0.0,1.8083,1.7304,1.5731,1.467,1.4681,1.6143,1.7297,1.7309,0.0,0.0,2.0227,2.0187,2.0127,1.9907,2.0334,2.0688,2.0593,2.0025,1.9747,1.9734,1.9754,1.9853,1.9926,2.0281,2.0442,1.8771,0.0,0.0,0.0,0.0,1.5653,1.6926,1.9029,1.8291,1.8557,1.9594,1.8028,0.0,0.0,0.0,0.0,0.0,0.0,1.7043,1.7775,1.943,2.0408,2.0735,2.0735,2.0474,1.9987,1.9686,1.9066,1.8097,1.7254,1.5459,1.273,0.0,0.0,0.0,0.0,1.6508,1.7595,1.8867,1.9492,1.9492,1.9492,1.931,1.877,1.7369,1.6402,1.5955,1.4671,1.3742,1.3354,1.2553,0.0,0.0,0.0,0.0,0.0,0.0,0.0,0.0,0.0,0.0,0.0,0.0,0.0,0.0,0.0,0.0,0.0,0.0,0.0,1.2547,1.294,1.3116,0.0,0.0,0.0,0.0,0.0,0.0,0.0,0.0,0.0,1.8486,1.8661,1.89,0.0,0.0,1.97,1.9239,1.9253,1.9346,1.9307,1.8864,0.0,1.8836,1.8971,1.914,1.9335,2.0117,2.0641,2.0561,2.0722,2.0828,2.0735,2.0875,2.0989,2.0982,2.0862,2.0728,2.0735,2.0735,2.1162,2.2252,2.257,2.2946,2.1414,1.8553,1.8196,1.8343,1.877,1.8442,1.9597,2.1572,2.068,2.0863,2.169,2.0253,1.9055,1.8025,1.6777,0.0,0.0,0.0,1.8339,1.9154,2.0034,2.0655,2.1082,2.0989,2.0688,2.0167,1.994,1.9559,1.9098,1.8804,1.7457,1.5123,0.0,0.0,1.5463,1.6374,1.7268,1.8195,1.8978,1.9424,1.9424,1.9424,1.9424,1.9372,1.8626,1.8068,1.7796,1.6657,1.5862,1.5612,1.4546,1.3811,0.0,0.0,0.0,0.0,0.0,0.0,0.0,0.0,0.0,0.0,0.0,1.0659,1.0106,0.0,0.0,0.0,1.2202,1.3153,1.4245,1.4617,0.0,0.0,0.0,0.0,0.0,0.0,0.0,1.6751,1.8173,1.9212,1.9499,1.9639,1.9686,1.9626,1.9773,1.978,1.9486,0.0,2.0167,2.0227,2.0173,2.0294,2.0468,2.0301,2.0241,2.0528,2.0621,2.0668,2.0681,2.0822,2.0929,2.0949,2.1036,2.1102,2.1102,2.1601,2.1853,2.1292,2.167,2.2466,2.3457,2.4116,2.4832,2.3494,2.2953,2.2418,2.2465,2.2839,2.2318,2.2559,2.3267,2.2679,2.2245,2.1951,2.1924,2.1289,2.0207,1.9673,0.0,1.9867,1.9873,2.016,2.0675,2.0675,2.0802,2.1022,2.0768,2.0488,2.0194,1.9927,1.9653,1.9417,1.9092,1.8798,1.8484,1.7929,1.7548,1.728,1.7756,1.819,1.849,1.9045,1.9403,1.9424,1.9424,1.9424,1.9424,1.9424,1.9372,1.9417,1.9105,1.8945,1.8835,1.6928,1.5677,1.5373,0.0,0.0,0.0,0.0,0.0,0.0,0.0,0.0,0.0,0.0,0.0,0.0,0.0,0.0,0.0,1.4652,0.0,1.606,1.7009,0.0,0.0,0.0,1.7455,1.7995,1.8062,1.8275,1.8898,0.0,0.0,1.98,2.0087,2.0374,2.0675,2.0675,2.0535,2.0241,2.0441,2.0636,2.0557,2.0476,2.0537,2.0929,2.093,2.0882,2.0931,2.0822,2.0635,2.0621,2.0628,2.0635,2.0944,2.1043,2.133,2.14,2.2711,2.3189,2.1742,2.2736,2.3807,2.424,2.5261,2.6288,2.4148,2.4202,2.4062,2.3708,2.3207,2.3066,2.3133,2.3267,2.2686,2.2131,2.1715,2.1423,2.0915,2.0167,2.0087,2.0187,2.0461,2.0468,2.0541,2.0675,2.0675,2.0595,2.0441,2.0374,2.0187,1.9913,1.9833,1.9653,1.9372,1.9299,1.8998,1.8504,1.8343,1.8003,1.7568,1.7856,1.8196,1.849,1.8844,1.9138,1.9417,1.9424,1.9424,1.9424,1.9424,1.9424,1.9424,1.9305,1.9152,1.8925,1.7954,1.7419,1.7334,1.4938,0.0,0.0,0.0,0.0,0.0,0.0,0.0,0.0,0.0,1.3348,1.211,0.0,1.4043,0.0,1.6023,1.7217,1.7456,1.776,0.0,0.0,1.8056,1.807,1.8651,1.8718,1.8858,1.9219,1.9519,1.9806,2.0094,2.0388,2.0675,2.0955,2.0621,2.0234,1.996,2.0347,2.1136,2.2155,2.2598,2.3122,2.3737,2.2917,2.1744,2.0611,2.0381,2.0341,2.0341,2.0341,2.0699,2.1768,2.2113,2.2586,2.3598,2.4221,2.4289,2.3964,2.4695,2.5802,2.6961,2.7563,2.817,2.5115,2.4974,2.4269,2.3614,2.2939,2.3144,2.3253,2.3073,2.2478,2.2044,2.1789,2.1296,2.0929,2.0621,2.0488,2.0521,2.0668,2.0541,2.0835,2.15,2.1493,2.1758,2.2156,2.2083,2.1972,2.1803,2.1655,2.15,2.1323,2.1183,2.0925,2.0626,2.0291,1.9913,1.9567,1.8533,1.8075,1.8297,1.8704,1.9065,1.941,1.9245,1.9172,1.9172,1.9045,1.9035,1.8978,1.8985,1.8898,1.8731,1.8242,1.7929,1.7776,1.6195,1.5537,0.0,0.0,0.0,0.0,0.0,0.0,0.0,0.0,0.0,0.0,0.0,1.5557,1.6009,1.7134,1.7916,1.8217,1.8243,1.8308,1.8651,1.8482,1.8562,1.9072,1.9118,1.9232,1.9526,1.9706,1.9907,2.0201,2.1087,2.1814,2.1983,2.2245,2.2248,2.1704,2.218,2.3066,2.3906,2.4118,2.4259,2.4981,2.4169,2.3225,2.2386,2.2105,2.2009,2.2009,2.2009,2.2304,2.3134,2.3419,2.3689,2.4561,2.5377,2.5782,2.59,2.6749,2.7557,2.7777,2.8428,2.9277,2.639,2.5794,2.4198,2.318,2.2667,2.3001,2.2999,2.278,2.2171,2.1911,2.1844,2.1336,2.1089,2.1036,2.0975,2.0957,2.0903,2.0821,2.1512,2.2705,2.2705,2.3375,2.4572,2.4335,2.4244,2.4227,2.3922,2.3822,2.3805,2.3412,2.3168,2.3094,2.2453,2.2092,2.1939,1.9652,1.834,1.8055,1.8611,1.9011,1.9299,1.9025,1.8871,1.8858,1.8624,1.8497,1.8497,1.8497,1.8497,1.8484,1.821,1.7889,1.7702,1.7101,1.6647,0.0,1.6072,0.0,0.0,0.0,0.0,0.0,0.0,0.0,0.0,1.7014,1.7134,1.7602,1.7956,1.8209,1.8524,1.8577,1.8704,1.8951,1.8985,1.9098,1.9437,1.945,1.9492,1.982,1.9991,2.0198,2.055,2.2125,2.3308,2.3422,2.4516,2.4982,2.4336,2.4571,2.5036,2.5425,2.5419,2.5442,2.5177,2.4953,2.4713,2.4589,2.4154,2.4244,2.4073,2.4081,2.4244,2.4496,2.4695,2.4953,2.511,2.6364,2.7187,2.7207,2.8277,2.882,2.8021,2.8597,2.9514,2.8144,2.8096,2.5869,2.4574,2.3942,2.2775,2.2205,2.2124,2.1849,2.1503,2.1269,2.1162,2.0982,2.0879,2.1963,2.234,2.222,2.3315,2.3883,2.3965,2.3965,2.3983,2.3972,2.3906,2.3921,2.3873,2.3855,2.3822,2.3813,2.3412,2.3037,2.2786,2.2322,2.196,2.1766,0.0,0.0,0.0,1.8517,1.8711,1.8978,1.8724,1.8571,1.8571,1.8517,0.0,1.8497,1.8497,1.8497,1.8484,1.8155,0.0,0.0,0.0,0.0,0.0,0.0,0.0,0.0,0.0,0.0,0.0,1.6856,1.6764,1.7148,1.7762,1.8096,1.7929,1.8388,1.8778,1.8838,1.9065,1.9225,1.9272,1.9279,1.9406,1.9673,1.9564,1.9559,2.008,2.097,2.1679,2.2104,2.3456,2.4365,2.4424,2.576,2.6614,2.6403,2.5536,2.5419,2.6504,2.734,2.7503,2.6486,2.606,2.5438,2.434,2.3931,2.4002,2.4058,2.4058,2.4496,2.5447,2.5831,2.6234,2.7313,2.7911,2.8033,2.8029,2.8329,2.8686,2.9061,2.9327,2.958,2.9004,2.884,2.6721,2.557,0.0,2.3496,2.2815,2.2737,2.1774,2.1744,2.2341,2.2341,2.2591,2.299,2.3607,2.3708,2.343,2.3999,2.4616,2.5168,2.516,2.5518,2.6054,2.5991,2.6045,2.6054,2.6,2.6,2.5973,2.5406,2.4966,2.4812,2.4194,2.3799,2.3642,2.3026,2.1572,1.9318,1.9271,1.9174,1.8885,1.8637,1.8497,1.849,1.835,0.0,0.0,0.0,0.0,0.0,0.0,0.0,0.0,0.0,0.0,1.7407,1.7132,1.6971,1.6927,1.7061,1.7341,1.7776,1.7949,1.7896,1.7602,1.8813,1.9236,1.8539,1.9403,1.9744,1.9246,1.9279,1.9424,1.9424,1.9424,1.9716,2.0496,2.0578,2.0881,2.1823,2.2506,2.2983,2.3163,2.4606,2.5271,2.4869,2.6599,2.7688,2.7069,2.6882,2.7118,2.7604,2.815,2.8333,2.7652,2.7337,2.6997,2.6227,2.6,2.6,2.6,2.6,2.6327,2.7051,2.7168,2.7501,2.8067,2.8301,2.8301,2.8301,2.8301,2.8398,2.8857,2.8935,2.8935,2.9785,2.9477,2.7528,2.6616,2.6288,2.4717,2.3876,2.3512,2.1853,0.0,0.0,2.3566,2.4192,2.5214,2.5269,2.5018,2.4608,2.4577,2.527,2.649,2.649,2.7105,2.8291,2.8301,2.8301,2.8301,2.8301,2.8301,2.8262,2.7441,2.7012,2.6934,2.6113,2.5684,2.5635,2.4609,2.2941,2.0849,2.0497,2.0116,1.9501,1.9285,1.9029,1.8707,1.851,1.8264,1.795,1.7943,1.7937,1.7943,1.7943,1.7838,1.7635,1.7589,1.7589,1.7589,1.7635,1.7662,1.7675,1.8205,1.8693,1.9007,1.948,1.9417,1.8639,1.9939,2.0575,1.9801,2.0854,2.1182,2.0293,2.0206,2.0155,2.0155,2.0155,2.0702,2.1813,2.1975,2.2435,2.3599,2.4014,2.422,2.4309,2.5845,2.6606,2.5807,2.7271,2.8417,2.7455,2.7905,2.842,2.8266,2.8315,2.832,2.8301,2.8247,2.8301,2.8067,2.813,2.8301,2.8301,2.8301,2.8301,2.813,2.8291,2.8237,2.8291,2.8301,2.8301,2.8301,2.8301,2.8301,2.8301,2.8301,2.834,3.1407,3.1568,2.9158,2.8104,2.7931,2.6349,2.4901,2.3512,2.1846,2.2034,2.3566,2.3566,2.4129,2.5036,2.6212,2.6436,2.5925,2.7079,2.7789,2.8014,2.8004,2.8121,2.8291,2.8301,2.8301,2.8301,2.8301,2.8301,2.8193,2.7432,2.7012,2.6914,2.6113,2.5684,2.5684,2.5538,2.4695,2.3206,2.2038,2.1528,2.1679,2.1744,2.1,1.9538,1.9805,1.9761,1.9339,1.9317,1.9324,1.9317,1.9317,1.8812,1.7687,1.7635,1.7589,1.7602,1.7776,1.7929,1.7989,1.9654,2.1355,2.2791,2.3086,2.241,2.0837,2.1145,2.1918,2.2919,2.323,2.3366,2.3207,2.3095,2.2991,2.3047,2.3159,2.3263,2.3487,2.3495,2.3663,2.3989,2.4986,2.5763,2.5891,2.7071,2.786,2.7777,2.7825,2.8237,2.8085,2.8218,2.8359,2.831,2.8301,2.8301,2.8301,2.8301,2.8301,2.8301,2.8301,2.8301,2.8301,2.8301,2.8301,2.8301,2.8301,2.8301,2.8301,2.8301,2.8301,2.8301,2.8301,2.8301,2.8301,2.8301,2.8301,3.1289,3.1357,3.0241,2.9776,2.9658,2.8,2.5871,2.3636,2.2772,2.2904,2.3628,2.4532,2.5348,2.6212,2.7767,2.8013,2.733,2.8014,2.8301,2.8301,2.8301,2.8301,2.8301,2.8301,2.8301,2.8301,2.8301,2.8301,2.8232,2.7666,2.7246,2.6973,2.6113,2.5684,2.5684,2.5684,2.5391,2.4766,2.3484,2.2553,2.21,2.2168,2.1775,2.0984,2.1202,2.1107,2.0759,2.0743,2.0735,2.0743,2.0033,1.9324,1.8708,1.7996,1.7662,1.7829,1.7969,1.8135,1.8504,2.0271,2.2089,2.3638,2.3822,2.3859,2.385,2.3936,2.398,2.3886,2.4488,2.4718,2.3933,2.3822,2.3822,2.3822,2.3822,2.4156,2.4875,2.5049,2.538,2.6109,2.6825,2.7276,2.7276,2.7897,2.7897,2.733,2.7105,2.7384,2.8174,2.8301,2.8301,2.8301,2.8301,2.8301,2.8301,2.8301,2.8301,2.8301,2.8301,2.8301,2.8301,2.8291,2.8291,2.8301,2.8291,2.8301,2.8301,2.8301,2.8301,2.8301,2.8301,2.8301,2.8301,2.8301,2.8301,3.0898,3.0898,3.0898,3.0898,3.0772,2.9098,2.678,2.417,2.3752,2.3387,2.3325,2.5138,2.6415,2.7224,2.8869,2.9101,2.8369,2.8301,2.8301,2.8301,2.8301,2.8301,2.8301,2.8301,2.8301,2.8301,2.8301,2.8301,2.8242,2.7924,2.7444,2.6865,2.6161,2.583,2.5684,2.5684,2.5684,2.5635,2.4658,2.3745,2.2963,2.3006,2.2903,2.2458,2.2533,2.2442,2.219,2.2156,2.2156,2.2106,2.11,2.0385,2.004,1.8883,1.8261,1.8441,1.8279,1.8733,1.9956,2.1613,2.3263,2.4663,2.482,2.5325,2.6381,2.6608,2.6155,2.516,2.5927,2.61,2.5215,2.4931,2.4829,2.482,2.4829,2.538,2.6381,2.6608,2.6997,2.8067,2.8301,2.8237,2.8301,2.8301,2.7897,2.6997,2.6608,2.7105,2.8067,2.8301,2.8301,2.8301,2.8301,2.8301,2.8301,2.8301,2.8301,2.8301,2.8301,2.8232,2.8184,2.8144,2.8154,2.8125,2.8125,2.8184,2.8252,2.8301,2.8301,2.8301,2.8301,2.8301,2.8301,2.8301,2.8301,3.0898,3.0898,3.0898,3.0898,3.0704,2.9157,2.7383,2.568,2.424,2.2716,2.1776,2.4586,2.6355,2.7242,2.8812,2.9046,2.832,2.8301,2.8237,2.8301,2.8301,2.8301,2.8301,2.8301,2.8301,2.8301,2.8301,2.8301,2.8271,2.7871,2.7307,2.6533,2.6357,2.6123,2.5742,2.5693,2.5693,2.5684,2.5586,2.5499,2.541,2.5766,2.5208,2.3605,2.3937,2.3937,2.3552,2.3543,2.3534,2.3534,2.3326,2.2717,2.1582,2.0471,1.9879,1.99,1.9244,2.009,2.3055,2.482,2.6182,2.7682,2.7736,2.7789,2.8004,2.8067,2.8067,2.7789,2.7906,2.7843,2.7897,2.7736,2.7565,2.7457,2.7565,2.796,2.796,2.8121,2.8174,2.8237,2.8301,2.8301,2.8301,2.8301,2.8237,2.7897,2.7843,2.7897,2.8184,2.8301,2.8301,2.8301,2.8301,2.8301,2.8301,2.8301,2.8301,2.8301,2.8281,2.8135,2.791,2.7806,2.7777,2.7725,2.7777,2.7832,2.8135,2.8291,2.8271,2.8291,2.8301,2.8301,2.8301,2.8301,2.8301,3.0898,3.0898,3.0898,3.0898,3.0772,3.0147,2.8358,2.5976,2.5314,2.3559,2.1538,2.3559,2.4988,2.5791,2.7473,2.8244,2.8257,2.7394,2.7501,2.8237,2.8301,2.8301,2.8301,2.8301,2.8301,2.8301,2.8301,2.8301,2.8223,2.7924,2.748,2.7148,2.6894,2.6553,2.6152,2.6123,2.6006,2.5693,2.5684,2.5684,2.5703,2.5908,2.5663,2.5009,2.5024,2.5053,2.4892,2.4873,2.4873,2.4815,2.4156,2.3582,2.3241,2.207,2.1621,2.1965,2.1899,2.2784,2.5032,2.5772,2.6726,2.8184,2.8301,2.8301,2.8301,2.8301,2.8301,2.8301,2.8301,2.8301,2.8301,2.8301,2.8301,2.8301,2.8301,2.8301,2.8301,2.8301,2.8301,2.8301,2.8301,2.8301,2.8301,2.8301,2.8301,2.8301,2.8301,2.8301,2.8301,2.8301,2.8301,2.8301,2.8301,2.8301,2.8281,2.8301,2.8281,2.8252,2.8076,2.7875,2.7738,2.7402,2.7275,2.7285,2.7285,2.7451,2.7885,2.793,2.7969,2.8144,2.8301,2.8301,2.8301,2.8301,2.8301,3.0898,3.0898,3.0898,3.0898,3.0898,3.0898,2.9048,2.6219,2.5976,2.4155,2.1481,2.3318,2.4393,2.4911,2.6482,2.7437,2.7577,2.6997,2.7276,2.8237,2.8301,2.8301,2.8301,2.8301,2.8301,2.8301,2.8301,2.8301,2.8262,2.8008,2.7836,2.7637,2.7353,2.6982,2.6602,2.6562,2.6348,2.5967,2.5918,2.5869,2.5869,2.5918,2.5859,2.5703,2.5684,2.5684,2.5684,2.5684,2.5684,2.5684,2.4869,2.46,2.4826,2.3747,2.326,2.3523,2.4115,2.4884,2.6036,2.649,2.7159,2.813,2.8301,2.8301,2.8301,2.8301,2.8301,2.8301,2.8301,2.8301,2.8301,2.8301,2.8301,2.8301,2.8301,2.8301,2.8301,2.8301,2.8301,2.8301,2.8301,2.8301,2.8301,2.8301,2.8301,2.8301,2.8301,2.8301,2.8301,2.8301,2.8301,2.8281,2.8213,2.8105,2.8125,2.8086,2.8105,2.791,2.7637,2.7451,2.7415,2.7002,2.6846,2.6846,2.6846,2.7021,2.7412,2.7539,2.7803,2.8135,2.8301,2.8301,2.8301,2.8301,2.8301,3.0898,3.0898,3.0898,3.0898,3.0898,3.0898,2.9098,2.6158,2.6037,2.4163,2.1846,2.4278,2.534,2.4736,2.6244,2.6756,2.65,2.7501,2.8077,2.8291,2.8301,2.8301,2.8301,2.8301,2.8301,2.8301,2.8301,2.8301,2.8281,2.8262,2.8066,2.7748,2.7708,2.7422,2.7051,2.6992,2.6777,2.6406,2.6357,2.6357,2.6367,2.6367,2.6172,2.5801,2.5713,2.5742,2.5713,2.5693,2.5703,2.5693,2.5984,2.6227,2.6214,2.5644,2.4851,2.4183,2.5252,2.6045,2.6318,2.7394,2.8174,2.8291,2.8301,2.8301,2.8301,2.8301,2.8301,2.8301,2.8301,2.8301,2.8301,2.8301,2.8301,2.8301,2.8301,2.8301,2.8301,2.8301,2.8301,2.8301,2.8301,2.8301,2.8301,2.8301,2.8301,2.8301,2.8301,2.8301,2.8301,2.8301,2.8301,2.8223,2.8008,2.7748,2.7738,2.7685,2.751,2.7344,2.7217,2.6963,2.665,2.6416,2.6416,2.6416,2.6416,2.6592,2.6982,2.7383,2.7793,2.8096,2.8262,2.8301,2.8301,2.8301,2.8301,3.0898,3.0898,3.0898,3.0898,3.0898,3.0898,2.9589,2.7512,2.647,2.4763,2.2952,2.2882,2.3009,2.3402,2.4911,2.6287,2.7377,2.7105,2.7394,2.8184,2.8301,2.8301,2.8301,2.8301,2.8301,2.8301,2.8301,2.8301,2.8301,2.8301,2.8223,2.8096,2.8066,2.7861,2.7562,2.7432,2.7226,2.6836,2.6787,2.6787,2.6787,2.6787,2.6699,2.6572,2.6502,2.6426,2.6162,2.6406,2.6435,2.6162,2.6553,2.6914,2.7217,2.7252,2.7116,2.6806,2.7222,2.7501,2.7555,2.795,2.8301,2.8301,2.8301,2.8301,2.8301,2.8301,2.8301,2.8301,2.8301,2.8301,2.8301,2.8301,2.8301,2.8301,2.8301,2.8301,2.8301,2.8301,2.8301,2.8301,2.8301,2.8301,2.8301,2.8301,2.8301,2.8301,2.8301,2.8301,2.8301,2.8301,2.8291,2.8223,2.7939,2.762,2.7256,2.7246,2.7158,2.7012,2.6855,2.666,2.6387,2.6113,2.6055,2.6064,2.6035,2.626,2.6689,2.7178,2.7627,2.8076,2.8232,2.8203,2.8301,2.8262,2.8271,3.0089,3.0089,3.0079,3.0089,3.0147,3.0704,2.9952,2.8358,2.7254,2.5863,2.4401,2.357,2.3574,2.4148,2.5432,2.6751,2.8116,2.7276,2.734,2.8237,2.8301,2.8301,2.8301,2.8301,2.8301,2.8301,2.8301,2.8301,2.8301,2.8301,2.8301,2.8291,2.8301,2.8154,2.791,2.7871,2.7656,2.7305,2.7226,2.7217,2.7226,2.7226,2.7295,2.7402,2.7432,2.7158,2.6641,2.6875,2.6894,2.6689,2.6992,2.7422,2.7904,2.8144,2.8301,2.8301,2.8291,2.8301,2.8301,2.8301,2.8301,2.8301,2.8301,2.8301,2.8301,2.8301,2.8301,2.8301,2.8301,2.8301,2.8301,2.8301,2.8301,2.8301,2.8301,2.8301,2.8301,2.8301,2.8301,2.8301,2.8301,2.8301,2.8301,2.8301,2.8301,2.8301,2.8301,2.8301,2.8301,2.8291,2.8213,2.8076,2.7705,2.7275,2.6885,2.668,2.6572,2.6426,2.6445,2.6279,2.6182,2.584,2.5703,2.5693,2.5801,2.6074,2.6445,2.6943,2.7432,2.7939,2.8037,2.7969,2.8086,2.8213,2.8232,2.8417,2.8417,2.8426,2.8358,2.8605,3.002,2.9844,2.8477,2.817,2.7056,2.5756,2.6636,2.6108,2.6848,2.725,2.8301,2.8072,2.8004,2.813,2.8301,2.8301,2.8301,2.8301,2.8301,2.8301,2.8301,2.8301,2.8301,2.8301,2.8301,2.8301,2.8301,2.8301,2.8271,2.8271,2.8223,2.8057,2.7754,2.7718,2.7718,2.7728,2.7718,2.7832,2.8164,2.8193,2.7832,2.709,2.708,2.71,2.708,2.7441,2.7861,2.8174,2.8281,2.8301,2.8301,2.8301,2.8301,2.8301,2.8301,2.8301,2.8301,2.8301,2.8301,2.8301,2.8301,2.8301,2.8301,2.8301,2.8301,2.8301,2.8301,2.8301,2.8301,2.8301,2.8301,2.8301,2.8301,2.8301,2.8301,2.8301,2.8301,2.8301,2.8301,2.8301,2.8301,2.8301,2.8301,2.8301,2.8301,2.8115,2.7754,2.7402,2.7031,2.6533,2.6074,2.5908,2.5742,2.582,2.5859,2.5898,2.5693,2.5693,2.5684,2.5684,2.5957,2.6396,2.6846,2.7012,2.7402,2.751,2.7787,2.7871,2.7998,2.8184,2.7743,2.6772,2.6772,2.6772,2.6953,2.8477,2.8842,2.8298,2.7254,2.6318,2.5501,2.371,2.317,2.3921,2.5082,2.6147,2.6844,2.778,2.8301,2.8257,2.8247,2.8301,2.8301,2.8301,2.8301,2.8301,2.8301,2.8301,2.8301,2.8301,2.8301,2.8301,2.8301,2.8301,2.8301,2.8291,2.8203,2.8125,2.8149,2.8096,2.8096,2.8105,2.8174,2.8271,2.8291,2.8135,2.792,2.7891,2.7754,2.748,2.7861,2.8154,2.8271,2.8301,2.8301,2.8301,2.8301,2.8301,2.8301,2.8301,2.8301,2.8301,2.8301,2.8301,2.8301,2.8301,2.8301,2.8301,2.8301,2.8301,2.8301,2.8301,2.8301,2.8301,2.8301,2.8301,2.8301,2.8301,2.8301,2.8301,2.8301,2.8301,2.8301,2.8301,2.8301,2.8301,2.8301,2.8301,2.8301,2.8301,2.8135,2.7787,2.7295,2.6826,2.6348,2.5996,2.5771,2.5684,2.5684,2.5684,2.5684,2.5684,2.5684,2.5752,2.5742,2.6025,2.6445,2.6689,2.6885,2.7031,2.7266,2.7461,2.7637,2.7851,2.8096,2.6893,2.5976,2.5375,2.513,2.5314,2.6832,2.7503,2.7383,2.6461,2.5913,2.5233,2.3468,2.2661,2.3344,2.4111,2.484,2.5651,2.6598,2.6949,2.7151,2.8047,2.8247,2.8301,2.8301,2.8301,2.8301,2.8301,2.8301,2.8301,2.8301,2.8301,2.8301,2.8301,2.8301,2.8301,2.8301,2.8301,2.8301,2.8291,2.8291,2.8291,2.8301,2.8301,2.8301,2.8301,2.8301,2.8301,2.8291,2.8164,2.8041,2.8164,2.8291,2.8301,2.8301,2.8301,2.8301,2.8301,2.8301,2.8301,2.8301,2.8301,2.8301,2.8301,2.8301,2.8301,2.8301,2.8301,2.8301,2.8301,2.8301,2.8301,2.8301,2.8301,2.8301,2.8301,2.8301,2.8301,2.8301,2.8301,2.8301,2.8301,2.8301,2.8301,2.8301,2.8301,2.8301,2.8301,2.8301,2.8301,2.8301,2.7998,2.7646,2.7217,2.6719,2.6211,2.5947,2.5713,2.5684,2.5684,2.5684,2.5684,2.5693,2.5703,2.6006,2.6074,2.6475,2.6885,2.6797,2.6885,2.6992,2.7168,2.7432,2.7757,2.7963,2.8135,2.5976,2.568,2.4108,2.345,2.369,2.52,2.5863,2.5855,2.5802,2.5639,2.5473,2.4542,2.4436,2.4698,2.4258,2.4355,2.4645,2.4928,2.5308,2.5851,2.7114,2.8168,2.8257,2.8301,2.8301,2.8301,2.8301,2.8301,2.8301,2.8301,2.8301,2.8301,2.8301,2.8301,2.8301,2.8301,2.8301,2.8301,2.8301,2.8301,2.8301,2.8301,2.8301,2.8301,2.8301,2.8301,2.8301,2.8291,2.8291,2.8291,2.8271,2.8301,2.8301,2.8301,2.8301,2.8301,2.8301,2.8301,2.8301,2.8014,2.796,2.795,2.795,2.8174,2.795,2.7897,2.7897,2.7906,2.7726,2.7843,2.7897,2.8014,2.8067,2.8291,2.8301,2.8301,2.8301,2.8301,2.8301,2.8301,2.8301,2.8301,2.8301,2.8301,2.8301,2.8301,2.8301,2.8301,2.8301,2.8203,2.7871,2.7549,2.7246,2.6914,2.6504,2.6367,2.6161,2.6161,2.6093,2.5996,2.5937,2.5927,2.6055,2.6289,2.6475,2.6894,2.707,2.6953,2.6992,2.7178,2.7383,2.764,2.7796,2.7963,2.8149,2.5322,2.4047,2.2459,2.1727,2.1971,2.3566,2.424,2.424,2.4232,2.4101,2.365,2.2454,2.2004,2.1715,2.2714,2.3055,2.3322,2.4183,2.5435,2.6399,2.7008,2.7768,2.8174,2.8301,2.831,2.832,2.834,2.8301,2.8301,2.8301,2.8301,2.8301,2.8301,2.8301,2.8301,2.8301,2.8301,2.8301,2.8301,2.8301,2.8301,2.8301,2.8301,2.8301,2.8301,2.8301,2.8301,2.8301,2.8301,2.8301,2.8301,2.8301,2.8301,2.8301,2.8301,2.8301,2.8301,2.8301,2.813,2.733,2.6762,2.6662,2.6717,2.6662,2.6662,2.6662,2.6662,2.649,2.5763,2.5599,2.6436,2.6717,2.7114,2.8067,2.8184,2.8184,2.8291,2.8301,2.8301,2.8301,2.8301,2.8301,2.8301,2.8301,2.8301,2.8301,2.8301,2.8301,2.8301,2.8271,2.8027,2.7773,2.748,2.7197,2.6934,2.6807,2.6738,2.6768,2.6699,2.6582,2.6523,2.6494,2.6641,2.6836,2.6846,2.7158,2.7119,2.7021,2.7187,2.7461,2.7402,2.7519,2.7689,2.7793,2.8061,2.6053,2.4479,2.2834,2.1727,2.1235,2.2153,2.2529,2.2529,2.2522,2.2429,2.2031,2.1341,2.0762,2.067,2.1504,2.1925,2.2108,2.3527,2.4667,2.5645,2.6807,2.7901,2.8626,2.8828,2.874,2.8555,2.8555,2.8457,2.833,2.8301,2.8301,2.8301,2.8301,2.8301,2.8301,2.8301,2.8301,2.8301,2.8301,2.8301,2.8301,2.8301,2.8301,2.8301,2.8301,2.8301,2.8237,2.7736,2.7618,2.813,2.8301,2.8301,2.8301,2.8301,2.8301,2.8301,2.8301,2.8301,2.8014,2.6943,2.6145,2.5927,2.559,2.5544,2.5763,2.5599,2.5316,2.6825,2.5553,2.538,2.5709,2.5544,2.6218,2.7789,2.7789,2.7682,2.8184,2.8291,2.8301,2.8301,2.8301,2.8301,2.8301,2.8301,2.8301,2.8301,2.8301,2.8301,2.8291,2.8271,2.8184,2.79,2.7738,2.7422,2.7178,2.7031,2.7031,2.71,2.7236,2.7119,2.7002,2.6973,2.709,2.7207,2.7256,2.7314,2.7373,2.7461,2.7676,2.7783,2.7568,2.7578,2.7793,2.7842,2.8037,2.7443,2.5855,2.4232,2.2654,2.1229,2.1102,2.1292,2.1172,2.1229,2.1222,2.1202,2.1096,2.1042,2.1102,2.1177,2.1132,2.1258,2.2974,2.3986,2.5343,2.7018,2.8859,2.9624,2.9528,2.9277,2.9023,2.8984,2.8809,2.8643,2.8516,2.8467,2.8516,2.8476,2.8379,2.8398,2.835,2.8301,2.8301,2.8301,2.8301,2.8301,2.8301,2.8301,2.8301,2.8301,2.8067,2.7726,2.7168,2.7025,2.8091,2.8213,2.8301,2.8301,2.8301,2.8301,2.8301,2.8301,2.8301,2.8067,2.6943,2.5927,2.5608,2.4531,2.4381,2.5218,2.4619,2.4734,2.7049,2.6409,2.5266,2.5774,2.4992,2.6161,2.7959,2.7375,2.7309,2.7964,2.832,2.8301,2.8301,2.8301,2.8301,2.8301,2.8301,2.8301,2.8301,2.8301,2.8301,2.8301,2.8291,2.8164,2.7939,2.7764,2.7637,2.7422,2.7236,2.7295,2.7373,2.7627,2.7627,2.7441,2.7412,2.748,2.7559,2.7666,2.7832,2.7998,2.8125,2.8174,2.8144,2.7949,2.8076,2.8252,2.8144,2.8223,2.7443,2.5863,2.4294,2.2654,2.1229,2.1102,2.1102,2.1102,2.1102,2.1102,2.1102,2.1102,2.1102,2.1102,2.1102,2.1102,2.1475,2.3139,2.4786,2.7554,2.9288,3.0228,3.043,2.9971,2.9551,2.9434,2.9434,2.9365,2.9268,2.9189,2.9333,2.9219,2.8916,2.8789,2.875,2.8525,2.8301,2.8301,2.832,2.8369,2.8369,2.835,2.834,2.833,2.8286,2.7647,2.7051,2.7394,2.7564,2.7397,2.7848,2.8398,2.8398,2.8369,2.8389,2.8389,2.8359,2.834,2.8033,2.6963,2.5562,2.4757,2.4353,2.4373,2.4616,2.3652,2.3821,2.473,2.3228,2.31,2.4926,2.7182,2.7996,2.8598,2.8728,2.8576,2.8709,2.8506,2.8359,2.8301,2.8301,2.8301,2.8301,2.8301,2.8301,2.8301,2.8301,2.8301,2.8301,2.8301,2.8184,2.8027,2.7998,2.791,2.7851,2.7685,2.7685,2.7705,2.79,2.8027,2.7842,2.7812,2.7871,2.7988,2.8125,2.8271,2.8291,2.8291,2.8242,2.8271,2.8301,2.8301,2.8301,2.8301,2.8301,2.7443,2.5863,2.4301,2.2654,2.1229,2.1102,2.1102,2.1102,2.1102,2.1102,2.1102,2.1102,2.1102,2.1102,2.1102,2.1411,2.2764,2.484,2.7151,2.9285,3.0518,3.083,3.085,3.0449,3.0107,2.9912,2.9863,2.9775,2.9629,2.96,2.9587,2.9626,2.9336,2.9238,2.9219,2.8984,2.8935,2.8926,2.8887,2.8896,2.8887,2.8682,2.8584,2.8426,2.8195,2.7631,2.7935,2.7705,2.7938,2.8133,2.8555,2.8887,2.8896,2.8887,2.8887,2.8887,2.8896,2.8896,2.8549,2.6948,2.554,2.5393,2.4417,2.4186,2.4127,2.3442,2.3386,2.3924,2.3091,2.2401,2.4553,2.5996,2.7587,2.8342,2.8531,2.8652,2.8988,2.8848,2.8486,2.8369,2.8301,2.8301,2.8301,2.8121,2.8291,2.8237,2.8291,2.8301,2.8301,2.8301,2.8301,2.8223,2.8242,2.8242,2.8232,2.8184,2.8135,2.8115,2.8135,2.8203,2.8125,2.8164,2.8242,2.8281,2.8262,2.8271,2.8301,2.8301,2.8301,2.8301,2.8301,2.8301,2.8301,2.8301,2.8301,2.7683,2.5924,2.454,2.2897,2.1229,2.1102,2.1102,2.1102,2.1102,2.1102,2.1102,2.1102,2.1102,2.1166,2.1538,2.2529,2.4655,2.672,2.8979,3.0518,3.0772,3.0898,3.0859,3.0771,3.0615,3.0322,3.0303,3.0127,2.9922,2.9775,2.9941,2.9861,2.9744,2.9668,2.9658,2.9626,2.9463,2.9434,2.9424,2.9443,2.9443,2.917,2.9033,2.8852,2.8461,2.8155,2.8389,2.8014,2.7691,2.8889,2.8964,2.9002,2.9144,2.9534,2.957,2.9531,2.9463,2.9434,2.9116,2.7486,2.6404,2.7245,2.5286,2.4357,2.4893,2.4174,2.4134,2.4459,2.4229,2.3411,2.4437,2.5871,2.6554,2.7182,2.7501,2.8028,2.8794,2.8797,2.802,2.7946,2.7243,2.6789,2.7394,2.7618,2.795,2.8228,2.8291,2.8301,2.8301,2.8301,2.8301,2.8301,2.8301,2.8301,2.8301,2.8301,2.8301,2.8301,2.8301,2.8301,2.8301,2.8301,2.8301,2.8301,2.8291,2.8301,2.8301,2.8301,2.8301,2.8301,2.8301,2.8301,2.8301,2.8301,2.8252,2.8733,2.5976,2.5741,2.3854,2.1348,2.1102,2.1102,2.1102,2.1102,2.1102,2.1102,2.1102,2.1102,2.1481,2.2647,2.4725,2.6841,2.8367,2.9344,3.0577,3.083,3.0889,3.0645,3.083,3.082,3.081,3.0742,3.0644,3.0615,3.0664,3.0518,3.0537,3.0273,3.0107,3.0,2.9785,2.9697,2.9802,2.9726,2.9717,2.9678,2.9609,2.9371,2.9325,2.9058,2.887,2.7954,2.747,2.6863,2.6318,2.6117,2.6338,2.7108,2.8536,2.9416,2.9509,2.9707,2.9746,2.9482,2.9114,2.8135,2.7603,2.6673,2.6722,2.6556,2.5177,2.4879,2.5901,2.578,2.4862,2.3948,2.5884,2.7514,2.8065,2.8061,2.8088,2.7853,2.6973,2.6327,2.6515,2.5722,2.5432,2.6427,2.7298,2.7789,2.8121,2.8291,2.8301,2.8301,2.8301,2.8301,2.8301,2.8301,2.8301,2.8301,2.8301,2.8301,2.8301,2.8301,2.8301,2.8301,2.8301,2.8301,2.8301,2.8301,2.8301,2.8301,2.8301,2.8301,2.8301,2.8301,2.8301,2.8271,2.8232,2.8027,2.8179,2.5984,2.5138,2.3373,2.1355,2.1102,2.1102,2.1102,2.1102,2.1102,2.1102,2.1102,2.1601,2.2404,2.3146,2.5391,2.7811,2.9403,2.9658,2.9903,3.0401,3.0333,3.002,3.045,3.083,3.0889,3.0889,3.0898,3.0889,3.0869,3.0898,3.084,3.0644,3.0557,3.0527,3.0391,3.0234,3.0291,3.0225,3.0225,3.0225,3.0225,2.9852,2.9108,2.9708,2.9834,2.9249,2.8091,2.7637,2.707,2.6201,2.588,2.6413,2.7561,2.8961,2.901,2.9728,3.0234,2.9996,2.9642,2.8892,2.9085,2.7921,2.6977,2.6713,2.5808,2.5444,2.5391,2.5452,2.4108,2.2563,2.5993,2.7202,2.6599,2.7211,2.7663,2.6824,2.5212,2.4911,2.5186,2.5543,2.5772,2.6297,2.7066,2.7622,2.796,2.8257,2.832,2.834,2.8301,2.8301,2.8301,2.8301,2.8301,2.8301,2.8301,2.8301,2.8301,2.8301,2.8301,2.8301,2.8301,2.8301,2.8301,2.8301,2.8301,2.8301,2.8301,2.8301,2.8301,2.8301,2.8281,2.8232,2.8125,2.79,2.7751,2.5863,2.4655,2.2952,2.1229,2.1102,2.1102,2.1166,2.1544,2.1475,2.1166,2.1481,2.2153,2.2959,2.369,2.5208,2.7931,2.9216,2.9039,2.897,2.9648,2.9648,2.9658,3.003,3.0898,3.0898,3.0898,3.0898,3.0898,3.0898,3.0898,3.0879,3.0889,3.0889,3.084,3.0762,3.0889,3.0898,3.0898,3.083,3.045,3.0314,2.9702,2.8305,2.98,3.0665,2.9867,2.8377,2.7416,2.6609,2.5647,2.4877,2.5253,2.653,2.7383,2.7811,2.9599,3.0645,3.0548,2.9905,2.9702,3.0315,2.8075,2.7065,2.7185,2.7297,2.6305,2.4301,2.4116,2.338,2.2334,2.4893,2.5688,2.5093,2.5818,2.6884,2.5416,2.4154,2.3382,2.399,2.5227,2.5908,2.6118,2.7048,2.7677,2.8449,2.875,2.8574,2.8555,2.833,2.8301,2.8301,2.8301,2.8301,2.8301,2.8301,2.8301,2.8301,2.8301,2.8301,2.8301,2.8301,2.8291,2.8271,2.8301,2.8301,2.8301,2.8281,2.8301,2.8301,2.8301,2.8213,2.8047,2.7861,2.7689,2.8801,2.5976,2.5733,2.3915,2.1292,2.1102,2.1102,2.1299,2.2466,2.2404,2.1172,2.2411,2.2404,2.2278,2.3263,2.4717,2.6045,2.7013,2.7683,2.811,2.8852,2.9658,3.0274,3.0704,3.0889,3.0898,3.0898,3.0898,3.0898,3.0898,3.0898,3.0898,3.0898,3.0898,3.0898,3.0898,3.0898,3.0898,3.0889,3.0147,2.8911,2.8733,2.8432,2.8728,2.9493,3.0089,2.8852,2.7323,2.5871,2.4417,2.2757,2.1839,2.1964,2.3256,2.4,2.546,2.7898,3.0889,3.0518,3.0147,3.002,3.0265,2.8852,2.9039,2.8733,2.8554,2.7099,2.4,2.454,2.3923,2.1971,2.3139,2.369,2.3876,2.4186,2.4479,2.3653,2.3808,2.2977,2.3764,2.5357,2.5419,2.5477,2.6677,2.7807,2.8592,2.9141,2.89,2.8818,2.8662,2.8564,2.8623,2.8496,2.8467,2.8389,2.8379,2.831,2.8301,2.8301,2.8301,2.8301,2.8291,2.8242,2.8242,2.8242,2.8144,2.8018,2.8047,2.8213,2.8184,2.8047,2.791,2.7826,2.762,2.7337,2.678,2.4663,2.4663,2.3318,2.1229,2.1102,2.1102,2.1229,2.1846,2.179,2.1299,2.179,2.2223,2.2584,2.4232,2.5314,2.6106,2.6772,2.7073,2.7692,2.8673,2.9658,2.9648,3.0392,3.0898,3.0898,3.0898,3.0898,3.0898,3.0908,3.0898,3.0898,3.0898,3.0898,3.0908,3.0898,3.0898,3.0645,2.9962,2.8673,2.7503,2.7082,2.7022,2.7073,2.782,2.8128,2.7811,2.5871,2.4479,2.3325,2.1971,2.1102,2.1475,2.2584,2.3628,2.3876,2.6305,2.794,2.8119,2.8979,2.9471,2.9462,2.8783,2.8298,2.8,2.6608,2.5696,2.3884,2.3248,2.2514,2.1846,2.2716,2.2654,2.2772,2.2959,2.2897,2.2827,2.3076,2.3219,2.4339,2.5246,2.5417,2.5805,2.6969,2.7971,2.8389,2.8727,2.8528,2.8805,2.9219,2.915,2.9121,2.8916,2.8701,2.8584,2.8506,2.8359,2.832,2.8301,2.8301,2.8301,2.8281,2.8174,2.8027,2.792,2.7822,2.7715,2.7754,2.7871,2.7812,2.7734,2.7539,2.7334,2.6982,2.668,2.4471,2.3021,2.3395,2.2654,2.1109,2.1102,2.1102,2.1109,2.1664,2.1538,2.1166,2.1166,2.1908,2.2889,2.3923,2.434,2.4701,2.647,2.6712,2.7202,2.8486,2.9589,2.9835,3.046,3.0898,3.0898,3.0898,3.0976,3.1064,3.1055,3.1035,3.0908,3.0898,3.0898,3.0928,3.1025,3.1103,3.0986,2.913,2.7557,2.6427,2.5826,2.5609,2.5675,2.5925,2.6432,2.6677,2.5208,2.369,2.2591,2.1853,2.1102,2.1355,2.2034,2.2709,2.2959,2.4294,2.4709,2.5619,2.6772,2.8051,2.8417,2.8179,2.7623,2.5566,2.3124,2.2271,2.3636,2.2897,2.2027,2.1475,2.2278,2.2097,2.2034,2.216,2.2034,2.209,2.2772,2.369,2.4869,2.5753,2.6133,2.6653,2.7562,2.818,2.8327,2.8292,2.8246,2.8719,2.9451,2.9541,2.9509,2.9297,2.9072,2.8984,2.8809,2.8594,2.8369,2.834,2.8203,2.8154,2.8076,2.7969,2.7812,2.7738,2.7656,2.7656,2.7578,2.75,2.7441,2.7344,2.71,2.6836,2.6494,2.6221,2.2764,2.1418,2.2959,2.2591,2.1102,2.1102,2.1102,2.1235,2.2647,2.2285,2.1166,2.1102,2.1229,2.1538,2.2034,2.2215,2.1783,2.3201,2.5077,2.653,2.7751,2.9499,3.0205,3.0772,3.0986,3.0957,3.1064,3.1269,3.1396,3.1475,3.125,3.0967,3.1123,3.0986,3.1074,3.1357,3.1465,3.0976,2.9088,2.7334,2.627,2.5376,2.4573,2.4621,2.5344,2.566,2.4162,2.3656,2.295,2.178,2.1373,2.1223,2.1383,2.1577,2.1823,2.1998,2.2124,2.2433,2.3097,2.557,2.7871,2.8298,2.7907,2.671,2.4486,2.52,2.484,2.345,2.2647,2.2215,2.1538,2.1172,2.1418,2.1475,2.1664,2.1915,2.2215,2.3076,2.4054,2.5383,2.5984,2.6106,2.5741,2.6303,2.755,2.784,2.8941,2.8896,2.8994,2.9524,2.9719,2.9753,2.9619,2.9512,2.9473,2.9228,2.8809,2.8555,2.8467,2.8174,2.79,2.7832,2.7949,2.7806,2.7728,2.7679,2.7549,2.7393,2.7246,2.7109,2.6963,2.6787,2.6543,2.624,2.6016,2.2654,2.1172,2.179,2.1727,2.1102,2.1102,2.1102,2.1172,2.179,2.179,2.1109,2.1102,2.1102,2.1292,2.2285,2.2654,2.3014,2.5513,2.6555,2.7848,2.9361,3.0417,3.1133,3.121,3.1572,3.1327,3.1444,3.1719,3.1894,3.1914,3.1855,3.1709,3.168,3.1689,3.1777,3.1787,3.1885,3.1309,2.9774,2.823,2.6651,2.538,2.4414,2.4374,2.34,2.4107,2.3883,2.3043,2.2348,2.1784,2.1527,2.1483,2.1537,2.1456,2.1463,2.157,2.1583,2.159,2.1832,2.4126,2.5757,2.6589,2.6158,2.5084,2.3491,2.3464,2.2889,2.2153,2.2174,2.1768,2.1411,2.1102,2.1166,2.1102,2.1292,2.1601,2.2341,2.3139,2.369,2.4717,2.5322,2.5619,2.5077,2.457,2.6012,2.7322,2.856,2.959,2.9623,2.9795,3.0042,3.0154,3.0029,2.9971,2.9932,2.9492,2.8975,2.8779,2.8613,2.8213,2.791,2.8066,2.8115,2.7881,2.7689,2.7568,2.7412,2.7168,2.7051,2.7031,2.6826,2.6562,2.6289,2.6035,2.5889,2.3135,2.13,2.1243,2.1236,2.1243,2.1249,2.1296,2.1363,2.1454,2.1303,2.1236,2.1162,2.1102,2.1481,2.216,2.2803,2.3341,2.5214,2.6555,2.7626,2.8604,2.9828,3.0195,3.0577,3.0907,3.1124,3.1842,3.2168,3.2344,3.2415,3.2432,3.251,3.2519,3.2441,3.2148,3.2305,3.216,3.1394,3.062,2.9457,2.7925,2.6027,2.4827,2.4399,2.3271,2.2728,2.3102,2.2604,2.2173,2.1936,2.1876,2.1797,2.183,2.1844,2.1882,2.1911,2.1991,2.1997,2.2315,2.325,2.4289,2.532,2.4999,2.4052,2.2991,2.2045,2.1872,2.1517,2.1377,2.1209,2.1156,2.1102,2.1102,2.1102,2.1102,2.1411,2.2404,2.3208,2.345,2.3931,2.4355,2.4663,2.4348,2.3923,2.5566,2.6651,2.7151,2.8674,3.0092,3.0267,3.0616,3.0605,3.0527,3.0459,3.0371,2.9766,2.9219,2.9053,2.8799,2.8291,2.8076,2.8193,2.8125,2.7875,2.766,2.75,2.7432,2.7363,2.7207,2.699,2.6855,2.6699,2.6387,2.6172,2.5957,2.4284,2.1723,2.1659,2.1666,2.1635,2.1608,2.1748,2.1857,2.1884,2.1764,2.1523,2.1296,2.1182,2.1316,2.1815,2.2243,2.2766,2.4052,2.5029,2.5929,2.7252,2.7357,2.7995,2.8932,3.0091,3.0078,3.1295,3.2507,3.2329,3.2721,3.2916,3.3039,3.2927,3.2743,3.2295,3.2588,3.1927,3.0619,3.0656,3.0483,2.9081,2.6869,2.5842,2.4296,2.3269,2.2579,2.2537,2.2489,2.2178,2.2138,2.2051,2.2038,2.2091,2.2038,2.2024,2.2078,2.2071,2.2051,2.2136,2.3508,2.4163,2.4275,2.386,2.3494,2.2501,2.1891,2.1737,2.1541,2.1574,2.1376,2.1243,2.1149,2.1196,2.1182,2.1203,2.146,2.2427,2.2869,2.3039,2.3015,2.3149,2.334,2.3256,2.3613,2.5261,2.6167,2.6106,2.7452,2.9844,3.0645,3.0889,3.0859,3.0762,3.0732,3.0527,2.9941,2.9492,2.9372,2.8955,2.8389,2.8057,2.8027,2.791,2.7777,2.7796,2.7773,2.7777,2.7718,2.7559,2.7441,2.7187,2.6963,2.6621,2.6377,2.625,2.5892,2.3177,2.3184,2.279,2.2137,2.1917,2.1904,2.1977,2.1977,2.1924,2.1844,2.171,2.169,2.1943,2.2678,2.3114,2.3587,2.5142,2.6033,2.6096,2.6761,2.7,2.7599,2.8783,2.9487,2.9425,3.0871,3.1615,2.9625,3.1865,3.2248,3.2145,3.2883,3.2558,3.2052,3.2191,3.2346,3.1175,3.1487,3.1496,2.9116,2.7694,2.6119,2.4019,2.3086,2.2693,2.2519,2.2492,2.2492,2.2465,2.2385,2.2345,2.2425,2.2405,2.2358,2.2485,2.2552,2.2565,2.2633,2.3192,2.314,2.312,2.3071,2.29,2.2104,2.1991,2.1817,2.1775,2.1777,2.1583,2.1243,2.155,2.1643,2.1523,2.1543,2.1755,2.2264,2.2315,2.236,2.2167,2.2157,2.3056,2.3359,2.4502,2.6083,2.7649,2.8,2.8554,3.0518,3.0772,3.0898,3.0898,3.0859,3.0869,3.0664,3.0,2.956,2.9346,2.8926,2.8389,2.8135,2.8018,2.8037,2.8027,2.8057,2.8076,2.8008,2.7969,2.8008,2.79,2.7617,2.7402,2.7168,2.6953,2.6787,2.5459,2.3407,2.3393,2.3161,2.2552,2.2258,2.2184,2.2251,2.2191,2.2138,2.2111,2.2038,2.1971,2.2286,2.3007,2.3687,2.3854,2.471,2.6139,2.6171,2.5866,2.644,2.7669,2.8978,2.9353,2.9482,3.113,3.2091,3.0753,3.2419,3.2746,3.2483,3.2692,3.2263,3.1716,3.1652,3.1469,3.0606,3.078,3.0909,2.9057,2.7701,2.6706,2.4634,2.3379,2.2832,2.2853,2.2866,2.2859,2.2799,2.2732,2.2652,2.2732,2.2732,2.2672,2.2812,2.2859,2.2846,2.2894,2.2887,2.2869,2.2606,2.2498,2.2472,2.2331,2.2358,2.2171,2.2064,2.2058,2.1824,2.1597,2.1951,2.1917,2.179,2.1903,2.205,2.2057,2.2168,2.2134,2.1887,2.2032,2.2865,2.4096,2.5662,2.7184,2.8672,3.0089,3.0509,3.0811,3.0889,3.0859,3.083,3.0791,3.0742,3.0488,2.998,2.96,2.9375,2.8887,2.833,2.8281,2.8174,2.8252,2.8291,2.8232,2.8203,2.8252,2.8252,2.8193,2.8144,2.8018,2.7842,2.7705,2.749,2.7256,2.3364,2.2209,2.2358,2.2694,2.2772,2.2539,2.2585,2.2881,2.2545,2.2432,2.2412,2.2171,2.2124,2.2071,2.2183,2.2404,2.2653,2.2821,2.4071,2.4885,2.4742,2.5939,2.7398,2.8639,2.9219,3.0689,3.21,3.2829,3.2902,3.2237,3.2292,3.2692,3.2565,3.1963,3.1295,3.0513,2.9995,2.954,2.9735,2.967,2.8435,2.7834,2.6706,2.4986,2.3795,2.3065,2.2866,2.2866,2.2866,2.2853,2.2846,2.2846,2.2859,2.2859,2.2866,2.2866,2.2866,2.2866,2.2866,2.2866,2.2853,2.2699,2.2779,2.2832,2.2861,2.2686,2.2498,2.2378,2.2352,2.2178,2.2058,2.2078,2.2098,2.2071,2.2071,2.2111,2.2118,2.2164,2.215,2.2129,2.2325,2.3235,2.4952,2.6529,2.7408,2.8166,2.9257,2.9721,3.0111,3.0811,3.0762,3.0693,3.0644,3.0557,3.0215,2.9726,2.9453,2.916,2.875,2.8301,2.8301,2.8301,2.8301,2.8301,2.8301,2.8301,2.8301,2.8301,2.8281,2.8232,2.8184,2.8096,2.791,2.7842,2.7627,2.4924,2.3804,2.4049,2.3711,2.2963,2.2772,2.2854,2.2839,2.2766,2.2732,2.2732,2.2652,2.2619,2.2605,2.2686,2.2652,2.2692,2.3005,2.4029,2.4566,2.5121,2.6439,2.7892,2.9344,2.954,3.0263,3.1442,3.2365,3.0328,3.0004,3.0004,2.9678,3.1313,3.1102,3.0578,2.9605,2.8821,2.8435,2.8821,2.8295,2.7701,2.6972,2.6046,2.4986,2.3727,2.2996,2.2866,2.2866,2.2866,2.2866,2.2866,2.2866,2.2866,2.2866,2.2866,2.2866,2.2866,2.2866,2.2866,2.2866,2.2866,2.2866,2.2866,2.2866,2.2859,2.2826,2.2726,2.2619,2.2592,2.2458,2.2338,2.2325,2.2338,2.2345,2.2378,2.2445,2.2445,2.2438,2.2479,2.2485,2.2677,2.3681,2.5486,2.6466,2.7244,2.7661,2.8212,2.8869,2.95,3.0247,3.0548,3.0459,3.0351,3.0215,2.9844,2.9375,2.916,2.8906,2.8545,2.8301,2.8301,2.8301,2.8301,2.8301,2.8301,2.8301,2.8301,2.8301,2.8301,2.8301,2.8252,2.8203,2.8135,2.8047,2.8008,2.4215,2.3572,2.3935,2.3628,2.2976,2.2866,2.2866,2.2866,2.2866,2.2866,2.2866,2.2846,2.2866,2.2839,2.2832,2.2908,2.2976,2.3828,2.5046,2.6365,2.6581,2.8418,2.9865,3.0522,3.0651,3.1111,3.1707,3.2629,3.0263,2.9344,2.9409,2.9605,3.0513,3.0642,3.0384,2.9344,2.8427,2.7908,2.7577,2.6847,2.618,2.5711,2.5315,2.452,2.3324,2.3065,2.2866,2.2866,2.2866,2.2866,2.2866,2.2866,2.2866,2.2866,2.2866,2.2866,2.2866,2.2866,2.2866,2.2866,2.2866,2.2866,2.2866,2.2866,2.2866,2.2846,2.2766,2.2692,2.2752,2.2766,2.274,2.2666,2.2605,2.2612,2.2719,2.2832,2.2839,2.2839,2.2868,2.293,2.3409,2.424,2.5324,2.6247,2.6956,2.717,2.779,2.8535,2.9164,2.9823,3.0054,3.0019,2.9922,2.9805,2.9404,2.9072,2.8896,2.8711,2.8486,2.8301,2.8301,2.8301,2.8301,2.8301,2.8301,2.8301,2.8301,2.8301,2.8301,2.8301,2.8301,2.8262,2.8232,2.8213,2.8213,2.2241,2.2354,2.268,2.2983,2.2866,2.2866,2.2866,2.2866,2.2866,2.2866,2.2866,2.2866,2.2866,2.2866,2.2866,2.3126,2.3659,2.4655,2.6306,2.8229,2.8361,2.9939,3.1506,3.1963,3.1899,3.2819,3.3219,3.2819,3.2492,3.1313,3.0254,3.0651,3.0384,3.0245,2.9856,2.8952,2.8032,2.7304,2.6447,2.551,2.4588,2.4385,2.4655,2.359,2.3126,2.2866,2.2866,2.2866,2.2866,2.2866,2.2866,2.2866,2.2866,2.2866,2.2866,2.2866,2.2866,2.2866,2.2866,2.2866,2.2866,2.2866,2.2866,2.2866,2.2866,2.2866,2.2799,2.2779,2.2826,2.2832,2.2759,2.2807,2.2746,2.2752,2.2806,2.2866,2.2866,2.2866,2.2887,2.3188,2.4072,2.4701,2.4298,2.5165,2.5905,2.6411,2.7091,2.7939,2.8856,2.9486,2.9775,2.9736,2.9521,2.9394,2.9033,2.875,2.8643,2.8476,2.834,2.8301,2.8301,2.8301,2.8301,2.8301,2.8301,2.8301,2.8301,2.8301,2.8301,2.8301,2.8301,2.8301,2.8301,2.8301,2.8301,2.3833,2.3768,2.3146,2.2866,2.2866,2.2866,2.2866,2.2866,2.2866,2.2866,2.2866,2.2866,2.2866,2.2866,2.2928,2.3324,2.4588,2.5181,2.7421,2.8869,2.9661,3.0328,3.2765,3.2174,3.2692,3.3219,3.3219,3.2819,3.2027,3.1111,3.0125,2.9083,2.9017,2.9074,2.9074,2.8172,2.7437,2.6506,2.5651,2.5046,2.4648,2.3856,2.3522,2.3788,2.3924,2.2996,2.2866,2.2866,2.2866,2.2866,2.2866,2.2866,2.2866,2.2866,2.2866,2.2866,2.2866,2.2866,2.2866,2.2866,2.2866,2.2866,2.2866,2.2866,2.2866,2.2866,2.2866,2.2866,2.2866,2.2866,2.2866,2.2866,2.2866,2.2866,2.2866,2.2866,2.2866,2.2866,2.2866,2.3665,2.4595,2.4444,2.3894,2.4137,2.4822,2.5509,2.6229,2.7129,2.8341,2.9161,2.9765,2.9736,2.9238,2.8984,2.8691,2.8516,2.8457,2.8408,2.832,2.8301,2.8301,2.8301,2.8301,2.8301,2.8301,2.8301,2.8301,2.8301,2.8301,2.8301,2.8301,2.8301,2.8301,2.8301,2.8301,2.5111,2.4303,2.3342,2.2866,2.2866,2.2866,2.2866,2.2866,2.2866,2.2866,2.2866,2.2866,2.2866,2.2866,2.2928,2.3324,2.4588,2.5181,2.6231,2.7941,2.9596,2.9939,3.0863,3.1387,3.1579,3.1973,3.3019,3.2819,3.1762,3.0973,3.0125,2.9279,2.8886,2.8238,2.8106,2.7511,2.6647,2.5584,2.4851,2.452,2.4452,2.3659,2.3195,2.3795,2.3529,2.2866,2.2866,2.2866,2.2866,2.2866,2.2866,2.2866,2.2866,2.2866,2.2866,2.2866,2.2866,2.2866,2.2866,2.2866,2.2866,2.2866,2.2866,2.2866,2.2866,2.2866,2.2866,2.2866,2.2866,2.2866,2.2866,2.2866,2.2866,2.2866,2.2866,2.2866,2.2866,2.2866,2.2866,2.3133,2.3727,2.3692,2.3539,2.4513,2.5045,2.5352,2.5976,2.7388,2.8408,2.9208,2.9699,2.9844,2.9414,2.9014,2.8799,2.8564,2.835,2.831,2.8379,2.8301,2.831,2.8301,2.8301,2.8301,2.8301,2.8301,2.8301,2.8301,2.8301,2.8301,2.8301,2.8301,2.8301,2.8301,2.8301,2.6368,2.4486,2.337,2.2866,2.2866,2.2866,2.2866,2.2866,2.2866,2.2866,2.2866,2.2866,2.2866,2.2866,2.2934,2.3065,2.3659,2.4979,2.5704,2.6706,2.7825,2.8689,2.8821,2.8632,2.9548,3.0725,3.1899,3.2492,3.2428,3.1835,3.1304,3.0771,2.967,2.8427,2.7768,2.6839,2.5912,2.4986,2.4188,2.3468,2.3133,2.2866,2.2996,2.2996,2.2866,2.2866,2.2866,2.2866,2.2866,2.2866,2.2866,2.2866,2.2866,2.2866,2.2866,2.2866,2.2866,2.2866,2.2866,2.2866,2.2866,2.2866,2.2866,2.2866,2.2866,2.2866,2.2866,2.2866,2.2866,2.2866,2.2866,2.2866,2.2866,2.2866,2.2866,2.2866,2.2866,2.2866,2.2866,2.2866,2.2928,2.2983,2.3652,2.4573,2.5159,2.5405,2.6365,2.7833,2.9075,2.9662,3.0247,3.0156,2.9805,2.9414,2.9053,2.8848,2.8643,2.8633,2.8701,2.8486,2.831,2.8301,2.8301,2.8301,2.8301,2.831,2.8301,2.8301,2.8301,2.8301,2.8301,2.8301,2.8301,2.8301,2.8301,2.7935,2.5137,2.3556,2.2866,2.2866,2.2866,2.2866,2.2866,2.2866,2.2866,2.2866,2.2866,2.2866,2.2866,2.2866,2.3263,2.4256,2.5113,2.6439,2.7776,2.7238,2.7701,2.8106,2.7842,2.8295,2.9279,3.0393,3.1176,3.1899,3.2355,3.2819,3.2556,3.1038,2.9605,2.8172,2.7172,2.6046,2.4723,2.4324,2.3992,2.3065,2.2866,2.2866,2.2866,2.2866,2.2866,2.2866,2.2866,2.2866,2.2866,2.2866,2.2866,2.2866,2.2866,2.2866,2.2866,2.2866,2.2866,2.2866,2.2866,2.2866,2.2866,2.2866,2.2866,2.2866,2.2866,2.2866,2.2866,2.2866,2.2866,2.2866,2.2866,2.2866,2.2866,2.2866,2.2866,2.2866,2.2866,2.2866,2.2866,2.2928,2.3058,2.3393,2.4267,2.5056,2.5559,2.6472,2.7959,2.9304,3.0024,3.05,3.0276,2.9861,2.9853,2.9521,2.9365,2.9199,2.915,2.9033,2.8828,2.8594,2.832,2.831,2.8428,2.8369,2.834,2.832,2.8301,2.8301,2.8301,2.8301,2.8301,2.8301,2.8301,2.8301]}]]